<?xml version="1.0" encoding="UTF-8" standalone="no" ?>
<gpx xmlns="http://www.topografix.com/GPX/1/1" xmlns:xsi="http://www.w3.org/2001/XMLSchema-instance" xsi:schemaLocation="http://www.topografix.com/GPX/1/1 http://www.topografix.com/GPX/1/1/gpx.xsd" version="1.1" creator="VisuGPX - https://www.visugpx.com">
  <metadata>
    <name>Tour du Bric Bouchet - étape 1 (Queyras- Piémont)</name>
    <desc><![CDATA[Le Roux d'Abriès - Rifugio Willy Jervis]]></desc>
  </metadata>
  <trk>
    <name><![CDATA[09-JUIL-17 14:55:46]]></name>
    <trkseg>
      <trkpt lat="44.81855" lon="6.94472">
        <ele>1690.14</ele>
        <time>2017-07-09T08:07:21Z</time>
      </trkpt>
      <trkpt lat="44.81855" lon="6.94471">
        <ele>1692.54</ele>
        <time>2017-07-09T08:07:43Z</time>
      </trkpt>
      <trkpt lat="44.81854" lon="6.94472">
        <ele>1692.06</ele>
        <time>2017-07-09T08:07:44Z</time>
      </trkpt>
      <trkpt lat="44.8185" lon="6.94471">
        <ele>1691.58</ele>
        <time>2017-07-09T08:07:48Z</time>
      </trkpt>
      <trkpt lat="44.81848" lon="6.94474">
        <ele>1691.58</ele>
        <time>2017-07-09T08:07:58Z</time>
      </trkpt>
      <trkpt lat="44.81849" lon="6.94475">
        <ele>1692.06</ele>
        <time>2017-07-09T08:08:08Z</time>
      </trkpt>
      <trkpt lat="44.81848" lon="6.94476">
        <ele>1692.54</ele>
        <time>2017-07-09T08:08:17Z</time>
      </trkpt>
      <trkpt lat="44.81844" lon="6.94479">
        <ele>1692.54</ele>
        <time>2017-07-09T08:08:21Z</time>
      </trkpt>
      <trkpt lat="44.81842" lon="6.94473">
        <ele>1692.06</ele>
        <time>2017-07-09T08:08:26Z</time>
      </trkpt>
      <trkpt lat="44.8183" lon="6.94471">
        <ele>1691.1</ele>
        <time>2017-07-09T08:08:38Z</time>
      </trkpt>
      <trkpt lat="44.81814" lon="6.94476">
        <ele>1689.17</ele>
        <time>2017-07-09T08:08:52Z</time>
      </trkpt>
      <trkpt lat="44.81808" lon="6.94481">
        <ele>1688.69</ele>
        <time>2017-07-09T08:08:58Z</time>
      </trkpt>
      <trkpt lat="44.81798" lon="6.94488">
        <ele>1687.25</ele>
        <time>2017-07-09T08:09:08Z</time>
      </trkpt>
      <trkpt lat="44.81787" lon="6.9449">
        <ele>1686.77</ele>
        <time>2017-07-09T08:09:13Z</time>
      </trkpt>
      <trkpt lat="44.81782" lon="6.94487">
        <ele>1687.25</ele>
        <time>2017-07-09T08:09:25Z</time>
      </trkpt>
      <trkpt lat="44.81783" lon="6.94488">
        <ele>1687.73</ele>
        <time>2017-07-09T08:09:36Z</time>
      </trkpt>
      <trkpt lat="44.81777" lon="6.94489">
        <ele>1687.73</ele>
        <time>2017-07-09T08:09:41Z</time>
      </trkpt>
      <trkpt lat="44.81765" lon="6.94508">
        <ele>1686.77</ele>
        <time>2017-07-09T08:09:57Z</time>
      </trkpt>
      <trkpt lat="44.81764" lon="6.94513">
        <ele>1686.77</ele>
        <time>2017-07-09T08:10:00Z</time>
      </trkpt>
      <trkpt lat="44.8176" lon="6.9452">
        <ele>1687.25</ele>
        <time>2017-07-09T08:10:04Z</time>
      </trkpt>
      <trkpt lat="44.8175" lon="6.9454">
        <ele>1686.77</ele>
        <time>2017-07-09T08:10:18Z</time>
      </trkpt>
      <trkpt lat="44.8174" lon="6.94551">
        <ele>1686.77</ele>
        <time>2017-07-09T08:10:27Z</time>
      </trkpt>
      <trkpt lat="44.81725" lon="6.94557">
        <ele>1686.29</ele>
        <time>2017-07-09T08:10:41Z</time>
      </trkpt>
      <trkpt lat="44.81709" lon="6.94557">
        <ele>1686.77</ele>
        <time>2017-07-09T08:10:53Z</time>
      </trkpt>
      <trkpt lat="44.81702" lon="6.9456">
        <ele>1686.29</ele>
        <time>2017-07-09T08:11:01Z</time>
      </trkpt>
      <trkpt lat="44.81689" lon="6.94574">
        <ele>1684.85</ele>
        <time>2017-07-09T08:11:14Z</time>
      </trkpt>
      <trkpt lat="44.81674" lon="6.94584">
        <ele>1684.37</ele>
        <time>2017-07-09T08:11:27Z</time>
      </trkpt>
      <trkpt lat="44.8167" lon="6.94589">
        <ele>1683.89</ele>
        <time>2017-07-09T08:11:33Z</time>
      </trkpt>
      <trkpt lat="44.81667" lon="6.94593">
        <ele>1683.41</ele>
        <time>2017-07-09T08:11:36Z</time>
      </trkpt>
      <trkpt lat="44.81661" lon="6.94602">
        <ele>1682.44</ele>
        <time>2017-07-09T08:11:45Z</time>
      </trkpt>
      <trkpt lat="44.81659" lon="6.94604">
        <ele>1682.44</ele>
        <time>2017-07-09T08:11:47Z</time>
      </trkpt>
      <trkpt lat="44.81655" lon="6.94614">
        <ele>1682.44</ele>
        <time>2017-07-09T08:11:54Z</time>
      </trkpt>
      <trkpt lat="44.81648" lon="6.94623">
        <ele>1681.96</ele>
        <time>2017-07-09T08:11:59Z</time>
      </trkpt>
      <trkpt lat="44.81637" lon="6.94628">
        <ele>1679.56</ele>
        <time>2017-07-09T08:12:13Z</time>
      </trkpt>
      <trkpt lat="44.81637" lon="6.94628">
        <ele>1679.56</ele>
        <time>2017-07-09T08:12:14Z</time>
      </trkpt>
      <trkpt lat="44.81636" lon="6.94631">
        <ele>1681</ele>
        <time>2017-07-09T08:12:18Z</time>
      </trkpt>
      <trkpt lat="44.81633" lon="6.94635">
        <ele>1681.48</ele>
        <time>2017-07-09T08:12:21Z</time>
      </trkpt>
      <trkpt lat="44.81625" lon="6.94641">
        <ele>1681.48</ele>
        <time>2017-07-09T08:12:29Z</time>
      </trkpt>
      <trkpt lat="44.81621" lon="6.94647">
        <ele>1681</ele>
        <time>2017-07-09T08:12:34Z</time>
      </trkpt>
      <trkpt lat="44.81614" lon="6.94654">
        <ele>1680.52</ele>
        <time>2017-07-09T08:12:39Z</time>
      </trkpt>
      <trkpt lat="44.81606" lon="6.94665">
        <ele>1680.04</ele>
        <time>2017-07-09T08:12:49Z</time>
      </trkpt>
      <trkpt lat="44.81603" lon="6.94673">
        <ele>1680.04</ele>
        <time>2017-07-09T08:12:53Z</time>
      </trkpt>
      <trkpt lat="44.81602" lon="6.94682">
        <ele>1679.56</ele>
        <time>2017-07-09T08:12:58Z</time>
      </trkpt>
      <trkpt lat="44.81601" lon="6.94693">
        <ele>1679.08</ele>
        <time>2017-07-09T08:13:02Z</time>
      </trkpt>
      <trkpt lat="44.816" lon="6.94707">
        <ele>1677.64</ele>
        <time>2017-07-09T08:13:14Z</time>
      </trkpt>
      <trkpt lat="44.81597" lon="6.94711">
        <ele>1675.23</ele>
        <time>2017-07-09T08:13:20Z</time>
      </trkpt>
      <trkpt lat="44.81594" lon="6.94714">
        <ele>1673.79</ele>
        <time>2017-07-09T08:13:23Z</time>
      </trkpt>
      <trkpt lat="44.81588" lon="6.94725">
        <ele>1670.91</ele>
        <time>2017-07-09T08:13:35Z</time>
      </trkpt>
      <trkpt lat="44.81587" lon="6.94727">
        <ele>1670.43</ele>
        <time>2017-07-09T08:13:38Z</time>
      </trkpt>
      <trkpt lat="44.81585" lon="6.94732">
        <ele>1668.51</ele>
        <time>2017-07-09T08:13:43Z</time>
      </trkpt>
      <trkpt lat="44.81575" lon="6.94743">
        <ele>1668.99</ele>
        <time>2017-07-09T08:13:52Z</time>
      </trkpt>
      <trkpt lat="44.81573" lon="6.94745">
        <ele>1669.95</ele>
        <time>2017-07-09T08:13:55Z</time>
      </trkpt>
      <trkpt lat="44.81564" lon="6.94754">
        <ele>1671.87</ele>
        <time>2017-07-09T08:14:04Z</time>
      </trkpt>
      <trkpt lat="44.8156" lon="6.94758">
        <ele>1672.35</ele>
        <time>2017-07-09T08:14:08Z</time>
      </trkpt>
      <trkpt lat="44.81545" lon="6.94765">
        <ele>1675.23</ele>
        <time>2017-07-09T08:14:20Z</time>
      </trkpt>
      <trkpt lat="44.81544" lon="6.94765">
        <ele>1675.23</ele>
        <time>2017-07-09T08:14:21Z</time>
      </trkpt>
      <trkpt lat="44.81541" lon="6.94761">
        <ele>1675.72</ele>
        <time>2017-07-09T08:14:25Z</time>
      </trkpt>
      <trkpt lat="44.81537" lon="6.94739">
        <ele>1676.2</ele>
        <time>2017-07-09T08:14:38Z</time>
      </trkpt>
      <trkpt lat="44.81538" lon="6.94736">
        <ele>1676.2</ele>
        <time>2017-07-09T08:14:40Z</time>
      </trkpt>
      <trkpt lat="44.81541" lon="6.94729">
        <ele>1677.64</ele>
        <time>2017-07-09T08:14:46Z</time>
      </trkpt>
      <trkpt lat="44.81543" lon="6.94725">
        <ele>1678.6</ele>
        <time>2017-07-09T08:14:52Z</time>
      </trkpt>
      <trkpt lat="44.81543" lon="6.94719">
        <ele>1679.08</ele>
        <time>2017-07-09T08:15:00Z</time>
      </trkpt>
      <trkpt lat="44.81542" lon="6.94715">
        <ele>1679.56</ele>
        <time>2017-07-09T08:15:04Z</time>
      </trkpt>
      <trkpt lat="44.81541" lon="6.94707">
        <ele>1680.52</ele>
        <time>2017-07-09T08:15:10Z</time>
      </trkpt>
      <trkpt lat="44.81541" lon="6.94702">
        <ele>1681.48</ele>
        <time>2017-07-09T08:15:16Z</time>
      </trkpt>
      <trkpt lat="44.81544" lon="6.94694">
        <ele>1684.37</ele>
        <time>2017-07-09T08:15:30Z</time>
      </trkpt>
      <trkpt lat="44.81548" lon="6.94694">
        <ele>1685.81</ele>
        <time>2017-07-09T08:15:42Z</time>
      </trkpt>
      <trkpt lat="44.81551" lon="6.94711">
        <ele>1685.81</ele>
        <time>2017-07-09T08:15:52Z</time>
      </trkpt>
      <trkpt lat="44.8155" lon="6.94717">
        <ele>1686.29</ele>
        <time>2017-07-09T08:15:56Z</time>
      </trkpt>
      <trkpt lat="44.81547" lon="6.94725">
        <ele>1686.77</ele>
        <time>2017-07-09T08:16:01Z</time>
      </trkpt>
      <trkpt lat="44.81538" lon="6.94728">
        <ele>1686.77</ele>
        <time>2017-07-09T08:16:06Z</time>
      </trkpt>
      <trkpt lat="44.81529" lon="6.94734">
        <ele>1686.77</ele>
        <time>2017-07-09T08:16:18Z</time>
      </trkpt>
      <trkpt lat="44.81526" lon="6.94746">
        <ele>1687.73</ele>
        <time>2017-07-09T08:16:25Z</time>
      </trkpt>
      <trkpt lat="44.81515" lon="6.94756">
        <ele>1687.73</ele>
        <time>2017-07-09T08:16:36Z</time>
      </trkpt>
      <trkpt lat="44.81512" lon="6.94776">
        <ele>1687.73</ele>
        <time>2017-07-09T08:16:51Z</time>
      </trkpt>
      <trkpt lat="44.81503" lon="6.94792">
        <ele>1687.25</ele>
        <time>2017-07-09T08:17:04Z</time>
      </trkpt>
      <trkpt lat="44.815" lon="6.94802">
        <ele>1685.33</ele>
        <time>2017-07-09T08:17:12Z</time>
      </trkpt>
      <trkpt lat="44.815" lon="6.9481">
        <ele>1685.33</ele>
        <time>2017-07-09T08:17:16Z</time>
      </trkpt>
      <trkpt lat="44.81489" lon="6.94822">
        <ele>1687.25</ele>
        <time>2017-07-09T08:17:27Z</time>
      </trkpt>
      <trkpt lat="44.81489" lon="6.94823">
        <ele>1687.25</ele>
        <time>2017-07-09T08:17:28Z</time>
      </trkpt>
      <trkpt lat="44.81478" lon="6.94831">
        <ele>1689.17</ele>
        <time>2017-07-09T08:17:38Z</time>
      </trkpt>
      <trkpt lat="44.81465" lon="6.94843">
        <ele>1692.06</ele>
        <time>2017-07-09T08:17:54Z</time>
      </trkpt>
      <trkpt lat="44.81462" lon="6.94848">
        <ele>1693.02</ele>
        <time>2017-07-09T08:18:00Z</time>
      </trkpt>
      <trkpt lat="44.8146" lon="6.9485">
        <ele>1693.5</ele>
        <time>2017-07-09T08:18:02Z</time>
      </trkpt>
      <trkpt lat="44.81448" lon="6.9486">
        <ele>1695.9</ele>
        <time>2017-07-09T08:18:16Z</time>
      </trkpt>
      <trkpt lat="44.81449" lon="6.94872">
        <ele>1697.83</ele>
        <time>2017-07-09T08:18:29Z</time>
      </trkpt>
      <trkpt lat="44.81447" lon="6.94874">
        <ele>1698.31</ele>
        <time>2017-07-09T08:18:31Z</time>
      </trkpt>
      <trkpt lat="44.81434" lon="6.94883">
        <ele>1700.71</ele>
        <time>2017-07-09T08:18:44Z</time>
      </trkpt>
      <trkpt lat="44.81424" lon="6.9489">
        <ele>1703.11</ele>
        <time>2017-07-09T08:18:57Z</time>
      </trkpt>
      <trkpt lat="44.81418" lon="6.94891">
        <ele>1704.07</ele>
        <time>2017-07-09T08:19:02Z</time>
      </trkpt>
      <trkpt lat="44.81416" lon="6.94893">
        <ele>1704.07</ele>
        <time>2017-07-09T08:19:04Z</time>
      </trkpt>
      <trkpt lat="44.81413" lon="6.94897">
        <ele>1704.07</ele>
        <time>2017-07-09T08:19:09Z</time>
      </trkpt>
      <trkpt lat="44.81407" lon="6.94901">
        <ele>1706.96</ele>
        <time>2017-07-09T08:19:23Z</time>
      </trkpt>
      <trkpt lat="44.81398" lon="6.94906">
        <ele>1709.84</ele>
        <time>2017-07-09T08:19:37Z</time>
      </trkpt>
      <trkpt lat="44.81397" lon="6.9491">
        <ele>1712.25</ele>
        <time>2017-07-09T08:19:49Z</time>
      </trkpt>
      <trkpt lat="44.81388" lon="6.94916">
        <ele>1715.61</ele>
        <time>2017-07-09T08:20:01Z</time>
      </trkpt>
      <trkpt lat="44.81383" lon="6.94921">
        <ele>1715.61</ele>
        <time>2017-07-09T08:20:06Z</time>
      </trkpt>
      <trkpt lat="44.81378" lon="6.94933">
        <ele>1715.61</ele>
        <time>2017-07-09T08:20:16Z</time>
      </trkpt>
      <trkpt lat="44.81374" lon="6.94945">
        <ele>1717.05</ele>
        <time>2017-07-09T08:20:27Z</time>
      </trkpt>
      <trkpt lat="44.81369" lon="6.94951">
        <ele>1719.46</ele>
        <time>2017-07-09T08:20:40Z</time>
      </trkpt>
      <trkpt lat="44.81361" lon="6.9496">
        <ele>1721.86</ele>
        <time>2017-07-09T08:20:54Z</time>
      </trkpt>
      <trkpt lat="44.81357" lon="6.94965">
        <ele>1722.82</ele>
        <time>2017-07-09T08:20:58Z</time>
      </trkpt>
      <trkpt lat="44.81353" lon="6.94967">
        <ele>1722.82</ele>
        <time>2017-07-09T08:21:00Z</time>
      </trkpt>
      <trkpt lat="44.81342" lon="6.94976">
        <ele>1723.3</ele>
        <time>2017-07-09T08:21:12Z</time>
      </trkpt>
      <trkpt lat="44.81333" lon="6.94987">
        <ele>1725.22</ele>
        <time>2017-07-09T08:21:25Z</time>
      </trkpt>
      <trkpt lat="44.81333" lon="6.9499">
        <ele>1725.22</ele>
        <time>2017-07-09T08:21:28Z</time>
      </trkpt>
      <trkpt lat="44.81329" lon="6.95003">
        <ele>1726.67</ele>
        <time>2017-07-09T08:21:39Z</time>
      </trkpt>
      <trkpt lat="44.81327" lon="6.95006">
        <ele>1727.63</ele>
        <time>2017-07-09T08:21:43Z</time>
      </trkpt>
      <trkpt lat="44.81326" lon="6.95013">
        <ele>1730.03</ele>
        <time>2017-07-09T08:21:55Z</time>
      </trkpt>
      <trkpt lat="44.8133" lon="6.95022">
        <ele>1731.47</ele>
        <time>2017-07-09T08:22:02Z</time>
      </trkpt>
      <trkpt lat="44.81329" lon="6.95028">
        <ele>1731.95</ele>
        <time>2017-07-09T08:22:06Z</time>
      </trkpt>
      <trkpt lat="44.81324" lon="6.95034">
        <ele>1733.39</ele>
        <time>2017-07-09T08:22:12Z</time>
      </trkpt>
      <trkpt lat="44.81317" lon="6.95042">
        <ele>1733.39</ele>
        <time>2017-07-09T08:22:18Z</time>
      </trkpt>
      <trkpt lat="44.81314" lon="6.9505">
        <ele>1734.36</ele>
        <time>2017-07-09T08:22:31Z</time>
      </trkpt>
      <trkpt lat="44.81314" lon="6.95051">
        <ele>1734.36</ele>
        <time>2017-07-09T08:22:33Z</time>
      </trkpt>
      <trkpt lat="44.81312" lon="6.95059">
        <ele>1735.32</ele>
        <time>2017-07-09T08:22:46Z</time>
      </trkpt>
      <trkpt lat="44.81309" lon="6.95061">
        <ele>1735.8</ele>
        <time>2017-07-09T08:22:51Z</time>
      </trkpt>
      <trkpt lat="44.81297" lon="6.95066">
        <ele>1735.8</ele>
        <time>2017-07-09T08:23:04Z</time>
      </trkpt>
      <trkpt lat="44.81292" lon="6.95069">
        <ele>1735.8</ele>
        <time>2017-07-09T08:23:07Z</time>
      </trkpt>
      <trkpt lat="44.8129" lon="6.95078">
        <ele>1736.76</ele>
        <time>2017-07-09T08:23:18Z</time>
      </trkpt>
      <trkpt lat="44.81291" lon="6.95082">
        <ele>1737.24</ele>
        <time>2017-07-09T08:23:21Z</time>
      </trkpt>
      <trkpt lat="44.81293" lon="6.9509">
        <ele>1737.72</ele>
        <time>2017-07-09T08:23:26Z</time>
      </trkpt>
      <trkpt lat="44.81293" lon="6.95097">
        <ele>1737.72</ele>
        <time>2017-07-09T08:23:29Z</time>
      </trkpt>
      <trkpt lat="44.81288" lon="6.95101">
        <ele>1738.68</ele>
        <time>2017-07-09T08:23:35Z</time>
      </trkpt>
      <trkpt lat="44.81288" lon="6.95109">
        <ele>1739.64</ele>
        <time>2017-07-09T08:23:41Z</time>
      </trkpt>
      <trkpt lat="44.81291" lon="6.95115">
        <ele>1740.6</ele>
        <time>2017-07-09T08:23:48Z</time>
      </trkpt>
      <trkpt lat="44.8129" lon="6.95122">
        <ele>1741.57</ele>
        <time>2017-07-09T08:24:04Z</time>
      </trkpt>
      <trkpt lat="44.81288" lon="6.9513">
        <ele>1743.49</ele>
        <time>2017-07-09T08:24:21Z</time>
      </trkpt>
      <trkpt lat="44.81289" lon="6.95131">
        <ele>1743.49</ele>
        <time>2017-07-09T08:24:23Z</time>
      </trkpt>
      <trkpt lat="44.8129" lon="6.95133">
        <ele>1743.97</ele>
        <time>2017-07-09T08:24:25Z</time>
      </trkpt>
      <trkpt lat="44.81292" lon="6.95137">
        <ele>1745.41</ele>
        <time>2017-07-09T08:24:29Z</time>
      </trkpt>
      <trkpt lat="44.81291" lon="6.95137">
        <ele>1745.41</ele>
        <time>2017-07-09T08:24:31Z</time>
      </trkpt>
      <trkpt lat="44.81294" lon="6.95153">
        <ele>1747.33</ele>
        <time>2017-07-09T08:24:41Z</time>
      </trkpt>
      <trkpt lat="44.81287" lon="6.95166">
        <ele>1750.22</ele>
        <time>2017-07-09T08:24:52Z</time>
      </trkpt>
      <trkpt lat="44.8128" lon="6.95187">
        <ele>1752.14</ele>
        <time>2017-07-09T08:25:06Z</time>
      </trkpt>
      <trkpt lat="44.81273" lon="6.95196">
        <ele>1753.1</ele>
        <time>2017-07-09T08:25:14Z</time>
      </trkpt>
      <trkpt lat="44.8127" lon="6.95202">
        <ele>1755.99</ele>
        <time>2017-07-09T08:25:27Z</time>
      </trkpt>
      <trkpt lat="44.81272" lon="6.95207">
        <ele>1757.43</ele>
        <time>2017-07-09T08:25:38Z</time>
      </trkpt>
      <trkpt lat="44.81275" lon="6.95216">
        <ele>1760.31</ele>
        <time>2017-07-09T08:25:49Z</time>
      </trkpt>
      <trkpt lat="44.81275" lon="6.95233">
        <ele>1762.71</ele>
        <time>2017-07-09T08:26:02Z</time>
      </trkpt>
      <trkpt lat="44.81272" lon="6.95246">
        <ele>1765.6</ele>
        <time>2017-07-09T08:26:14Z</time>
      </trkpt>
      <trkpt lat="44.81264" lon="6.95255">
        <ele>1768.48</ele>
        <time>2017-07-09T08:26:25Z</time>
      </trkpt>
      <trkpt lat="44.81262" lon="6.9526">
        <ele>1769.92</ele>
        <time>2017-07-09T08:26:32Z</time>
      </trkpt>
      <trkpt lat="44.81262" lon="6.95264">
        <ele>1770.41</ele>
        <time>2017-07-09T08:26:36Z</time>
      </trkpt>
      <trkpt lat="44.81255" lon="6.95274">
        <ele>1773.29</ele>
        <time>2017-07-09T08:26:51Z</time>
      </trkpt>
      <trkpt lat="44.8125" lon="6.95281">
        <ele>1775.21</ele>
        <time>2017-07-09T08:27:02Z</time>
      </trkpt>
      <trkpt lat="44.8124" lon="6.95297">
        <ele>1778.1</ele>
        <time>2017-07-09T08:27:15Z</time>
      </trkpt>
      <trkpt lat="44.81237" lon="6.95301">
        <ele>1779.06</ele>
        <time>2017-07-09T08:27:19Z</time>
      </trkpt>
      <trkpt lat="44.81228" lon="6.9531">
        <ele>1781.94</ele>
        <time>2017-07-09T08:27:33Z</time>
      </trkpt>
      <trkpt lat="44.81221" lon="6.95319">
        <ele>1783.38</ele>
        <time>2017-07-09T08:27:44Z</time>
      </trkpt>
      <trkpt lat="44.81219" lon="6.95324">
        <ele>1783.86</ele>
        <time>2017-07-09T08:27:49Z</time>
      </trkpt>
      <trkpt lat="44.81215" lon="6.95336">
        <ele>1786.75</ele>
        <time>2017-07-09T08:28:01Z</time>
      </trkpt>
      <trkpt lat="44.81212" lon="6.95339">
        <ele>1787.23</ele>
        <time>2017-07-09T08:28:05Z</time>
      </trkpt>
      <trkpt lat="44.81214" lon="6.95344">
        <ele>1788.67</ele>
        <time>2017-07-09T08:28:08Z</time>
      </trkpt>
      <trkpt lat="44.81207" lon="6.95357">
        <ele>1790.11</ele>
        <time>2017-07-09T08:28:20Z</time>
      </trkpt>
      <trkpt lat="44.81203" lon="6.95364">
        <ele>1792.03</ele>
        <time>2017-07-09T08:28:28Z</time>
      </trkpt>
      <trkpt lat="44.812" lon="6.95371">
        <ele>1793.48</ele>
        <time>2017-07-09T08:28:37Z</time>
      </trkpt>
      <trkpt lat="44.81192" lon="6.9538">
        <ele>1796.84</ele>
        <time>2017-07-09T08:28:51Z</time>
      </trkpt>
      <trkpt lat="44.81186" lon="6.95386">
        <ele>1799.24</ele>
        <time>2017-07-09T08:29:03Z</time>
      </trkpt>
      <trkpt lat="44.81186" lon="6.95382">
        <ele>1800.21</ele>
        <time>2017-07-09T08:29:07Z</time>
      </trkpt>
      <trkpt lat="44.81186" lon="6.95374">
        <ele>1801.17</ele>
        <time>2017-07-09T08:29:14Z</time>
      </trkpt>
      <trkpt lat="44.81184" lon="6.95367">
        <ele>1804.53</ele>
        <time>2017-07-09T08:29:26Z</time>
      </trkpt>
      <trkpt lat="44.81178" lon="6.95356">
        <ele>1806.94</ele>
        <time>2017-07-09T08:29:40Z</time>
      </trkpt>
      <trkpt lat="44.81175" lon="6.95345">
        <ele>1809.82</ele>
        <time>2017-07-09T08:29:56Z</time>
      </trkpt>
      <trkpt lat="44.81172" lon="6.95336">
        <ele>1812.22</ele>
        <time>2017-07-09T08:30:09Z</time>
      </trkpt>
      <trkpt lat="44.81171" lon="6.95325">
        <ele>1815.11</ele>
        <time>2017-07-09T08:30:24Z</time>
      </trkpt>
      <trkpt lat="44.81167" lon="6.95317">
        <ele>1816.55</ele>
        <time>2017-07-09T08:30:31Z</time>
      </trkpt>
      <trkpt lat="44.81164" lon="6.95304">
        <ele>1818.95</ele>
        <time>2017-07-09T08:30:43Z</time>
      </trkpt>
      <trkpt lat="44.81162" lon="6.95298">
        <ele>1820.87</ele>
        <time>2017-07-09T08:30:50Z</time>
      </trkpt>
      <trkpt lat="44.8116" lon="6.95298">
        <ele>1821.84</ele>
        <time>2017-07-09T08:31:04Z</time>
      </trkpt>
      <trkpt lat="44.81169" lon="6.95294">
        <ele>1821.35</ele>
        <time>2017-07-09T08:31:20Z</time>
      </trkpt>
      <trkpt lat="44.8117" lon="6.95292">
        <ele>1821.84</ele>
        <time>2017-07-09T08:31:28Z</time>
      </trkpt>
      <trkpt lat="44.81167" lon="6.953">
        <ele>1821.35</ele>
        <time>2017-07-09T08:31:36Z</time>
      </trkpt>
      <trkpt lat="44.81169" lon="6.95304">
        <ele>1820.39</ele>
        <time>2017-07-09T08:31:41Z</time>
      </trkpt>
      <trkpt lat="44.81175" lon="6.95314">
        <ele>1818.47</ele>
        <time>2017-07-09T08:31:52Z</time>
      </trkpt>
      <trkpt lat="44.81173" lon="6.9532">
        <ele>1817.03</ele>
        <time>2017-07-09T08:32:06Z</time>
      </trkpt>
      <trkpt lat="44.81171" lon="6.95321">
        <ele>1818.47</ele>
        <time>2017-07-09T08:32:25Z</time>
      </trkpt>
      <trkpt lat="44.81171" lon="6.95325">
        <ele>1818.47</ele>
        <time>2017-07-09T08:32:42Z</time>
      </trkpt>
      <trkpt lat="44.81172" lon="6.95328">
        <ele>1818.47</ele>
        <time>2017-07-09T08:32:55Z</time>
      </trkpt>
      <trkpt lat="44.81172" lon="6.95327">
        <ele>1818.95</ele>
        <time>2017-07-09T08:33:18Z</time>
      </trkpt>
      <trkpt lat="44.81174" lon="6.95329">
        <ele>1819.43</ele>
        <time>2017-07-09T08:33:47Z</time>
      </trkpt>
      <trkpt lat="44.81172" lon="6.95328">
        <ele>1820.87</ele>
        <time>2017-07-09T08:34:01Z</time>
      </trkpt>
      <trkpt lat="44.81166" lon="6.95309">
        <ele>1823.76</ele>
        <time>2017-07-09T08:34:15Z</time>
      </trkpt>
      <trkpt lat="44.81164" lon="6.95301">
        <ele>1826.16</ele>
        <time>2017-07-09T08:34:25Z</time>
      </trkpt>
      <trkpt lat="44.8116" lon="6.95299">
        <ele>1827.12</ele>
        <time>2017-07-09T08:34:29Z</time>
      </trkpt>
      <trkpt lat="44.81157" lon="6.95303">
        <ele>1829.05</ele>
        <time>2017-07-09T08:34:41Z</time>
      </trkpt>
      <trkpt lat="44.81152" lon="6.95309">
        <ele>1831.45</ele>
        <time>2017-07-09T08:34:53Z</time>
      </trkpt>
      <trkpt lat="44.8115" lon="6.95314">
        <ele>1834.81</ele>
        <time>2017-07-09T08:35:04Z</time>
      </trkpt>
      <trkpt lat="44.81142" lon="6.95321">
        <ele>1837.7</ele>
        <time>2017-07-09T08:35:18Z</time>
      </trkpt>
      <trkpt lat="44.81132" lon="6.95327">
        <ele>1840.1</ele>
        <time>2017-07-09T08:35:30Z</time>
      </trkpt>
      <trkpt lat="44.81128" lon="6.95329">
        <ele>1842.02</ele>
        <time>2017-07-09T08:35:41Z</time>
      </trkpt>
      <trkpt lat="44.81121" lon="6.95331">
        <ele>1845.39</ele>
        <time>2017-07-09T08:35:54Z</time>
      </trkpt>
      <trkpt lat="44.8112" lon="6.95332">
        <ele>1846.35</ele>
        <time>2017-07-09T08:36:00Z</time>
      </trkpt>
      <trkpt lat="44.8112" lon="6.95334">
        <ele>1847.31</ele>
        <time>2017-07-09T08:36:05Z</time>
      </trkpt>
      <trkpt lat="44.81117" lon="6.95346">
        <ele>1849.23</ele>
        <time>2017-07-09T08:36:17Z</time>
      </trkpt>
      <trkpt lat="44.81116" lon="6.95358">
        <ele>1852.12</ele>
        <time>2017-07-09T08:36:31Z</time>
      </trkpt>
      <trkpt lat="44.81116" lon="6.95373">
        <ele>1854.52</ele>
        <time>2017-07-09T08:36:45Z</time>
      </trkpt>
      <trkpt lat="44.81112" lon="6.9539">
        <ele>1857.4</ele>
        <time>2017-07-09T08:36:59Z</time>
      </trkpt>
      <trkpt lat="44.81102" lon="6.95405">
        <ele>1859.33</ele>
        <time>2017-07-09T08:37:13Z</time>
      </trkpt>
      <trkpt lat="44.81095" lon="6.95418">
        <ele>1861.73</ele>
        <time>2017-07-09T08:37:26Z</time>
      </trkpt>
      <trkpt lat="44.81092" lon="6.95418">
        <ele>1863.17</ele>
        <time>2017-07-09T08:37:40Z</time>
      </trkpt>
      <trkpt lat="44.81086" lon="6.95422">
        <ele>1865.09</ele>
        <time>2017-07-09T08:37:52Z</time>
      </trkpt>
      <trkpt lat="44.8108" lon="6.95431">
        <ele>1867.98</ele>
        <time>2017-07-09T08:38:06Z</time>
      </trkpt>
      <trkpt lat="44.81072" lon="6.95442">
        <ele>1869.42</ele>
        <time>2017-07-09T08:38:17Z</time>
      </trkpt>
      <trkpt lat="44.81062" lon="6.95455">
        <ele>1871.82</ele>
        <time>2017-07-09T08:38:31Z</time>
      </trkpt>
      <trkpt lat="44.81052" lon="6.95464">
        <ele>1874.71</ele>
        <time>2017-07-09T08:38:45Z</time>
      </trkpt>
      <trkpt lat="44.81044" lon="6.95478">
        <ele>1877.11</ele>
        <time>2017-07-09T08:38:59Z</time>
      </trkpt>
      <trkpt lat="44.8104" lon="6.95488">
        <ele>1879.03</ele>
        <time>2017-07-09T08:39:11Z</time>
      </trkpt>
      <trkpt lat="44.8104" lon="6.95489">
        <ele>1879.03</ele>
        <time>2017-07-09T08:39:12Z</time>
      </trkpt>
      <trkpt lat="44.8103" lon="6.95501">
        <ele>1881.44</ele>
        <time>2017-07-09T08:39:26Z</time>
      </trkpt>
      <trkpt lat="44.8102" lon="6.95511">
        <ele>1883.36</ele>
        <time>2017-07-09T08:39:39Z</time>
      </trkpt>
      <trkpt lat="44.8101" lon="6.95522">
        <ele>1885.76</ele>
        <time>2017-07-09T08:39:53Z</time>
      </trkpt>
      <trkpt lat="44.81002" lon="6.95532">
        <ele>1888.17</ele>
        <time>2017-07-09T08:40:05Z</time>
      </trkpt>
      <trkpt lat="44.80998" lon="6.95537">
        <ele>1888.65</ele>
        <time>2017-07-09T08:40:11Z</time>
      </trkpt>
      <trkpt lat="44.80988" lon="6.95542">
        <ele>1889.13</ele>
        <time>2017-07-09T08:40:18Z</time>
      </trkpt>
      <trkpt lat="44.80981" lon="6.95542">
        <ele>1889.61</ele>
        <time>2017-07-09T08:40:24Z</time>
      </trkpt>
      <trkpt lat="44.80974" lon="6.9554">
        <ele>1889.61</ele>
        <time>2017-07-09T08:40:30Z</time>
      </trkpt>
      <trkpt lat="44.80972" lon="6.95538">
        <ele>1890.09</ele>
        <time>2017-07-09T08:40:32Z</time>
      </trkpt>
      <trkpt lat="44.80965" lon="6.95539">
        <ele>1890.57</ele>
        <time>2017-07-09T08:40:38Z</time>
      </trkpt>
      <trkpt lat="44.80961" lon="6.9554">
        <ele>1892.97</ele>
        <time>2017-07-09T08:40:52Z</time>
      </trkpt>
      <trkpt lat="44.80962" lon="6.95546">
        <ele>1895.86</ele>
        <time>2017-07-09T08:41:01Z</time>
      </trkpt>
      <trkpt lat="44.80955" lon="6.95555">
        <ele>1897.78</ele>
        <time>2017-07-09T08:41:14Z</time>
      </trkpt>
      <trkpt lat="44.80947" lon="6.95562">
        <ele>1901.14</ele>
        <time>2017-07-09T08:41:28Z</time>
      </trkpt>
      <trkpt lat="44.80934" lon="6.95568">
        <ele>1904.03</ele>
        <time>2017-07-09T08:41:42Z</time>
      </trkpt>
      <trkpt lat="44.80923" lon="6.95572">
        <ele>1905.95</ele>
        <time>2017-07-09T08:41:56Z</time>
      </trkpt>
      <trkpt lat="44.80915" lon="6.95582">
        <ele>1908.35</ele>
        <time>2017-07-09T08:42:11Z</time>
      </trkpt>
      <trkpt lat="44.80911" lon="6.95587">
        <ele>1908.83</ele>
        <time>2017-07-09T08:42:17Z</time>
      </trkpt>
      <trkpt lat="44.80902" lon="6.95596">
        <ele>1909.8</ele>
        <time>2017-07-09T08:42:28Z</time>
      </trkpt>
      <trkpt lat="44.80897" lon="6.95597">
        <ele>1910.28</ele>
        <time>2017-07-09T08:42:32Z</time>
      </trkpt>
      <trkpt lat="44.80889" lon="6.95608">
        <ele>1913.64</ele>
        <time>2017-07-09T08:42:46Z</time>
      </trkpt>
      <trkpt lat="44.80886" lon="6.95615">
        <ele>1915.56</ele>
        <time>2017-07-09T08:42:55Z</time>
      </trkpt>
      <trkpt lat="44.80881" lon="6.95621">
        <ele>1917.01</ele>
        <time>2017-07-09T08:43:01Z</time>
      </trkpt>
      <trkpt lat="44.80874" lon="6.95638">
        <ele>1915.56</ele>
        <time>2017-07-09T08:43:16Z</time>
      </trkpt>
      <trkpt lat="44.80871" lon="6.95646">
        <ele>1918.93</ele>
        <time>2017-07-09T08:43:26Z</time>
      </trkpt>
      <trkpt lat="44.80864" lon="6.9565">
        <ele>1920.37</ele>
        <time>2017-07-09T08:43:34Z</time>
      </trkpt>
      <trkpt lat="44.80852" lon="6.9566">
        <ele>1922.77</ele>
        <time>2017-07-09T08:43:45Z</time>
      </trkpt>
      <trkpt lat="44.80848" lon="6.9567">
        <ele>1925.66</ele>
        <time>2017-07-09T08:43:58Z</time>
      </trkpt>
      <trkpt lat="44.80841" lon="6.95666">
        <ele>1926.14</ele>
        <time>2017-07-09T08:44:10Z</time>
      </trkpt>
      <trkpt lat="44.80839" lon="6.95663">
        <ele>1926.62</ele>
        <time>2017-07-09T08:44:12Z</time>
      </trkpt>
      <trkpt lat="44.80838" lon="6.95662">
        <ele>1926.62</ele>
        <time>2017-07-09T08:44:24Z</time>
      </trkpt>
      <trkpt lat="44.8084" lon="6.95665">
        <ele>1926.62</ele>
        <time>2017-07-09T08:44:30Z</time>
      </trkpt>
      <trkpt lat="44.8085" lon="6.95665">
        <ele>1926.62</ele>
        <time>2017-07-09T08:44:42Z</time>
      </trkpt>
      <trkpt lat="44.80851" lon="6.95663">
        <ele>1926.62</ele>
        <time>2017-07-09T08:44:56Z</time>
      </trkpt>
      <trkpt lat="44.80849" lon="6.95667">
        <ele>1926.62</ele>
        <time>2017-07-09T08:45:09Z</time>
      </trkpt>
      <trkpt lat="44.80845" lon="6.95665">
        <ele>1927.1</ele>
        <time>2017-07-09T08:45:20Z</time>
      </trkpt>
      <trkpt lat="44.80845" lon="6.95664">
        <ele>1925.18</ele>
        <time>2017-07-09T08:45:21Z</time>
      </trkpt>
      <trkpt lat="44.80845" lon="6.95664">
        <ele>1929.5</ele>
        <time>2017-07-09T08:45:22Z</time>
      </trkpt>
      <trkpt lat="44.80845" lon="6.95663">
        <ele>1924.7</ele>
        <time>2017-07-09T08:45:23Z</time>
      </trkpt>
      <trkpt lat="44.80845" lon="6.95663">
        <ele>1929.02</ele>
        <time>2017-07-09T08:45:24Z</time>
      </trkpt>
      <trkpt lat="44.80845" lon="6.95663">
        <ele>1927.58</ele>
        <time>2017-07-09T08:45:25Z</time>
      </trkpt>
      <trkpt lat="44.80844" lon="6.95663">
        <ele>1927.1</ele>
        <time>2017-07-09T08:45:39Z</time>
      </trkpt>
      <trkpt lat="44.80844" lon="6.95663">
        <ele>1927.1</ele>
        <time>2017-07-09T08:45:58Z</time>
      </trkpt>
      <trkpt lat="44.80843" lon="6.95662">
        <ele>1927.58</ele>
        <time>2017-07-09T08:46:22Z</time>
      </trkpt>
      <trkpt lat="44.80842" lon="6.95662">
        <ele>1928.06</ele>
        <time>2017-07-09T08:46:41Z</time>
      </trkpt>
      <trkpt lat="44.80843" lon="6.95662">
        <ele>1927.58</ele>
        <time>2017-07-09T08:46:46Z</time>
      </trkpt>
      <trkpt lat="44.80847" lon="6.95658">
        <ele>1927.58</ele>
        <time>2017-07-09T08:46:58Z</time>
      </trkpt>
      <trkpt lat="44.80847" lon="6.95656">
        <ele>1927.58</ele>
        <time>2017-07-09T08:47:17Z</time>
      </trkpt>
      <trkpt lat="44.80849" lon="6.95655">
        <ele>1928.06</ele>
        <time>2017-07-09T08:47:44Z</time>
      </trkpt>
      <trkpt lat="44.80849" lon="6.95657">
        <ele>1928.54</ele>
        <time>2017-07-09T08:48:05Z</time>
      </trkpt>
      <trkpt lat="44.80851" lon="6.9566">
        <ele>1929.02</ele>
        <time>2017-07-09T08:48:13Z</time>
      </trkpt>
      <trkpt lat="44.80849" lon="6.95664">
        <ele>1929.02</ele>
        <time>2017-07-09T08:48:17Z</time>
      </trkpt>
      <trkpt lat="44.80843" lon="6.95668">
        <ele>1929.02</ele>
        <time>2017-07-09T08:48:23Z</time>
      </trkpt>
      <trkpt lat="44.80837" lon="6.95665">
        <ele>1929.98</ele>
        <time>2017-07-09T08:48:36Z</time>
      </trkpt>
      <trkpt lat="44.80836" lon="6.95664">
        <ele>1929.98</ele>
        <time>2017-07-09T08:48:52Z</time>
      </trkpt>
      <trkpt lat="44.80836" lon="6.95663">
        <ele>1929.98</ele>
        <time>2017-07-09T08:49:11Z</time>
      </trkpt>
      <trkpt lat="44.80834" lon="6.95664">
        <ele>1930.46</ele>
        <time>2017-07-09T08:49:13Z</time>
      </trkpt>
      <trkpt lat="44.8083" lon="6.95669">
        <ele>1931.91</ele>
        <time>2017-07-09T08:49:20Z</time>
      </trkpt>
      <trkpt lat="44.80827" lon="6.95672">
        <ele>1932.39</ele>
        <time>2017-07-09T08:49:24Z</time>
      </trkpt>
      <trkpt lat="44.80823" lon="6.95676">
        <ele>1933.35</ele>
        <time>2017-07-09T08:49:30Z</time>
      </trkpt>
      <trkpt lat="44.80823" lon="6.95683">
        <ele>1935.27</ele>
        <time>2017-07-09T08:49:39Z</time>
      </trkpt>
      <trkpt lat="44.80824" lon="6.95688">
        <ele>1937.67</ele>
        <time>2017-07-09T08:49:50Z</time>
      </trkpt>
      <trkpt lat="44.80825" lon="6.95691">
        <ele>1939.6</ele>
        <time>2017-07-09T08:50:01Z</time>
      </trkpt>
      <trkpt lat="44.80829" lon="6.95701">
        <ele>1942</ele>
        <time>2017-07-09T08:50:12Z</time>
      </trkpt>
      <trkpt lat="44.80827" lon="6.95714">
        <ele>1943.44</ele>
        <time>2017-07-09T08:50:23Z</time>
      </trkpt>
      <trkpt lat="44.80828" lon="6.95717">
        <ele>1944.4</ele>
        <time>2017-07-09T08:50:26Z</time>
      </trkpt>
      <trkpt lat="44.80829" lon="6.95729">
        <ele>1946.81</ele>
        <time>2017-07-09T08:50:39Z</time>
      </trkpt>
      <trkpt lat="44.80824" lon="6.95736">
        <ele>1949.21</ele>
        <time>2017-07-09T08:50:50Z</time>
      </trkpt>
      <trkpt lat="44.80817" lon="6.95744">
        <ele>1950.65</ele>
        <time>2017-07-09T08:50:59Z</time>
      </trkpt>
      <trkpt lat="44.80814" lon="6.95751">
        <ele>1952.57</ele>
        <time>2017-07-09T08:51:09Z</time>
      </trkpt>
      <trkpt lat="44.8081" lon="6.9576">
        <ele>1954.98</ele>
        <time>2017-07-09T08:51:20Z</time>
      </trkpt>
      <trkpt lat="44.8081" lon="6.9576">
        <ele>1954.98</ele>
        <time>2017-07-09T08:51:21Z</time>
      </trkpt>
      <trkpt lat="44.80806" lon="6.95773">
        <ele>1956.9</ele>
        <time>2017-07-09T08:51:32Z</time>
      </trkpt>
      <trkpt lat="44.80804" lon="6.95783">
        <ele>1958.82</ele>
        <time>2017-07-09T08:51:43Z</time>
      </trkpt>
      <trkpt lat="44.80801" lon="6.95797">
        <ele>1960.27</ele>
        <time>2017-07-09T08:51:54Z</time>
      </trkpt>
      <trkpt lat="44.808" lon="6.95801">
        <ele>1960.75</ele>
        <time>2017-07-09T08:52:01Z</time>
      </trkpt>
      <trkpt lat="44.80795" lon="6.95814">
        <ele>1962.19</ele>
        <time>2017-07-09T08:52:11Z</time>
      </trkpt>
      <trkpt lat="44.80794" lon="6.95821">
        <ele>1964.11</ele>
        <time>2017-07-09T08:52:21Z</time>
      </trkpt>
      <trkpt lat="44.80793" lon="6.95827">
        <ele>1964.59</ele>
        <time>2017-07-09T08:52:26Z</time>
      </trkpt>
      <trkpt lat="44.80793" lon="6.95832">
        <ele>1965.55</ele>
        <time>2017-07-09T08:52:31Z</time>
      </trkpt>
      <trkpt lat="44.80791" lon="6.9584">
        <ele>1966.51</ele>
        <time>2017-07-09T08:52:36Z</time>
      </trkpt>
      <trkpt lat="44.80792" lon="6.95847">
        <ele>1966.99</ele>
        <time>2017-07-09T08:52:41Z</time>
      </trkpt>
      <trkpt lat="44.8079" lon="6.95853">
        <ele>1967.96</ele>
        <time>2017-07-09T08:52:47Z</time>
      </trkpt>
      <trkpt lat="44.8079" lon="6.95865">
        <ele>1969.4</ele>
        <time>2017-07-09T08:52:56Z</time>
      </trkpt>
      <trkpt lat="44.80789" lon="6.95871">
        <ele>1969.88</ele>
        <time>2017-07-09T08:53:01Z</time>
      </trkpt>
      <trkpt lat="44.80787" lon="6.95885">
        <ele>1972.28</ele>
        <time>2017-07-09T08:53:14Z</time>
      </trkpt>
      <trkpt lat="44.80786" lon="6.95888">
        <ele>1972.76</ele>
        <time>2017-07-09T08:53:17Z</time>
      </trkpt>
      <trkpt lat="44.80784" lon="6.95896">
        <ele>1974.2</ele>
        <time>2017-07-09T08:53:26Z</time>
      </trkpt>
      <trkpt lat="44.80781" lon="6.95907">
        <ele>1975.17</ele>
        <time>2017-07-09T08:53:33Z</time>
      </trkpt>
      <trkpt lat="44.80781" lon="6.95918">
        <ele>1976.13</ele>
        <time>2017-07-09T08:53:41Z</time>
      </trkpt>
      <trkpt lat="44.80779" lon="6.95928">
        <ele>1976.13</ele>
        <time>2017-07-09T08:53:47Z</time>
      </trkpt>
      <trkpt lat="44.80777" lon="6.95934">
        <ele>1976.13</ele>
        <time>2017-07-09T08:53:51Z</time>
      </trkpt>
      <trkpt lat="44.80772" lon="6.95952">
        <ele>1976.13</ele>
        <time>2017-07-09T08:54:01Z</time>
      </trkpt>
      <trkpt lat="44.8077" lon="6.95957">
        <ele>1976.13</ele>
        <time>2017-07-09T08:54:04Z</time>
      </trkpt>
      <trkpt lat="44.80763" lon="6.95969">
        <ele>1977.09</ele>
        <time>2017-07-09T08:54:12Z</time>
      </trkpt>
      <trkpt lat="44.80761" lon="6.95975">
        <ele>1978.53</ele>
        <time>2017-07-09T08:54:19Z</time>
      </trkpt>
      <trkpt lat="44.80759" lon="6.95982">
        <ele>1979.01</ele>
        <time>2017-07-09T08:54:25Z</time>
      </trkpt>
      <trkpt lat="44.80754" lon="6.95995">
        <ele>1979.97</ele>
        <time>2017-07-09T08:54:35Z</time>
      </trkpt>
      <trkpt lat="44.80751" lon="6.96004">
        <ele>1981.9</ele>
        <time>2017-07-09T08:54:45Z</time>
      </trkpt>
      <trkpt lat="44.80751" lon="6.96005">
        <ele>1982.38</ele>
        <time>2017-07-09T08:54:46Z</time>
      </trkpt>
      <trkpt lat="44.80749" lon="6.96008">
        <ele>1982.38</ele>
        <time>2017-07-09T08:54:48Z</time>
      </trkpt>
      <trkpt lat="44.80738" lon="6.96022">
        <ele>1984.3</ele>
        <time>2017-07-09T08:55:00Z</time>
      </trkpt>
      <trkpt lat="44.80735" lon="6.96025">
        <ele>1984.3</ele>
        <time>2017-07-09T08:55:02Z</time>
      </trkpt>
      <trkpt lat="44.80732" lon="6.9603">
        <ele>1985.26</ele>
        <time>2017-07-09T08:55:08Z</time>
      </trkpt>
      <trkpt lat="44.80729" lon="6.96033">
        <ele>1985.26</ele>
        <time>2017-07-09T08:55:10Z</time>
      </trkpt>
      <trkpt lat="44.80722" lon="6.96042">
        <ele>1985.74</ele>
        <time>2017-07-09T08:55:15Z</time>
      </trkpt>
      <trkpt lat="44.80719" lon="6.96047">
        <ele>1985.74</ele>
        <time>2017-07-09T08:55:21Z</time>
      </trkpt>
      <trkpt lat="44.8071" lon="6.96063">
        <ele>1987.18</ele>
        <time>2017-07-09T08:55:32Z</time>
      </trkpt>
      <trkpt lat="44.80706" lon="6.96068">
        <ele>1987.18</ele>
        <time>2017-07-09T08:55:37Z</time>
      </trkpt>
      <trkpt lat="44.80694" lon="6.9608">
        <ele>1987.66</ele>
        <time>2017-07-09T08:55:49Z</time>
      </trkpt>
      <trkpt lat="44.80693" lon="6.96082">
        <ele>1987.66</ele>
        <time>2017-07-09T08:55:51Z</time>
      </trkpt>
      <trkpt lat="44.80688" lon="6.96087">
        <ele>1987.66</ele>
        <time>2017-07-09T08:55:56Z</time>
      </trkpt>
      <trkpt lat="44.80681" lon="6.96096">
        <ele>1987.66</ele>
        <time>2017-07-09T08:56:05Z</time>
      </trkpt>
      <trkpt lat="44.80678" lon="6.96117">
        <ele>1986.7</ele>
        <time>2017-07-09T08:56:18Z</time>
      </trkpt>
      <trkpt lat="44.80678" lon="6.96118">
        <ele>1986.7</ele>
        <time>2017-07-09T08:56:20Z</time>
      </trkpt>
      <trkpt lat="44.80677" lon="6.96124">
        <ele>1986.7</ele>
        <time>2017-07-09T08:56:24Z</time>
      </trkpt>
      <trkpt lat="44.80679" lon="6.96136">
        <ele>1986.7</ele>
        <time>2017-07-09T08:56:34Z</time>
      </trkpt>
      <trkpt lat="44.80681" lon="6.96146">
        <ele>1987.66</ele>
        <time>2017-07-09T08:56:41Z</time>
      </trkpt>
      <trkpt lat="44.80681" lon="6.96151">
        <ele>1989.1</ele>
        <time>2017-07-09T08:56:47Z</time>
      </trkpt>
      <trkpt lat="44.80683" lon="6.96167">
        <ele>1991.51</ele>
        <time>2017-07-09T08:57:01Z</time>
      </trkpt>
      <trkpt lat="44.80684" lon="6.96172">
        <ele>1991.99</ele>
        <time>2017-07-09T08:57:05Z</time>
      </trkpt>
      <trkpt lat="44.80688" lon="6.96187">
        <ele>1992.95</ele>
        <time>2017-07-09T08:57:13Z</time>
      </trkpt>
      <trkpt lat="44.80688" lon="6.96205">
        <ele>1992.95</ele>
        <time>2017-07-09T08:57:22Z</time>
      </trkpt>
      <trkpt lat="44.80689" lon="6.96225">
        <ele>1993.43</ele>
        <time>2017-07-09T08:57:34Z</time>
      </trkpt>
      <trkpt lat="44.80688" lon="6.96232">
        <ele>1993.43</ele>
        <time>2017-07-09T08:57:37Z</time>
      </trkpt>
      <trkpt lat="44.80686" lon="6.96246">
        <ele>1991.99</ele>
        <time>2017-07-09T08:57:47Z</time>
      </trkpt>
      <trkpt lat="44.80685" lon="6.96263">
        <ele>1989.59</ele>
        <time>2017-07-09T08:57:58Z</time>
      </trkpt>
      <trkpt lat="44.80683" lon="6.96266">
        <ele>1989.59</ele>
        <time>2017-07-09T08:58:00Z</time>
      </trkpt>
      <trkpt lat="44.80679" lon="6.96277">
        <ele>1988.62</ele>
        <time>2017-07-09T08:58:07Z</time>
      </trkpt>
      <trkpt lat="44.8067" lon="6.96286">
        <ele>1988.14</ele>
        <time>2017-07-09T08:58:14Z</time>
      </trkpt>
      <trkpt lat="44.80666" lon="6.9629">
        <ele>1988.14</ele>
        <time>2017-07-09T08:58:18Z</time>
      </trkpt>
      <trkpt lat="44.80657" lon="6.96299">
        <ele>1988.62</ele>
        <time>2017-07-09T08:58:25Z</time>
      </trkpt>
      <trkpt lat="44.80649" lon="6.96316">
        <ele>1987.18</ele>
        <time>2017-07-09T08:58:38Z</time>
      </trkpt>
      <trkpt lat="44.80649" lon="6.96317">
        <ele>1988.14</ele>
        <time>2017-07-09T08:58:39Z</time>
      </trkpt>
      <trkpt lat="44.80645" lon="6.96324">
        <ele>1987.66</ele>
        <time>2017-07-09T08:58:46Z</time>
      </trkpt>
      <trkpt lat="44.80641" lon="6.96335">
        <ele>1987.66</ele>
        <time>2017-07-09T08:58:54Z</time>
      </trkpt>
      <trkpt lat="44.80637" lon="6.96347">
        <ele>1988.62</ele>
        <time>2017-07-09T08:59:05Z</time>
      </trkpt>
      <trkpt lat="44.80634" lon="6.96357">
        <ele>1991.03</ele>
        <time>2017-07-09T08:59:16Z</time>
      </trkpt>
      <trkpt lat="44.80634" lon="6.96359">
        <ele>1991.51</ele>
        <time>2017-07-09T08:59:20Z</time>
      </trkpt>
      <trkpt lat="44.80629" lon="6.96367">
        <ele>1993.91</ele>
        <time>2017-07-09T08:59:32Z</time>
      </trkpt>
      <trkpt lat="44.80626" lon="6.96371">
        <ele>1995.35</ele>
        <time>2017-07-09T08:59:38Z</time>
      </trkpt>
      <trkpt lat="44.80625" lon="6.96373">
        <ele>1996.32</ele>
        <time>2017-07-09T08:59:42Z</time>
      </trkpt>
      <trkpt lat="44.80621" lon="6.9638">
        <ele>1998.24</ele>
        <time>2017-07-09T08:59:52Z</time>
      </trkpt>
      <trkpt lat="44.80621" lon="6.9638">
        <ele>1998.72</ele>
        <time>2017-07-09T08:59:53Z</time>
      </trkpt>
      <trkpt lat="44.80618" lon="6.96391">
        <ele>2000.64</ele>
        <time>2017-07-09T09:00:04Z</time>
      </trkpt>
      <trkpt lat="44.80617" lon="6.96396">
        <ele>2001.6</ele>
        <time>2017-07-09T09:00:08Z</time>
      </trkpt>
      <trkpt lat="44.80619" lon="6.96417">
        <ele>2001.6</ele>
        <time>2017-07-09T09:00:21Z</time>
      </trkpt>
      <trkpt lat="44.80619" lon="6.96419">
        <ele>2001.6</ele>
        <time>2017-07-09T09:00:22Z</time>
      </trkpt>
      <trkpt lat="44.80621" lon="6.96438">
        <ele>2001.6</ele>
        <time>2017-07-09T09:00:34Z</time>
      </trkpt>
      <trkpt lat="44.80621" lon="6.96438">
        <ele>2001.6</ele>
        <time>2017-07-09T09:00:36Z</time>
      </trkpt>
      <trkpt lat="44.80623" lon="6.9645">
        <ele>2002.56</ele>
        <time>2017-07-09T09:00:44Z</time>
      </trkpt>
      <trkpt lat="44.80624" lon="6.96454">
        <ele>2003.04</ele>
        <time>2017-07-09T09:00:46Z</time>
      </trkpt>
      <trkpt lat="44.80625" lon="6.96468">
        <ele>2004.97</ele>
        <time>2017-07-09T09:00:57Z</time>
      </trkpt>
      <trkpt lat="44.80626" lon="6.96475">
        <ele>2005.45</ele>
        <time>2017-07-09T09:01:02Z</time>
      </trkpt>
      <trkpt lat="44.80634" lon="6.96497">
        <ele>2006.41</ele>
        <time>2017-07-09T09:01:15Z</time>
      </trkpt>
      <trkpt lat="44.80636" lon="6.96502">
        <ele>2006.89</ele>
        <time>2017-07-09T09:01:20Z</time>
      </trkpt>
      <trkpt lat="44.8064" lon="6.96519">
        <ele>2007.37</ele>
        <time>2017-07-09T09:01:29Z</time>
      </trkpt>
      <trkpt lat="44.80639" lon="6.9653">
        <ele>2008.33</ele>
        <time>2017-07-09T09:01:36Z</time>
      </trkpt>
      <trkpt lat="44.80638" lon="6.96537">
        <ele>2009.29</ele>
        <time>2017-07-09T09:01:42Z</time>
      </trkpt>
      <trkpt lat="44.80637" lon="6.9654">
        <ele>2009.29</ele>
        <time>2017-07-09T09:01:44Z</time>
      </trkpt>
      <trkpt lat="44.80637" lon="6.96549">
        <ele>2009.29</ele>
        <time>2017-07-09T09:01:48Z</time>
      </trkpt>
      <trkpt lat="44.80632" lon="6.96566">
        <ele>2008.81</ele>
        <time>2017-07-09T09:01:58Z</time>
      </trkpt>
      <trkpt lat="44.80622" lon="6.9658">
        <ele>2008.33</ele>
        <time>2017-07-09T09:02:07Z</time>
      </trkpt>
      <trkpt lat="44.80605" lon="6.96593">
        <ele>2008.33</ele>
        <time>2017-07-09T09:02:21Z</time>
      </trkpt>
      <trkpt lat="44.80604" lon="6.96595">
        <ele>2008.33</ele>
        <time>2017-07-09T09:02:23Z</time>
      </trkpt>
      <trkpt lat="44.80594" lon="6.96597">
        <ele>2008.81</ele>
        <time>2017-07-09T09:02:30Z</time>
      </trkpt>
      <trkpt lat="44.80586" lon="6.96601">
        <ele>2008.33</ele>
        <time>2017-07-09T09:02:37Z</time>
      </trkpt>
      <trkpt lat="44.80579" lon="6.96611">
        <ele>2007.85</ele>
        <time>2017-07-09T09:02:47Z</time>
      </trkpt>
      <trkpt lat="44.80577" lon="6.96608">
        <ele>2007.37</ele>
        <time>2017-07-09T09:02:58Z</time>
      </trkpt>
      <trkpt lat="44.80579" lon="6.96608">
        <ele>2007.85</ele>
        <time>2017-07-09T09:03:01Z</time>
      </trkpt>
      <trkpt lat="44.80579" lon="6.96609">
        <ele>2008.33</ele>
        <time>2017-07-09T09:03:06Z</time>
      </trkpt>
      <trkpt lat="44.80585" lon="6.96619">
        <ele>2010.25</ele>
        <time>2017-07-09T09:03:17Z</time>
      </trkpt>
      <trkpt lat="44.80586" lon="6.9662">
        <ele>2010.25</ele>
        <time>2017-07-09T09:03:18Z</time>
      </trkpt>
      <trkpt lat="44.80588" lon="6.9663">
        <ele>2012.66</ele>
        <time>2017-07-09T09:03:28Z</time>
      </trkpt>
      <trkpt lat="44.80589" lon="6.9664">
        <ele>2014.58</ele>
        <time>2017-07-09T09:03:39Z</time>
      </trkpt>
      <trkpt lat="44.80591" lon="6.96647">
        <ele>2016.5</ele>
        <time>2017-07-09T09:03:49Z</time>
      </trkpt>
      <trkpt lat="44.80591" lon="6.9666">
        <ele>2019.39</ele>
        <time>2017-07-09T09:04:01Z</time>
      </trkpt>
      <trkpt lat="44.80594" lon="6.96671">
        <ele>2020.83</ele>
        <time>2017-07-09T09:04:09Z</time>
      </trkpt>
      <trkpt lat="44.80592" lon="6.96693">
        <ele>2022.27</ele>
        <time>2017-07-09T09:04:22Z</time>
      </trkpt>
      <trkpt lat="44.80591" lon="6.96707">
        <ele>2025.64</ele>
        <time>2017-07-09T09:04:31Z</time>
      </trkpt>
      <trkpt lat="44.80591" lon="6.96708">
        <ele>2022.27</ele>
        <time>2017-07-09T09:04:32Z</time>
      </trkpt>
      <trkpt lat="44.8059" lon="6.96712">
        <ele>2025.64</ele>
        <time>2017-07-09T09:04:37Z</time>
      </trkpt>
      <trkpt lat="44.80586" lon="6.96726">
        <ele>2026.12</ele>
        <time>2017-07-09T09:04:51Z</time>
      </trkpt>
      <trkpt lat="44.80578" lon="6.96736">
        <ele>2027.56</ele>
        <time>2017-07-09T09:05:03Z</time>
      </trkpt>
      <trkpt lat="44.80573" lon="6.9675">
        <ele>2029</ele>
        <time>2017-07-09T09:05:13Z</time>
      </trkpt>
      <trkpt lat="44.80573" lon="6.96754">
        <ele>2029</ele>
        <time>2017-07-09T09:05:15Z</time>
      </trkpt>
      <trkpt lat="44.80566" lon="6.96765">
        <ele>2030.92</ele>
        <time>2017-07-09T09:05:29Z</time>
      </trkpt>
      <trkpt lat="44.80557" lon="6.96775">
        <ele>2032.84</ele>
        <time>2017-07-09T09:05:44Z</time>
      </trkpt>
      <trkpt lat="44.8055" lon="6.96781">
        <ele>2034.77</ele>
        <time>2017-07-09T09:05:57Z</time>
      </trkpt>
      <trkpt lat="44.80544" lon="6.96783">
        <ele>2036.21</ele>
        <time>2017-07-09T09:06:09Z</time>
      </trkpt>
      <trkpt lat="44.80539" lon="6.96787">
        <ele>2037.65</ele>
        <time>2017-07-09T09:06:23Z</time>
      </trkpt>
      <trkpt lat="44.80532" lon="6.96793">
        <ele>2039.57</ele>
        <time>2017-07-09T09:06:37Z</time>
      </trkpt>
      <trkpt lat="44.80529" lon="6.96793">
        <ele>2041.5</ele>
        <time>2017-07-09T09:06:47Z</time>
      </trkpt>
      <trkpt lat="44.80521" lon="6.96797">
        <ele>2042.46</ele>
        <time>2017-07-09T09:06:59Z</time>
      </trkpt>
      <trkpt lat="44.80516" lon="6.96801">
        <ele>2043.9</ele>
        <time>2017-07-09T09:07:05Z</time>
      </trkpt>
      <trkpt lat="44.8051" lon="6.96802">
        <ele>2045.34</ele>
        <time>2017-07-09T09:07:17Z</time>
      </trkpt>
      <trkpt lat="44.80507" lon="6.96802">
        <ele>2045.82</ele>
        <time>2017-07-09T09:07:20Z</time>
      </trkpt>
      <trkpt lat="44.80501" lon="6.96809">
        <ele>2048.71</ele>
        <time>2017-07-09T09:07:33Z</time>
      </trkpt>
      <trkpt lat="44.80498" lon="6.96811">
        <ele>2049.67</ele>
        <time>2017-07-09T09:07:40Z</time>
      </trkpt>
      <trkpt lat="44.80494" lon="6.9681">
        <ele>2050.63</ele>
        <time>2017-07-09T09:07:44Z</time>
      </trkpt>
      <trkpt lat="44.80485" lon="6.96812">
        <ele>2052.55</ele>
        <time>2017-07-09T09:07:56Z</time>
      </trkpt>
      <trkpt lat="44.80478" lon="6.96812">
        <ele>2054.47</ele>
        <time>2017-07-09T09:08:06Z</time>
      </trkpt>
      <trkpt lat="44.80476" lon="6.96812">
        <ele>2054.47</ele>
        <time>2017-07-09T09:08:08Z</time>
      </trkpt>
      <trkpt lat="44.80472" lon="6.96811">
        <ele>2056.4</ele>
        <time>2017-07-09T09:08:19Z</time>
      </trkpt>
      <trkpt lat="44.80463" lon="6.96811">
        <ele>2058.32</ele>
        <time>2017-07-09T09:08:32Z</time>
      </trkpt>
      <trkpt lat="44.80458" lon="6.9681">
        <ele>2060.24</ele>
        <time>2017-07-09T09:08:41Z</time>
      </trkpt>
      <trkpt lat="44.80455" lon="6.96809">
        <ele>2060.72</ele>
        <time>2017-07-09T09:08:44Z</time>
      </trkpt>
      <trkpt lat="44.8045" lon="6.96806">
        <ele>2062.65</ele>
        <time>2017-07-09T09:08:55Z</time>
      </trkpt>
      <trkpt lat="44.80449" lon="6.96807">
        <ele>2063.61</ele>
        <time>2017-07-09T09:09:02Z</time>
      </trkpt>
      <trkpt lat="44.80444" lon="6.96809">
        <ele>2065.53</ele>
        <time>2017-07-09T09:09:13Z</time>
      </trkpt>
      <trkpt lat="44.80436" lon="6.9681">
        <ele>2066.97</ele>
        <time>2017-07-09T09:09:23Z</time>
      </trkpt>
      <trkpt lat="44.80434" lon="6.96813">
        <ele>2067.93</ele>
        <time>2017-07-09T09:09:37Z</time>
      </trkpt>
      <trkpt lat="44.80432" lon="6.96813">
        <ele>2068.41</ele>
        <time>2017-07-09T09:09:47Z</time>
      </trkpt>
      <trkpt lat="44.80423" lon="6.96811">
        <ele>2069.86</ele>
        <time>2017-07-09T09:09:57Z</time>
      </trkpt>
      <trkpt lat="44.80418" lon="6.96813">
        <ele>2070.82</ele>
        <time>2017-07-09T09:10:04Z</time>
      </trkpt>
      <trkpt lat="44.80416" lon="6.96815">
        <ele>2071.78</ele>
        <time>2017-07-09T09:10:08Z</time>
      </trkpt>
      <trkpt lat="44.80409" lon="6.96812">
        <ele>2073.7</ele>
        <time>2017-07-09T09:10:18Z</time>
      </trkpt>
      <trkpt lat="44.80407" lon="6.96812">
        <ele>2074.18</ele>
        <time>2017-07-09T09:10:21Z</time>
      </trkpt>
      <trkpt lat="44.80403" lon="6.96804">
        <ele>2076.1</ele>
        <time>2017-07-09T09:10:32Z</time>
      </trkpt>
      <trkpt lat="44.80396" lon="6.96793">
        <ele>2078.03</ele>
        <time>2017-07-09T09:10:44Z</time>
      </trkpt>
      <trkpt lat="44.80395" lon="6.96792">
        <ele>2078.99</ele>
        <time>2017-07-09T09:10:50Z</time>
      </trkpt>
      <trkpt lat="44.80392" lon="6.96785">
        <ele>2079.95</ele>
        <time>2017-07-09T09:10:56Z</time>
      </trkpt>
      <trkpt lat="44.80387" lon="6.96783">
        <ele>2081.87</ele>
        <time>2017-07-09T09:11:07Z</time>
      </trkpt>
      <trkpt lat="44.80386" lon="6.96781">
        <ele>2082.35</ele>
        <time>2017-07-09T09:11:10Z</time>
      </trkpt>
      <trkpt lat="44.80384" lon="6.96779">
        <ele>2083.31</ele>
        <time>2017-07-09T09:11:13Z</time>
      </trkpt>
      <trkpt lat="44.8038" lon="6.96779">
        <ele>2084.28</ele>
        <time>2017-07-09T09:11:18Z</time>
      </trkpt>
      <trkpt lat="44.80372" lon="6.96777">
        <ele>2085.72</ele>
        <time>2017-07-09T09:11:30Z</time>
      </trkpt>
      <trkpt lat="44.80371" lon="6.96777">
        <ele>2085.72</ele>
        <time>2017-07-09T09:11:31Z</time>
      </trkpt>
      <trkpt lat="44.80368" lon="6.96777">
        <ele>2086.68</ele>
        <time>2017-07-09T09:11:35Z</time>
      </trkpt>
      <trkpt lat="44.80366" lon="6.96775">
        <ele>2087.64</ele>
        <time>2017-07-09T09:11:42Z</time>
      </trkpt>
      <trkpt lat="44.80354" lon="6.96774">
        <ele>2089.08</ele>
        <time>2017-07-09T09:11:54Z</time>
      </trkpt>
      <trkpt lat="44.80348" lon="6.96771">
        <ele>2091.49</ele>
        <time>2017-07-09T09:12:04Z</time>
      </trkpt>
      <trkpt lat="44.80344" lon="6.96765">
        <ele>2092.45</ele>
        <time>2017-07-09T09:12:11Z</time>
      </trkpt>
      <trkpt lat="44.80336" lon="6.9676">
        <ele>2095.33</ele>
        <time>2017-07-09T09:12:24Z</time>
      </trkpt>
      <trkpt lat="44.80327" lon="6.96756">
        <ele>2096.29</ele>
        <time>2017-07-09T09:12:35Z</time>
      </trkpt>
      <trkpt lat="44.8032" lon="6.96755">
        <ele>2097.73</ele>
        <time>2017-07-09T09:12:45Z</time>
      </trkpt>
      <trkpt lat="44.80319" lon="6.96755">
        <ele>2098.21</ele>
        <time>2017-07-09T09:12:46Z</time>
      </trkpt>
      <trkpt lat="44.80314" lon="6.96751">
        <ele>2100.14</ele>
        <time>2017-07-09T09:12:56Z</time>
      </trkpt>
      <trkpt lat="44.80306" lon="6.96749">
        <ele>2101.58</ele>
        <time>2017-07-09T09:13:06Z</time>
      </trkpt>
      <trkpt lat="44.80306" lon="6.9675">
        <ele>2101.58</ele>
        <time>2017-07-09T09:13:23Z</time>
      </trkpt>
      <trkpt lat="44.803" lon="6.96745">
        <ele>2102.54</ele>
        <time>2017-07-09T09:13:41Z</time>
      </trkpt>
      <trkpt lat="44.80294" lon="6.96742">
        <ele>2104.46</ele>
        <time>2017-07-09T09:13:49Z</time>
      </trkpt>
      <trkpt lat="44.80291" lon="6.9674">
        <ele>2105.42</ele>
        <time>2017-07-09T09:13:53Z</time>
      </trkpt>
      <trkpt lat="44.80289" lon="6.9674">
        <ele>2105.91</ele>
        <time>2017-07-09T09:14:04Z</time>
      </trkpt>
      <trkpt lat="44.80287" lon="6.96736">
        <ele>2107.35</ele>
        <time>2017-07-09T09:14:26Z</time>
      </trkpt>
      <trkpt lat="44.80285" lon="6.96736">
        <ele>2107.35</ele>
        <time>2017-07-09T09:14:29Z</time>
      </trkpt>
      <trkpt lat="44.80283" lon="6.96736">
        <ele>2108.31</ele>
        <time>2017-07-09T09:14:32Z</time>
      </trkpt>
      <trkpt lat="44.80269" lon="6.96739">
        <ele>2110.23</ele>
        <time>2017-07-09T09:14:45Z</time>
      </trkpt>
      <trkpt lat="44.80262" lon="6.9674">
        <ele>2112.15</ele>
        <time>2017-07-09T09:14:55Z</time>
      </trkpt>
      <trkpt lat="44.80262" lon="6.96741">
        <ele>2112.63</ele>
        <time>2017-07-09T09:15:01Z</time>
      </trkpt>
      <trkpt lat="44.8026" lon="6.96741">
        <ele>2112.63</ele>
        <time>2017-07-09T09:15:04Z</time>
      </trkpt>
      <trkpt lat="44.80257" lon="6.96741">
        <ele>2113.6</ele>
        <time>2017-07-09T09:15:08Z</time>
      </trkpt>
      <trkpt lat="44.80246" lon="6.96741">
        <ele>2115.52</ele>
        <time>2017-07-09T09:15:21Z</time>
      </trkpt>
      <trkpt lat="44.80241" lon="6.96737">
        <ele>2118.4</ele>
        <time>2017-07-09T09:15:33Z</time>
      </trkpt>
      <trkpt lat="44.80242" lon="6.9673">
        <ele>2118.88</ele>
        <time>2017-07-09T09:15:38Z</time>
      </trkpt>
      <trkpt lat="44.80244" lon="6.96716">
        <ele>2121.77</ele>
        <time>2017-07-09T09:15:53Z</time>
      </trkpt>
      <trkpt lat="44.80246" lon="6.96707">
        <ele>2122.73</ele>
        <time>2017-07-09T09:16:02Z</time>
      </trkpt>
      <trkpt lat="44.8025" lon="6.96705">
        <ele>2123.21</ele>
        <time>2017-07-09T09:16:15Z</time>
      </trkpt>
      <trkpt lat="44.80251" lon="6.96708">
        <ele>2123.69</ele>
        <time>2017-07-09T09:16:30Z</time>
      </trkpt>
      <trkpt lat="44.8025" lon="6.96708">
        <ele>2123.69</ele>
        <time>2017-07-09T09:16:47Z</time>
      </trkpt>
      <trkpt lat="44.8025" lon="6.96708">
        <ele>2124.17</ele>
        <time>2017-07-09T09:17:12Z</time>
      </trkpt>
      <trkpt lat="44.8025" lon="6.96707">
        <ele>2124.17</ele>
        <time>2017-07-09T09:17:29Z</time>
      </trkpt>
      <trkpt lat="44.8025" lon="6.96707">
        <ele>2124.17</ele>
        <time>2017-07-09T09:17:31Z</time>
      </trkpt>
      <trkpt lat="44.80248" lon="6.96693">
        <ele>2125.13</ele>
        <time>2017-07-09T09:17:42Z</time>
      </trkpt>
      <trkpt lat="44.80246" lon="6.96694">
        <ele>2125.61</ele>
        <time>2017-07-09T09:17:55Z</time>
      </trkpt>
      <trkpt lat="44.80248" lon="6.96693">
        <ele>2125.61</ele>
        <time>2017-07-09T09:18:17Z</time>
      </trkpt>
      <trkpt lat="44.80247" lon="6.96689">
        <ele>2125.61</ele>
        <time>2017-07-09T09:18:25Z</time>
      </trkpt>
      <trkpt lat="44.80246" lon="6.96685">
        <ele>2125.61</ele>
        <time>2017-07-09T09:18:29Z</time>
      </trkpt>
      <trkpt lat="44.80236" lon="6.9668">
        <ele>2127.53</ele>
        <time>2017-07-09T09:18:40Z</time>
      </trkpt>
      <trkpt lat="44.80232" lon="6.9668">
        <ele>2128.02</ele>
        <time>2017-07-09T09:18:44Z</time>
      </trkpt>
      <trkpt lat="44.80226" lon="6.9668">
        <ele>2129.46</ele>
        <time>2017-07-09T09:18:57Z</time>
      </trkpt>
      <trkpt lat="44.80222" lon="6.96688">
        <ele>2131.38</ele>
        <time>2017-07-09T09:19:08Z</time>
      </trkpt>
      <trkpt lat="44.80218" lon="6.96693">
        <ele>2131.86</ele>
        <time>2017-07-09T09:19:12Z</time>
      </trkpt>
      <trkpt lat="44.80213" lon="6.96704">
        <ele>2134.26</ele>
        <time>2017-07-09T09:19:24Z</time>
      </trkpt>
      <trkpt lat="44.80213" lon="6.96704">
        <ele>2134.26</ele>
        <time>2017-07-09T09:19:25Z</time>
      </trkpt>
      <trkpt lat="44.80206" lon="6.96712">
        <ele>2135.71</ele>
        <time>2017-07-09T09:19:34Z</time>
      </trkpt>
      <trkpt lat="44.80196" lon="6.96723">
        <ele>2138.11</ele>
        <time>2017-07-09T09:19:46Z</time>
      </trkpt>
      <trkpt lat="44.80191" lon="6.96732">
        <ele>2140.51</ele>
        <time>2017-07-09T09:19:57Z</time>
      </trkpt>
      <trkpt lat="44.80183" lon="6.96738">
        <ele>2141.47</ele>
        <time>2017-07-09T09:20:07Z</time>
      </trkpt>
      <trkpt lat="44.8018" lon="6.96741">
        <ele>2142.44</ele>
        <time>2017-07-09T09:20:11Z</time>
      </trkpt>
      <trkpt lat="44.80172" lon="6.96749">
        <ele>2143.88</ele>
        <time>2017-07-09T09:20:24Z</time>
      </trkpt>
      <trkpt lat="44.80167" lon="6.96751">
        <ele>2144.84</ele>
        <time>2017-07-09T09:20:28Z</time>
      </trkpt>
      <trkpt lat="44.80158" lon="6.96745">
        <ele>2146.76</ele>
        <time>2017-07-09T09:20:37Z</time>
      </trkpt>
      <trkpt lat="44.80152" lon="6.9674">
        <ele>2147.24</ele>
        <time>2017-07-09T09:20:43Z</time>
      </trkpt>
      <trkpt lat="44.80148" lon="6.96732">
        <ele>2148.2</ele>
        <time>2017-07-09T09:20:48Z</time>
      </trkpt>
      <trkpt lat="44.80142" lon="6.96725">
        <ele>2149.16</ele>
        <time>2017-07-09T09:20:53Z</time>
      </trkpt>
      <trkpt lat="44.80138" lon="6.96721">
        <ele>2149.65</ele>
        <time>2017-07-09T09:20:57Z</time>
      </trkpt>
      <trkpt lat="44.80137" lon="6.9671">
        <ele>2151.57</ele>
        <time>2017-07-09T09:21:07Z</time>
      </trkpt>
      <trkpt lat="44.80136" lon="6.96697">
        <ele>2153.01</ele>
        <time>2017-07-09T09:21:19Z</time>
      </trkpt>
      <trkpt lat="44.80133" lon="6.9669">
        <ele>2154.93</ele>
        <time>2017-07-09T09:21:29Z</time>
      </trkpt>
      <trkpt lat="44.80132" lon="6.96687">
        <ele>2156.37</ele>
        <time>2017-07-09T09:21:35Z</time>
      </trkpt>
      <trkpt lat="44.80123" lon="6.9668">
        <ele>2158.78</ele>
        <time>2017-07-09T09:21:48Z</time>
      </trkpt>
      <trkpt lat="44.80118" lon="6.96676">
        <ele>2161.18</ele>
        <time>2017-07-09T09:21:58Z</time>
      </trkpt>
      <trkpt lat="44.80112" lon="6.96672">
        <ele>2162.62</ele>
        <time>2017-07-09T09:22:10Z</time>
      </trkpt>
      <trkpt lat="44.80111" lon="6.96671">
        <ele>2165.51</ele>
        <time>2017-07-09T09:22:23Z</time>
      </trkpt>
      <trkpt lat="44.8011" lon="6.96673">
        <ele>2166.47</ele>
        <time>2017-07-09T09:22:28Z</time>
      </trkpt>
      <trkpt lat="44.80108" lon="6.96679">
        <ele>2167.43</ele>
        <time>2017-07-09T09:22:35Z</time>
      </trkpt>
      <trkpt lat="44.80107" lon="6.96689">
        <ele>2168.87</ele>
        <time>2017-07-09T09:22:46Z</time>
      </trkpt>
      <trkpt lat="44.80104" lon="6.96701">
        <ele>2171.27</ele>
        <time>2017-07-09T09:23:00Z</time>
      </trkpt>
      <trkpt lat="44.80101" lon="6.96705">
        <ele>2172.24</ele>
        <time>2017-07-09T09:23:05Z</time>
      </trkpt>
      <trkpt lat="44.80094" lon="6.96708">
        <ele>2172.72</ele>
        <time>2017-07-09T09:23:10Z</time>
      </trkpt>
      <trkpt lat="44.80085" lon="6.96705">
        <ele>2174.64</ele>
        <time>2017-07-09T09:23:25Z</time>
      </trkpt>
      <trkpt lat="44.80079" lon="6.96704">
        <ele>2176.08</ele>
        <time>2017-07-09T09:23:34Z</time>
      </trkpt>
      <trkpt lat="44.80064" lon="6.96703">
        <ele>2177.52</ele>
        <time>2017-07-09T09:23:47Z</time>
      </trkpt>
      <trkpt lat="44.80053" lon="6.96703">
        <ele>2178.48</ele>
        <time>2017-07-09T09:23:55Z</time>
      </trkpt>
      <trkpt lat="44.80038" lon="6.967">
        <ele>2179.45</ele>
        <time>2017-07-09T09:24:10Z</time>
      </trkpt>
      <trkpt lat="44.80038" lon="6.96698">
        <ele>2181.37</ele>
        <time>2017-07-09T09:24:15Z</time>
      </trkpt>
      <trkpt lat="44.80024" lon="6.96697">
        <ele>2183.29</ele>
        <time>2017-07-09T09:24:30Z</time>
      </trkpt>
      <trkpt lat="44.80014" lon="6.96693">
        <ele>2185.21</ele>
        <time>2017-07-09T09:24:42Z</time>
      </trkpt>
      <trkpt lat="44.80004" lon="6.96691">
        <ele>2187.62</ele>
        <time>2017-07-09T09:24:55Z</time>
      </trkpt>
      <trkpt lat="44.79995" lon="6.96685">
        <ele>2189.06</ele>
        <time>2017-07-09T09:25:08Z</time>
      </trkpt>
      <trkpt lat="44.79988" lon="6.96683">
        <ele>2190.5</ele>
        <time>2017-07-09T09:25:15Z</time>
      </trkpt>
      <trkpt lat="44.79988" lon="6.96684">
        <ele>2191.46</ele>
        <time>2017-07-09T09:25:20Z</time>
      </trkpt>
      <trkpt lat="44.79994" lon="6.9669">
        <ele>2191.94</ele>
        <time>2017-07-09T09:25:27Z</time>
      </trkpt>
      <trkpt lat="44.8" lon="6.96699">
        <ele>2191.94</ele>
        <time>2017-07-09T09:25:35Z</time>
      </trkpt>
      <trkpt lat="44.80007" lon="6.96718">
        <ele>2191.94</ele>
        <time>2017-07-09T09:25:48Z</time>
      </trkpt>
      <trkpt lat="44.80008" lon="6.96721">
        <ele>2191.46</ele>
        <time>2017-07-09T09:25:50Z</time>
      </trkpt>
      <trkpt lat="44.8001" lon="6.96726">
        <ele>2191.46</ele>
        <time>2017-07-09T09:25:54Z</time>
      </trkpt>
      <trkpt lat="44.80019" lon="6.96742">
        <ele>2192.42</ele>
        <time>2017-07-09T09:26:07Z</time>
      </trkpt>
      <trkpt lat="44.8002" lon="6.96744">
        <ele>2192.42</ele>
        <time>2017-07-09T09:26:08Z</time>
      </trkpt>
      <trkpt lat="44.80021" lon="6.96749">
        <ele>2192.9</ele>
        <time>2017-07-09T09:26:13Z</time>
      </trkpt>
      <trkpt lat="44.80022" lon="6.96753">
        <ele>2192.9</ele>
        <time>2017-07-09T09:26:16Z</time>
      </trkpt>
      <trkpt lat="44.80025" lon="6.96758">
        <ele>2192.9</ele>
        <time>2017-07-09T09:26:22Z</time>
      </trkpt>
      <trkpt lat="44.80032" lon="6.96773">
        <ele>2192.9</ele>
        <time>2017-07-09T09:26:32Z</time>
      </trkpt>
      <trkpt lat="44.80034" lon="6.96778">
        <ele>2192.9</ele>
        <time>2017-07-09T09:26:35Z</time>
      </trkpt>
      <trkpt lat="44.80039" lon="6.96794">
        <ele>2193.87</ele>
        <time>2017-07-09T09:26:43Z</time>
      </trkpt>
      <trkpt lat="44.80041" lon="6.96808">
        <ele>2193.39</ele>
        <time>2017-07-09T09:26:55Z</time>
      </trkpt>
      <trkpt lat="44.8004" lon="6.96811">
        <ele>2193.87</ele>
        <time>2017-07-09T09:27:06Z</time>
      </trkpt>
      <trkpt lat="44.80039" lon="6.96816">
        <ele>2194.35</ele>
        <time>2017-07-09T09:27:09Z</time>
      </trkpt>
      <trkpt lat="44.80038" lon="6.96823">
        <ele>2193.87</ele>
        <time>2017-07-09T09:27:15Z</time>
      </trkpt>
      <trkpt lat="44.80035" lon="6.96834">
        <ele>2194.35</ele>
        <time>2017-07-09T09:27:22Z</time>
      </trkpt>
      <trkpt lat="44.80036" lon="6.96842">
        <ele>2193.87</ele>
        <time>2017-07-09T09:27:27Z</time>
      </trkpt>
      <trkpt lat="44.80035" lon="6.96852">
        <ele>2194.35</ele>
        <time>2017-07-09T09:27:39Z</time>
      </trkpt>
      <trkpt lat="44.80036" lon="6.96854">
        <ele>2194.35</ele>
        <time>2017-07-09T09:27:52Z</time>
      </trkpt>
      <trkpt lat="44.80037" lon="6.96868">
        <ele>2194.35</ele>
        <time>2017-07-09T09:28:06Z</time>
      </trkpt>
      <trkpt lat="44.80037" lon="6.96871">
        <ele>2194.35</ele>
        <time>2017-07-09T09:28:10Z</time>
      </trkpt>
      <trkpt lat="44.80039" lon="6.96878">
        <ele>2194.35</ele>
        <time>2017-07-09T09:28:16Z</time>
      </trkpt>
      <trkpt lat="44.80038" lon="6.9689">
        <ele>2194.83</ele>
        <time>2017-07-09T09:28:21Z</time>
      </trkpt>
      <trkpt lat="44.80039" lon="6.969">
        <ele>2195.79</ele>
        <time>2017-07-09T09:28:28Z</time>
      </trkpt>
      <trkpt lat="44.8004" lon="6.96905">
        <ele>2196.27</ele>
        <time>2017-07-09T09:28:32Z</time>
      </trkpt>
      <trkpt lat="44.80038" lon="6.96918">
        <ele>2196.27</ele>
        <time>2017-07-09T09:28:40Z</time>
      </trkpt>
      <trkpt lat="44.80039" lon="6.96931">
        <ele>2196.75</ele>
        <time>2017-07-09T09:28:47Z</time>
      </trkpt>
      <trkpt lat="44.80039" lon="6.96937">
        <ele>2198.19</ele>
        <time>2017-07-09T09:28:52Z</time>
      </trkpt>
      <trkpt lat="44.80039" lon="6.96941">
        <ele>2198.19</ele>
        <time>2017-07-09T09:28:54Z</time>
      </trkpt>
      <trkpt lat="44.80038" lon="6.96945">
        <ele>2198.19</ele>
        <time>2017-07-09T09:28:57Z</time>
      </trkpt>
      <trkpt lat="44.80035" lon="6.96959">
        <ele>2198.67</ele>
        <time>2017-07-09T09:29:05Z</time>
      </trkpt>
      <trkpt lat="44.80034" lon="6.96961">
        <ele>2198.19</ele>
        <time>2017-07-09T09:29:06Z</time>
      </trkpt>
      <trkpt lat="44.8003" lon="6.96976">
        <ele>2199.63</ele>
        <time>2017-07-09T09:29:18Z</time>
      </trkpt>
      <trkpt lat="44.80029" lon="6.96981">
        <ele>2199.63</ele>
        <time>2017-07-09T09:29:21Z</time>
      </trkpt>
      <trkpt lat="44.80027" lon="6.9699">
        <ele>2200.59</ele>
        <time>2017-07-09T09:29:28Z</time>
      </trkpt>
      <trkpt lat="44.80021" lon="6.97006">
        <ele>2201.08</ele>
        <time>2017-07-09T09:29:39Z</time>
      </trkpt>
      <trkpt lat="44.8001" lon="6.97017">
        <ele>2201.56</ele>
        <time>2017-07-09T09:29:51Z</time>
      </trkpt>
      <trkpt lat="44.80009" lon="6.97017">
        <ele>2201.56</ele>
        <time>2017-07-09T09:29:55Z</time>
      </trkpt>
      <trkpt lat="44.80003" lon="6.97021">
        <ele>2200.59</ele>
        <time>2017-07-09T09:30:00Z</time>
      </trkpt>
      <trkpt lat="44.79996" lon="6.97028">
        <ele>2202.04</ele>
        <time>2017-07-09T09:30:08Z</time>
      </trkpt>
      <trkpt lat="44.79993" lon="6.97031">
        <ele>2203</ele>
        <time>2017-07-09T09:30:15Z</time>
      </trkpt>
      <trkpt lat="44.79987" lon="6.97037">
        <ele>2203.48</ele>
        <time>2017-07-09T09:30:21Z</time>
      </trkpt>
      <trkpt lat="44.79982" lon="6.97038">
        <ele>2203</ele>
        <time>2017-07-09T09:30:25Z</time>
      </trkpt>
      <trkpt lat="44.79976" lon="6.97045">
        <ele>2203.48</ele>
        <time>2017-07-09T09:30:33Z</time>
      </trkpt>
      <trkpt lat="44.7997" lon="6.9705">
        <ele>2203.96</ele>
        <time>2017-07-09T09:30:43Z</time>
      </trkpt>
      <trkpt lat="44.79968" lon="6.97054">
        <ele>2204.44</ele>
        <time>2017-07-09T09:30:48Z</time>
      </trkpt>
      <trkpt lat="44.79964" lon="6.97061">
        <ele>2204.92</ele>
        <time>2017-07-09T09:30:54Z</time>
      </trkpt>
      <trkpt lat="44.79961" lon="6.97064">
        <ele>2205.88</ele>
        <time>2017-07-09T09:30:57Z</time>
      </trkpt>
      <trkpt lat="44.79959" lon="6.97069">
        <ele>2205.4</ele>
        <time>2017-07-09T09:31:01Z</time>
      </trkpt>
      <trkpt lat="44.79954" lon="6.97078">
        <ele>2205.88</ele>
        <time>2017-07-09T09:31:08Z</time>
      </trkpt>
      <trkpt lat="44.79949" lon="6.97083">
        <ele>2206.84</ele>
        <time>2017-07-09T09:31:13Z</time>
      </trkpt>
      <trkpt lat="44.79947" lon="6.97084">
        <ele>2206.84</ele>
        <time>2017-07-09T09:31:16Z</time>
      </trkpt>
      <trkpt lat="44.79945" lon="6.9709">
        <ele>2207.81</ele>
        <time>2017-07-09T09:31:22Z</time>
      </trkpt>
      <trkpt lat="44.79943" lon="6.97093">
        <ele>2207.81</ele>
        <time>2017-07-09T09:31:24Z</time>
      </trkpt>
      <trkpt lat="44.79936" lon="6.97095">
        <ele>2207.32</ele>
        <time>2017-07-09T09:31:30Z</time>
      </trkpt>
      <trkpt lat="44.79934" lon="6.97098">
        <ele>2207.32</ele>
        <time>2017-07-09T09:31:34Z</time>
      </trkpt>
      <trkpt lat="44.79932" lon="6.971">
        <ele>2206.84</ele>
        <time>2017-07-09T09:31:37Z</time>
      </trkpt>
      <trkpt lat="44.79928" lon="6.97105">
        <ele>2208.29</ele>
        <time>2017-07-09T09:31:41Z</time>
      </trkpt>
      <trkpt lat="44.79921" lon="6.97114">
        <ele>2208.77</ele>
        <time>2017-07-09T09:31:49Z</time>
      </trkpt>
      <trkpt lat="44.79915" lon="6.97122">
        <ele>2208.77</ele>
        <time>2017-07-09T09:31:55Z</time>
      </trkpt>
      <trkpt lat="44.79907" lon="6.97121">
        <ele>2209.25</ele>
        <time>2017-07-09T09:32:01Z</time>
      </trkpt>
      <trkpt lat="44.79903" lon="6.97126">
        <ele>2211.17</ele>
        <time>2017-07-09T09:32:07Z</time>
      </trkpt>
      <trkpt lat="44.79898" lon="6.97126">
        <ele>2212.13</ele>
        <time>2017-07-09T09:32:11Z</time>
      </trkpt>
      <trkpt lat="44.79893" lon="6.97128">
        <ele>2213.09</ele>
        <time>2017-07-09T09:32:17Z</time>
      </trkpt>
      <trkpt lat="44.79892" lon="6.97129">
        <ele>2214.05</ele>
        <time>2017-07-09T09:32:20Z</time>
      </trkpt>
      <trkpt lat="44.7989" lon="6.97131">
        <ele>2215.5</ele>
        <time>2017-07-09T09:32:32Z</time>
      </trkpt>
      <trkpt lat="44.79885" lon="6.97135">
        <ele>2218.38</ele>
        <time>2017-07-09T09:32:42Z</time>
      </trkpt>
      <trkpt lat="44.79882" lon="6.97137">
        <ele>2218.86</ele>
        <time>2017-07-09T09:32:48Z</time>
      </trkpt>
      <trkpt lat="44.79876" lon="6.97142">
        <ele>2220.3</ele>
        <time>2017-07-09T09:33:00Z</time>
      </trkpt>
      <trkpt lat="44.79871" lon="6.97148">
        <ele>2222.71</ele>
        <time>2017-07-09T09:33:11Z</time>
      </trkpt>
      <trkpt lat="44.79871" lon="6.97153">
        <ele>2222.71</ele>
        <time>2017-07-09T09:33:14Z</time>
      </trkpt>
      <trkpt lat="44.79867" lon="6.97154">
        <ele>2223.19</ele>
        <time>2017-07-09T09:33:26Z</time>
      </trkpt>
      <trkpt lat="44.79867" lon="6.97154">
        <ele>2223.19</ele>
        <time>2017-07-09T09:33:38Z</time>
      </trkpt>
      <trkpt lat="44.79865" lon="6.97162">
        <ele>2222.71</ele>
        <time>2017-07-09T09:33:49Z</time>
      </trkpt>
      <trkpt lat="44.79865" lon="6.97164">
        <ele>2223.19</ele>
        <time>2017-07-09T09:33:54Z</time>
      </trkpt>
      <trkpt lat="44.79863" lon="6.97172">
        <ele>2223.19</ele>
        <time>2017-07-09T09:34:00Z</time>
      </trkpt>
      <trkpt lat="44.79856" lon="6.97178">
        <ele>2223.67</ele>
        <time>2017-07-09T09:34:06Z</time>
      </trkpt>
      <trkpt lat="44.7985" lon="6.97186">
        <ele>2225.59</ele>
        <time>2017-07-09T09:34:16Z</time>
      </trkpt>
      <trkpt lat="44.79842" lon="6.97196">
        <ele>2225.11</ele>
        <time>2017-07-09T09:34:25Z</time>
      </trkpt>
      <trkpt lat="44.79839" lon="6.97207">
        <ele>2224.63</ele>
        <time>2017-07-09T09:34:34Z</time>
      </trkpt>
      <trkpt lat="44.79833" lon="6.97207">
        <ele>2226.07</ele>
        <time>2017-07-09T09:34:37Z</time>
      </trkpt>
      <trkpt lat="44.79828" lon="6.9721">
        <ele>2225.59</ele>
        <time>2017-07-09T09:34:44Z</time>
      </trkpt>
      <trkpt lat="44.79822" lon="6.97219">
        <ele>2226.07</ele>
        <time>2017-07-09T09:34:51Z</time>
      </trkpt>
      <trkpt lat="44.79818" lon="6.97222">
        <ele>2226.07</ele>
        <time>2017-07-09T09:34:54Z</time>
      </trkpt>
      <trkpt lat="44.79808" lon="6.9723">
        <ele>2227.03</ele>
        <time>2017-07-09T09:35:03Z</time>
      </trkpt>
      <trkpt lat="44.79799" lon="6.97235">
        <ele>2227.51</ele>
        <time>2017-07-09T09:35:13Z</time>
      </trkpt>
      <trkpt lat="44.79792" lon="6.97239">
        <ele>2227.03</ele>
        <time>2017-07-09T09:35:18Z</time>
      </trkpt>
      <trkpt lat="44.79781" lon="6.97244">
        <ele>2227.51</ele>
        <time>2017-07-09T09:35:26Z</time>
      </trkpt>
      <trkpt lat="44.79778" lon="6.97246">
        <ele>2227.51</ele>
        <time>2017-07-09T09:35:29Z</time>
      </trkpt>
      <trkpt lat="44.79776" lon="6.97245">
        <ele>2227.99</ele>
        <time>2017-07-09T09:35:31Z</time>
      </trkpt>
      <trkpt lat="44.79769" lon="6.97245">
        <ele>2227.99</ele>
        <time>2017-07-09T09:35:36Z</time>
      </trkpt>
      <trkpt lat="44.79769" lon="6.97248">
        <ele>2228.47</ele>
        <time>2017-07-09T09:35:41Z</time>
      </trkpt>
      <trkpt lat="44.79769" lon="6.97251">
        <ele>2228.47</ele>
        <time>2017-07-09T09:35:43Z</time>
      </trkpt>
      <trkpt lat="44.79769" lon="6.97257">
        <ele>2228.95</ele>
        <time>2017-07-09T09:35:47Z</time>
      </trkpt>
      <trkpt lat="44.79769" lon="6.97262">
        <ele>2228.47</ele>
        <time>2017-07-09T09:35:51Z</time>
      </trkpt>
      <trkpt lat="44.79771" lon="6.97266">
        <ele>2228.95</ele>
        <time>2017-07-09T09:35:57Z</time>
      </trkpt>
      <trkpt lat="44.7977" lon="6.97277">
        <ele>2229.43</ele>
        <time>2017-07-09T09:36:06Z</time>
      </trkpt>
      <trkpt lat="44.79764" lon="6.97288">
        <ele>2229.43</ele>
        <time>2017-07-09T09:36:13Z</time>
      </trkpt>
      <trkpt lat="44.7975" lon="6.97298">
        <ele>2229.92</ele>
        <time>2017-07-09T09:36:26Z</time>
      </trkpt>
      <trkpt lat="44.79744" lon="6.97308">
        <ele>2230.4</ele>
        <time>2017-07-09T09:36:33Z</time>
      </trkpt>
      <trkpt lat="44.79743" lon="6.97317">
        <ele>2231.36</ele>
        <time>2017-07-09T09:36:40Z</time>
      </trkpt>
      <trkpt lat="44.79734" lon="6.97324">
        <ele>2230.88</ele>
        <time>2017-07-09T09:36:48Z</time>
      </trkpt>
      <trkpt lat="44.79722" lon="6.9733">
        <ele>2231.36</ele>
        <time>2017-07-09T09:36:56Z</time>
      </trkpt>
      <trkpt lat="44.79722" lon="6.97336">
        <ele>2231.36</ele>
        <time>2017-07-09T09:37:00Z</time>
      </trkpt>
      <trkpt lat="44.79718" lon="6.97341">
        <ele>2231.36</ele>
        <time>2017-07-09T09:37:05Z</time>
      </trkpt>
      <trkpt lat="44.79715" lon="6.97347">
        <ele>2231.36</ele>
        <time>2017-07-09T09:37:09Z</time>
      </trkpt>
      <trkpt lat="44.79711" lon="6.97354">
        <ele>2231.36</ele>
        <time>2017-07-09T09:37:14Z</time>
      </trkpt>
      <trkpt lat="44.79709" lon="6.97359">
        <ele>2231.36</ele>
        <time>2017-07-09T09:37:17Z</time>
      </trkpt>
      <trkpt lat="44.79701" lon="6.97372">
        <ele>2231.84</ele>
        <time>2017-07-09T09:37:28Z</time>
      </trkpt>
      <trkpt lat="44.79694" lon="6.97385">
        <ele>2231.84</ele>
        <time>2017-07-09T09:37:38Z</time>
      </trkpt>
      <trkpt lat="44.79694" lon="6.97386">
        <ele>2231.84</ele>
        <time>2017-07-09T09:37:39Z</time>
      </trkpt>
      <trkpt lat="44.7969" lon="6.97389">
        <ele>2232.32</ele>
        <time>2017-07-09T09:37:43Z</time>
      </trkpt>
      <trkpt lat="44.79683" lon="6.97397">
        <ele>2232.32</ele>
        <time>2017-07-09T09:37:51Z</time>
      </trkpt>
      <trkpt lat="44.7968" lon="6.97408">
        <ele>2232.8</ele>
        <time>2017-07-09T09:37:58Z</time>
      </trkpt>
      <trkpt lat="44.79679" lon="6.97412">
        <ele>2233.28</ele>
        <time>2017-07-09T09:38:02Z</time>
      </trkpt>
      <trkpt lat="44.79677" lon="6.97419">
        <ele>2233.28</ele>
        <time>2017-07-09T09:38:07Z</time>
      </trkpt>
      <trkpt lat="44.79675" lon="6.97429">
        <ele>2233.28</ele>
        <time>2017-07-09T09:38:14Z</time>
      </trkpt>
      <trkpt lat="44.79674" lon="6.97445">
        <ele>2232.8</ele>
        <time>2017-07-09T09:38:24Z</time>
      </trkpt>
      <trkpt lat="44.79671" lon="6.97453">
        <ele>2232.8</ele>
        <time>2017-07-09T09:38:38Z</time>
      </trkpt>
      <trkpt lat="44.7967" lon="6.97455">
        <ele>2232.8</ele>
        <time>2017-07-09T09:38:42Z</time>
      </trkpt>
      <trkpt lat="44.79668" lon="6.9746">
        <ele>2232.8</ele>
        <time>2017-07-09T09:38:46Z</time>
      </trkpt>
      <trkpt lat="44.79669" lon="6.97467">
        <ele>2232.8</ele>
        <time>2017-07-09T09:38:58Z</time>
      </trkpt>
      <trkpt lat="44.79669" lon="6.97472">
        <ele>2232.8</ele>
        <time>2017-07-09T09:39:29Z</time>
      </trkpt>
      <trkpt lat="44.79666" lon="6.97491">
        <ele>2232.8</ele>
        <time>2017-07-09T09:39:39Z</time>
      </trkpt>
      <trkpt lat="44.79666" lon="6.975">
        <ele>2232.8</ele>
        <time>2017-07-09T09:39:45Z</time>
      </trkpt>
      <trkpt lat="44.79665" lon="6.97518">
        <ele>2232.8</ele>
        <time>2017-07-09T09:39:56Z</time>
      </trkpt>
      <trkpt lat="44.79665" lon="6.97528">
        <ele>2232.8</ele>
        <time>2017-07-09T09:40:02Z</time>
      </trkpt>
      <trkpt lat="44.79665" lon="6.97532">
        <ele>2232.8</ele>
        <time>2017-07-09T09:40:05Z</time>
      </trkpt>
      <trkpt lat="44.79664" lon="6.9754">
        <ele>2232.8</ele>
        <time>2017-07-09T09:40:09Z</time>
      </trkpt>
      <trkpt lat="44.79664" lon="6.97544">
        <ele>2232.8</ele>
        <time>2017-07-09T09:40:13Z</time>
      </trkpt>
      <trkpt lat="44.79664" lon="6.9755">
        <ele>2232.8</ele>
        <time>2017-07-09T09:40:17Z</time>
      </trkpt>
      <trkpt lat="44.79666" lon="6.97557">
        <ele>2232.8</ele>
        <time>2017-07-09T09:40:21Z</time>
      </trkpt>
      <trkpt lat="44.79667" lon="6.97562">
        <ele>2232.8</ele>
        <time>2017-07-09T09:40:25Z</time>
      </trkpt>
      <trkpt lat="44.79664" lon="6.97569">
        <ele>2232.8</ele>
        <time>2017-07-09T09:40:38Z</time>
      </trkpt>
      <trkpt lat="44.79661" lon="6.97573">
        <ele>2232.8</ele>
        <time>2017-07-09T09:41:04Z</time>
      </trkpt>
      <trkpt lat="44.79662" lon="6.97587">
        <ele>2232.32</ele>
        <time>2017-07-09T09:41:15Z</time>
      </trkpt>
      <trkpt lat="44.79661" lon="6.97591">
        <ele>2232.8</ele>
        <time>2017-07-09T09:41:19Z</time>
      </trkpt>
      <trkpt lat="44.79661" lon="6.97593">
        <ele>2232.8</ele>
        <time>2017-07-09T09:41:21Z</time>
      </trkpt>
      <trkpt lat="44.79658" lon="6.97604">
        <ele>2232.32</ele>
        <time>2017-07-09T09:41:29Z</time>
      </trkpt>
      <trkpt lat="44.79659" lon="6.97606">
        <ele>2232.32</ele>
        <time>2017-07-09T09:41:31Z</time>
      </trkpt>
      <trkpt lat="44.79663" lon="6.97616">
        <ele>2233.28</ele>
        <time>2017-07-09T09:41:39Z</time>
      </trkpt>
      <trkpt lat="44.79665" lon="6.97633">
        <ele>2232.32</ele>
        <time>2017-07-09T09:41:51Z</time>
      </trkpt>
      <trkpt lat="44.79667" lon="6.97652">
        <ele>2232.8</ele>
        <time>2017-07-09T09:42:02Z</time>
      </trkpt>
      <trkpt lat="44.79667" lon="6.97654">
        <ele>2232.32</ele>
        <time>2017-07-09T09:42:03Z</time>
      </trkpt>
      <trkpt lat="44.79669" lon="6.97665">
        <ele>2232.32</ele>
        <time>2017-07-09T09:42:08Z</time>
      </trkpt>
      <trkpt lat="44.79667" lon="6.97691">
        <ele>2232.8</ele>
        <time>2017-07-09T09:42:21Z</time>
      </trkpt>
      <trkpt lat="44.79666" lon="6.97697">
        <ele>2232.8</ele>
        <time>2017-07-09T09:42:25Z</time>
      </trkpt>
      <trkpt lat="44.79666" lon="6.977">
        <ele>2232.8</ele>
        <time>2017-07-09T09:42:27Z</time>
      </trkpt>
      <trkpt lat="44.79665" lon="6.97717">
        <ele>2233.28</ele>
        <time>2017-07-09T09:42:37Z</time>
      </trkpt>
      <trkpt lat="44.79666" lon="6.97719">
        <ele>2233.28</ele>
        <time>2017-07-09T09:42:39Z</time>
      </trkpt>
      <trkpt lat="44.79668" lon="6.97725">
        <ele>2233.76</ele>
        <time>2017-07-09T09:42:43Z</time>
      </trkpt>
      <trkpt lat="44.79671" lon="6.9774">
        <ele>2233.28</ele>
        <time>2017-07-09T09:42:52Z</time>
      </trkpt>
      <trkpt lat="44.7967" lon="6.97749">
        <ele>2234.24</ele>
        <time>2017-07-09T09:42:58Z</time>
      </trkpt>
      <trkpt lat="44.79667" lon="6.97757">
        <ele>2234.24</ele>
        <time>2017-07-09T09:43:03Z</time>
      </trkpt>
      <trkpt lat="44.79669" lon="6.97766">
        <ele>2233.76</ele>
        <time>2017-07-09T09:43:08Z</time>
      </trkpt>
      <trkpt lat="44.79664" lon="6.97776">
        <ele>2234.24</ele>
        <time>2017-07-09T09:43:14Z</time>
      </trkpt>
      <trkpt lat="44.79661" lon="6.97789">
        <ele>2233.76</ele>
        <time>2017-07-09T09:43:24Z</time>
      </trkpt>
      <trkpt lat="44.79663" lon="6.97794">
        <ele>2234.24</ele>
        <time>2017-07-09T09:43:41Z</time>
      </trkpt>
      <trkpt lat="44.79664" lon="6.97805">
        <ele>2235.2</ele>
        <time>2017-07-09T09:43:47Z</time>
      </trkpt>
      <trkpt lat="44.79666" lon="6.97822">
        <ele>2234.72</ele>
        <time>2017-07-09T09:43:58Z</time>
      </trkpt>
      <trkpt lat="44.79666" lon="6.97828">
        <ele>2234.72</ele>
        <time>2017-07-09T09:44:03Z</time>
      </trkpt>
      <trkpt lat="44.79669" lon="6.97839">
        <ele>2234.72</ele>
        <time>2017-07-09T09:44:08Z</time>
      </trkpt>
      <trkpt lat="44.79669" lon="6.97842">
        <ele>2234.72</ele>
        <time>2017-07-09T09:44:11Z</time>
      </trkpt>
      <trkpt lat="44.79669" lon="6.97847">
        <ele>2235.2</ele>
        <time>2017-07-09T09:44:15Z</time>
      </trkpt>
      <trkpt lat="44.7967" lon="6.97856">
        <ele>2234.72</ele>
        <time>2017-07-09T09:44:20Z</time>
      </trkpt>
      <trkpt lat="44.79669" lon="6.9787">
        <ele>2234.72</ele>
        <time>2017-07-09T09:44:29Z</time>
      </trkpt>
      <trkpt lat="44.79671" lon="6.97877">
        <ele>2235.2</ele>
        <time>2017-07-09T09:44:34Z</time>
      </trkpt>
      <trkpt lat="44.7967" lon="6.97883">
        <ele>2234.72</ele>
        <time>2017-07-09T09:44:38Z</time>
      </trkpt>
      <trkpt lat="44.79676" lon="6.97899">
        <ele>2234.72</ele>
        <time>2017-07-09T09:44:48Z</time>
      </trkpt>
      <trkpt lat="44.79677" lon="6.97905">
        <ele>2234.72</ele>
        <time>2017-07-09T09:44:51Z</time>
      </trkpt>
      <trkpt lat="44.7968" lon="6.97918">
        <ele>2234.72</ele>
        <time>2017-07-09T09:44:57Z</time>
      </trkpt>
      <trkpt lat="44.79681" lon="6.97923">
        <ele>2234.72</ele>
        <time>2017-07-09T09:45:04Z</time>
      </trkpt>
      <trkpt lat="44.79685" lon="6.97929">
        <ele>2234.24</ele>
        <time>2017-07-09T09:45:08Z</time>
      </trkpt>
      <trkpt lat="44.79687" lon="6.97938">
        <ele>2235.2</ele>
        <time>2017-07-09T09:45:12Z</time>
      </trkpt>
      <trkpt lat="44.79689" lon="6.97945">
        <ele>2234.72</ele>
        <time>2017-07-09T09:45:18Z</time>
      </trkpt>
      <trkpt lat="44.79695" lon="6.97952">
        <ele>2234.72</ele>
        <time>2017-07-09T09:45:23Z</time>
      </trkpt>
      <trkpt lat="44.797" lon="6.97961">
        <ele>2235.2</ele>
        <time>2017-07-09T09:45:32Z</time>
      </trkpt>
      <trkpt lat="44.79706" lon="6.97975">
        <ele>2235.2</ele>
        <time>2017-07-09T09:45:42Z</time>
      </trkpt>
      <trkpt lat="44.79707" lon="6.97979">
        <ele>2235.68</ele>
        <time>2017-07-09T09:45:44Z</time>
      </trkpt>
      <trkpt lat="44.79708" lon="6.97983">
        <ele>2235.68</ele>
        <time>2017-07-09T09:45:46Z</time>
      </trkpt>
      <trkpt lat="44.79704" lon="6.97989">
        <ele>2236.16</ele>
        <time>2017-07-09T09:45:51Z</time>
      </trkpt>
      <trkpt lat="44.79703" lon="6.97995">
        <ele>2235.68</ele>
        <time>2017-07-09T09:45:55Z</time>
      </trkpt>
      <trkpt lat="44.79707" lon="6.97999">
        <ele>2235.68</ele>
        <time>2017-07-09T09:46:01Z</time>
      </trkpt>
      <trkpt lat="44.79709" lon="6.97998">
        <ele>2235.2</ele>
        <time>2017-07-09T09:46:03Z</time>
      </trkpt>
      <trkpt lat="44.7972" lon="6.98">
        <ele>2235.68</ele>
        <time>2017-07-09T09:46:14Z</time>
      </trkpt>
      <trkpt lat="44.79725" lon="6.98014">
        <ele>2236.16</ele>
        <time>2017-07-09T09:46:24Z</time>
      </trkpt>
      <trkpt lat="44.79727" lon="6.98018">
        <ele>2236.16</ele>
        <time>2017-07-09T09:46:27Z</time>
      </trkpt>
      <trkpt lat="44.7974" lon="6.98026">
        <ele>2236.16</ele>
        <time>2017-07-09T09:46:37Z</time>
      </trkpt>
      <trkpt lat="44.79744" lon="6.98034">
        <ele>2236.64</ele>
        <time>2017-07-09T09:46:45Z</time>
      </trkpt>
      <trkpt lat="44.79743" lon="6.98051">
        <ele>2236.64</ele>
        <time>2017-07-09T09:46:55Z</time>
      </trkpt>
      <trkpt lat="44.79745" lon="6.98058">
        <ele>2236.64</ele>
        <time>2017-07-09T09:46:59Z</time>
      </trkpt>
      <trkpt lat="44.79745" lon="6.98063">
        <ele>2236.64</ele>
        <time>2017-07-09T09:47:03Z</time>
      </trkpt>
      <trkpt lat="44.79744" lon="6.98066">
        <ele>2237.13</ele>
        <time>2017-07-09T09:47:05Z</time>
      </trkpt>
      <trkpt lat="44.79743" lon="6.98074">
        <ele>2236.64</ele>
        <time>2017-07-09T09:47:09Z</time>
      </trkpt>
      <trkpt lat="44.79743" lon="6.98078">
        <ele>2237.13</ele>
        <time>2017-07-09T09:47:13Z</time>
      </trkpt>
      <trkpt lat="44.79744" lon="6.98082">
        <ele>2237.13</ele>
        <time>2017-07-09T09:47:16Z</time>
      </trkpt>
      <trkpt lat="44.79744" lon="6.98089">
        <ele>2237.13</ele>
        <time>2017-07-09T09:47:19Z</time>
      </trkpt>
      <trkpt lat="44.79742" lon="6.98092">
        <ele>2237.13</ele>
        <time>2017-07-09T09:47:21Z</time>
      </trkpt>
      <trkpt lat="44.79739" lon="6.98103">
        <ele>2237.13</ele>
        <time>2017-07-09T09:47:32Z</time>
      </trkpt>
      <trkpt lat="44.79738" lon="6.98111">
        <ele>2237.61</ele>
        <time>2017-07-09T09:47:43Z</time>
      </trkpt>
      <trkpt lat="44.79736" lon="6.98115">
        <ele>2237.61</ele>
        <time>2017-07-09T09:47:46Z</time>
      </trkpt>
      <trkpt lat="44.7973" lon="6.98131">
        <ele>2237.61</ele>
        <time>2017-07-09T09:47:54Z</time>
      </trkpt>
      <trkpt lat="44.7973" lon="6.98133">
        <ele>2237.61</ele>
        <time>2017-07-09T09:47:57Z</time>
      </trkpt>
      <trkpt lat="44.79731" lon="6.98139">
        <ele>2238.09</ele>
        <time>2017-07-09T09:48:00Z</time>
      </trkpt>
      <trkpt lat="44.79727" lon="6.98156">
        <ele>2237.61</ele>
        <time>2017-07-09T09:48:11Z</time>
      </trkpt>
      <trkpt lat="44.79724" lon="6.98162">
        <ele>2237.61</ele>
        <time>2017-07-09T09:48:24Z</time>
      </trkpt>
      <trkpt lat="44.79725" lon="6.98161">
        <ele>2237.61</ele>
        <time>2017-07-09T09:48:47Z</time>
      </trkpt>
      <trkpt lat="44.79726" lon="6.98161">
        <ele>2237.13</ele>
        <time>2017-07-09T09:49:09Z</time>
      </trkpt>
      <trkpt lat="44.79724" lon="6.98165">
        <ele>2237.61</ele>
        <time>2017-07-09T09:49:15Z</time>
      </trkpt>
      <trkpt lat="44.79721" lon="6.98175">
        <ele>2237.61</ele>
        <time>2017-07-09T09:49:25Z</time>
      </trkpt>
      <trkpt lat="44.79714" lon="6.98185">
        <ele>2237.61</ele>
        <time>2017-07-09T09:49:35Z</time>
      </trkpt>
      <trkpt lat="44.79707" lon="6.982">
        <ele>2238.09</ele>
        <time>2017-07-09T09:49:45Z</time>
      </trkpt>
      <trkpt lat="44.797" lon="6.98212">
        <ele>2238.09</ele>
        <time>2017-07-09T09:49:55Z</time>
      </trkpt>
      <trkpt lat="44.79701" lon="6.98214">
        <ele>2238.57</ele>
        <time>2017-07-09T09:49:57Z</time>
      </trkpt>
      <trkpt lat="44.79698" lon="6.98225">
        <ele>2238.57</ele>
        <time>2017-07-09T09:50:06Z</time>
      </trkpt>
      <trkpt lat="44.79701" lon="6.98229">
        <ele>2238.09</ele>
        <time>2017-07-09T09:50:10Z</time>
      </trkpt>
      <trkpt lat="44.79701" lon="6.98233">
        <ele>2238.57</ele>
        <time>2017-07-09T09:50:14Z</time>
      </trkpt>
      <trkpt lat="44.79697" lon="6.9825">
        <ele>2239.05</ele>
        <time>2017-07-09T09:50:26Z</time>
      </trkpt>
      <trkpt lat="44.79695" lon="6.98255">
        <ele>2239.05</ele>
        <time>2017-07-09T09:50:29Z</time>
      </trkpt>
      <trkpt lat="44.79693" lon="6.98271">
        <ele>2239.53</ele>
        <time>2017-07-09T09:50:39Z</time>
      </trkpt>
      <trkpt lat="44.79693" lon="6.9828">
        <ele>2239.53</ele>
        <time>2017-07-09T09:50:46Z</time>
      </trkpt>
      <trkpt lat="44.79691" lon="6.98298">
        <ele>2239.05</ele>
        <time>2017-07-09T09:50:57Z</time>
      </trkpt>
      <trkpt lat="44.79688" lon="6.98304">
        <ele>2239.05</ele>
        <time>2017-07-09T09:51:03Z</time>
      </trkpt>
      <trkpt lat="44.79689" lon="6.98313">
        <ele>2240.01</ele>
        <time>2017-07-09T09:51:10Z</time>
      </trkpt>
      <trkpt lat="44.79683" lon="6.98319">
        <ele>2239.53</ele>
        <time>2017-07-09T09:51:16Z</time>
      </trkpt>
      <trkpt lat="44.79682" lon="6.98327">
        <ele>2239.53</ele>
        <time>2017-07-09T09:51:22Z</time>
      </trkpt>
      <trkpt lat="44.79679" lon="6.98331">
        <ele>2240.01</ele>
        <time>2017-07-09T09:51:25Z</time>
      </trkpt>
      <trkpt lat="44.79678" lon="6.98335">
        <ele>2240.01</ele>
        <time>2017-07-09T09:51:28Z</time>
      </trkpt>
      <trkpt lat="44.79675" lon="6.98349">
        <ele>2240.01</ele>
        <time>2017-07-09T09:51:37Z</time>
      </trkpt>
      <trkpt lat="44.79672" lon="6.98351">
        <ele>2240.01</ele>
        <time>2017-07-09T09:51:40Z</time>
      </trkpt>
      <trkpt lat="44.79668" lon="6.98358">
        <ele>2240.01</ele>
        <time>2017-07-09T09:51:47Z</time>
      </trkpt>
      <trkpt lat="44.79666" lon="6.98372">
        <ele>2240.49</ele>
        <time>2017-07-09T09:51:57Z</time>
      </trkpt>
      <trkpt lat="44.79664" lon="6.98378">
        <ele>2240.97</ele>
        <time>2017-07-09T09:52:05Z</time>
      </trkpt>
      <trkpt lat="44.79664" lon="6.98379">
        <ele>2240.49</ele>
        <time>2017-07-09T09:52:06Z</time>
      </trkpt>
      <trkpt lat="44.79658" lon="6.98388">
        <ele>2241.93</ele>
        <time>2017-07-09T09:52:17Z</time>
      </trkpt>
      <trkpt lat="44.79658" lon="6.98389">
        <ele>2241.93</ele>
        <time>2017-07-09T09:52:19Z</time>
      </trkpt>
      <trkpt lat="44.79655" lon="6.98396">
        <ele>2241.93</ele>
        <time>2017-07-09T09:52:27Z</time>
      </trkpt>
      <trkpt lat="44.79655" lon="6.98399">
        <ele>2242.41</ele>
        <time>2017-07-09T09:52:32Z</time>
      </trkpt>
      <trkpt lat="44.79655" lon="6.98403">
        <ele>2242.41</ele>
        <time>2017-07-09T09:52:34Z</time>
      </trkpt>
      <trkpt lat="44.79655" lon="6.98409">
        <ele>2242.41</ele>
        <time>2017-07-09T09:52:39Z</time>
      </trkpt>
      <trkpt lat="44.79654" lon="6.98419">
        <ele>2240.97</ele>
        <time>2017-07-09T09:52:49Z</time>
      </trkpt>
      <trkpt lat="44.79646" lon="6.98433">
        <ele>2240.97</ele>
        <time>2017-07-09T09:53:00Z</time>
      </trkpt>
      <trkpt lat="44.79646" lon="6.98439">
        <ele>2241.45</ele>
        <time>2017-07-09T09:53:05Z</time>
      </trkpt>
      <trkpt lat="44.79644" lon="6.98447">
        <ele>2241.45</ele>
        <time>2017-07-09T09:53:10Z</time>
      </trkpt>
      <trkpt lat="44.79639" lon="6.98453">
        <ele>2241.45</ele>
        <time>2017-07-09T09:53:14Z</time>
      </trkpt>
      <trkpt lat="44.79635" lon="6.98455">
        <ele>2241.45</ele>
        <time>2017-07-09T09:53:17Z</time>
      </trkpt>
      <trkpt lat="44.79633" lon="6.98456">
        <ele>2241.45</ele>
        <time>2017-07-09T09:53:21Z</time>
      </trkpt>
      <trkpt lat="44.79633" lon="6.98461">
        <ele>2240.97</ele>
        <time>2017-07-09T09:53:26Z</time>
      </trkpt>
      <trkpt lat="44.79635" lon="6.98462">
        <ele>2241.93</ele>
        <time>2017-07-09T09:53:30Z</time>
      </trkpt>
      <trkpt lat="44.79643" lon="6.98472">
        <ele>2241.93</ele>
        <time>2017-07-09T09:53:38Z</time>
      </trkpt>
      <trkpt lat="44.79642" lon="6.98485">
        <ele>2241.93</ele>
        <time>2017-07-09T09:53:46Z</time>
      </trkpt>
      <trkpt lat="44.7964" lon="6.98493">
        <ele>2241.45</ele>
        <time>2017-07-09T09:53:51Z</time>
      </trkpt>
      <trkpt lat="44.79637" lon="6.98495">
        <ele>2241.45</ele>
        <time>2017-07-09T09:53:54Z</time>
      </trkpt>
      <trkpt lat="44.79631" lon="6.98505">
        <ele>2241.93</ele>
        <time>2017-07-09T09:54:05Z</time>
      </trkpt>
      <trkpt lat="44.79631" lon="6.98507">
        <ele>2241.93</ele>
        <time>2017-07-09T09:54:06Z</time>
      </trkpt>
      <trkpt lat="44.79626" lon="6.9852">
        <ele>2241.93</ele>
        <time>2017-07-09T09:54:13Z</time>
      </trkpt>
      <trkpt lat="44.79623" lon="6.98525">
        <ele>2242.89</ele>
        <time>2017-07-09T09:54:16Z</time>
      </trkpt>
      <trkpt lat="44.79621" lon="6.9853">
        <ele>2242.41</ele>
        <time>2017-07-09T09:54:18Z</time>
      </trkpt>
      <trkpt lat="44.79607" lon="6.98542">
        <ele>2241.93</ele>
        <time>2017-07-09T09:54:28Z</time>
      </trkpt>
      <trkpt lat="44.79606" lon="6.98546">
        <ele>2241.93</ele>
        <time>2017-07-09T09:54:35Z</time>
      </trkpt>
      <trkpt lat="44.79603" lon="6.98554">
        <ele>2241.45</ele>
        <time>2017-07-09T09:54:46Z</time>
      </trkpt>
      <trkpt lat="44.79602" lon="6.98554">
        <ele>2240.97</ele>
        <time>2017-07-09T09:55:01Z</time>
      </trkpt>
      <trkpt lat="44.79604" lon="6.98554">
        <ele>2241.45</ele>
        <time>2017-07-09T09:55:18Z</time>
      </trkpt>
      <trkpt lat="44.79605" lon="6.98558">
        <ele>2241.45</ele>
        <time>2017-07-09T09:55:39Z</time>
      </trkpt>
      <trkpt lat="44.79605" lon="6.9856">
        <ele>2241.93</ele>
        <time>2017-07-09T09:55:41Z</time>
      </trkpt>
      <trkpt lat="44.79606" lon="6.9857">
        <ele>2241.93</ele>
        <time>2017-07-09T09:55:49Z</time>
      </trkpt>
      <trkpt lat="44.79605" lon="6.98571">
        <ele>2241.45</ele>
        <time>2017-07-09T09:55:50Z</time>
      </trkpt>
      <trkpt lat="44.796" lon="6.98576">
        <ele>2241.93</ele>
        <time>2017-07-09T09:55:56Z</time>
      </trkpt>
      <trkpt lat="44.79597" lon="6.98589">
        <ele>2241.93</ele>
        <time>2017-07-09T09:56:06Z</time>
      </trkpt>
      <trkpt lat="44.79596" lon="6.98595">
        <ele>2242.41</ele>
        <time>2017-07-09T09:56:10Z</time>
      </trkpt>
      <trkpt lat="44.79596" lon="6.98599">
        <ele>2241.93</ele>
        <time>2017-07-09T09:56:12Z</time>
      </trkpt>
      <trkpt lat="44.79594" lon="6.98604">
        <ele>2242.89</ele>
        <time>2017-07-09T09:56:17Z</time>
      </trkpt>
      <trkpt lat="44.79593" lon="6.9861">
        <ele>2242.41</ele>
        <time>2017-07-09T09:56:22Z</time>
      </trkpt>
      <trkpt lat="44.79594" lon="6.98612">
        <ele>2241.93</ele>
        <time>2017-07-09T09:56:25Z</time>
      </trkpt>
      <trkpt lat="44.796" lon="6.98628">
        <ele>2241.45</ele>
        <time>2017-07-09T09:56:37Z</time>
      </trkpt>
      <trkpt lat="44.79601" lon="6.9863">
        <ele>2242.41</ele>
        <time>2017-07-09T09:56:44Z</time>
      </trkpt>
      <trkpt lat="44.79601" lon="6.98635">
        <ele>2242.41</ele>
        <time>2017-07-09T09:56:48Z</time>
      </trkpt>
      <trkpt lat="44.79602" lon="6.98646">
        <ele>2241.93</ele>
        <time>2017-07-09T09:56:57Z</time>
      </trkpt>
      <trkpt lat="44.79601" lon="6.98654">
        <ele>2240.49</ele>
        <time>2017-07-09T09:57:02Z</time>
      </trkpt>
      <trkpt lat="44.796" lon="6.98661">
        <ele>2239.53</ele>
        <time>2017-07-09T09:57:06Z</time>
      </trkpt>
      <trkpt lat="44.79596" lon="6.98672">
        <ele>2237.13</ele>
        <time>2017-07-09T09:57:15Z</time>
      </trkpt>
      <trkpt lat="44.79596" lon="6.98674">
        <ele>2237.61</ele>
        <time>2017-07-09T09:57:17Z</time>
      </trkpt>
      <trkpt lat="44.79597" lon="6.98679">
        <ele>2236.64</ele>
        <time>2017-07-09T09:57:21Z</time>
      </trkpt>
      <trkpt lat="44.796" lon="6.98685">
        <ele>2237.13</ele>
        <time>2017-07-09T09:57:25Z</time>
      </trkpt>
      <trkpt lat="44.79605" lon="6.9869">
        <ele>2236.16</ele>
        <time>2017-07-09T09:57:29Z</time>
      </trkpt>
      <trkpt lat="44.79605" lon="6.987">
        <ele>2235.2</ele>
        <time>2017-07-09T09:57:36Z</time>
      </trkpt>
      <trkpt lat="44.79607" lon="6.98706">
        <ele>2234.72</ele>
        <time>2017-07-09T09:57:40Z</time>
      </trkpt>
      <trkpt lat="44.7961" lon="6.98718">
        <ele>2234.72</ele>
        <time>2017-07-09T09:57:50Z</time>
      </trkpt>
      <trkpt lat="44.79611" lon="6.9872">
        <ele>2234.24</ele>
        <time>2017-07-09T09:58:01Z</time>
      </trkpt>
      <trkpt lat="44.79616" lon="6.98725">
        <ele>2236.64</ele>
        <time>2017-07-09T09:58:11Z</time>
      </trkpt>
      <trkpt lat="44.79618" lon="6.98727">
        <ele>2238.57</ele>
        <time>2017-07-09T09:58:17Z</time>
      </trkpt>
      <trkpt lat="44.79622" lon="6.98733">
        <ele>2239.53</ele>
        <time>2017-07-09T09:58:23Z</time>
      </trkpt>
      <trkpt lat="44.79627" lon="6.98746">
        <ele>2240.97</ele>
        <time>2017-07-09T09:58:35Z</time>
      </trkpt>
      <trkpt lat="44.79634" lon="6.98744">
        <ele>2241.93</ele>
        <time>2017-07-09T09:58:44Z</time>
      </trkpt>
      <trkpt lat="44.79642" lon="6.98738">
        <ele>2243.37</ele>
        <time>2017-07-09T09:58:54Z</time>
      </trkpt>
      <trkpt lat="44.79649" lon="6.98735">
        <ele>2244.82</ele>
        <time>2017-07-09T09:59:03Z</time>
      </trkpt>
      <trkpt lat="44.79654" lon="6.98731">
        <ele>2245.78</ele>
        <time>2017-07-09T09:59:10Z</time>
      </trkpt>
      <trkpt lat="44.79655" lon="6.98728">
        <ele>2245.78</ele>
        <time>2017-07-09T09:59:13Z</time>
      </trkpt>
      <trkpt lat="44.79657" lon="6.98725">
        <ele>2246.26</ele>
        <time>2017-07-09T09:59:18Z</time>
      </trkpt>
      <trkpt lat="44.79664" lon="6.98712">
        <ele>2246.26</ele>
        <time>2017-07-09T09:59:28Z</time>
      </trkpt>
      <trkpt lat="44.79666" lon="6.98709">
        <ele>2246.26</ele>
        <time>2017-07-09T09:59:31Z</time>
      </trkpt>
      <trkpt lat="44.79674" lon="6.98708">
        <ele>2246.74</ele>
        <time>2017-07-09T09:59:38Z</time>
      </trkpt>
      <trkpt lat="44.79677" lon="6.98704">
        <ele>2246.74</ele>
        <time>2017-07-09T09:59:41Z</time>
      </trkpt>
      <trkpt lat="44.7968" lon="6.98699">
        <ele>2246.74</ele>
        <time>2017-07-09T09:59:44Z</time>
      </trkpt>
      <trkpt lat="44.79685" lon="6.98697">
        <ele>2247.22</ele>
        <time>2017-07-09T09:59:50Z</time>
      </trkpt>
      <trkpt lat="44.79691" lon="6.9869">
        <ele>2246.74</ele>
        <time>2017-07-09T09:59:59Z</time>
      </trkpt>
      <trkpt lat="44.79694" lon="6.98679">
        <ele>2248.66</ele>
        <time>2017-07-09T10:00:10Z</time>
      </trkpt>
      <trkpt lat="44.79698" lon="6.98681">
        <ele>2249.14</ele>
        <time>2017-07-09T10:00:22Z</time>
      </trkpt>
      <trkpt lat="44.79706" lon="6.98685">
        <ele>2251.54</ele>
        <time>2017-07-09T10:00:32Z</time>
      </trkpt>
      <trkpt lat="44.7971" lon="6.98697">
        <ele>2253.47</ele>
        <time>2017-07-09T10:00:43Z</time>
      </trkpt>
      <trkpt lat="44.79712" lon="6.98698">
        <ele>2253.95</ele>
        <time>2017-07-09T10:00:46Z</time>
      </trkpt>
      <trkpt lat="44.79718" lon="6.98707">
        <ele>2254.91</ele>
        <time>2017-07-09T10:00:56Z</time>
      </trkpt>
      <trkpt lat="44.79724" lon="6.98713">
        <ele>2255.87</ele>
        <time>2017-07-09T10:01:04Z</time>
      </trkpt>
      <trkpt lat="44.79725" lon="6.98713">
        <ele>2256.83</ele>
        <time>2017-07-09T10:01:09Z</time>
      </trkpt>
      <trkpt lat="44.7973" lon="6.98714">
        <ele>2256.35</ele>
        <time>2017-07-09T10:01:15Z</time>
      </trkpt>
      <trkpt lat="44.79735" lon="6.98715">
        <ele>2257.31</ele>
        <time>2017-07-09T10:01:20Z</time>
      </trkpt>
      <trkpt lat="44.7974" lon="6.98721">
        <ele>2258.75</ele>
        <time>2017-07-09T10:01:29Z</time>
      </trkpt>
      <trkpt lat="44.79742" lon="6.98723">
        <ele>2259.24</ele>
        <time>2017-07-09T10:01:33Z</time>
      </trkpt>
      <trkpt lat="44.79746" lon="6.98725">
        <ele>2259.24</ele>
        <time>2017-07-09T10:01:47Z</time>
      </trkpt>
      <trkpt lat="44.79749" lon="6.98725">
        <ele>2259.72</ele>
        <time>2017-07-09T10:01:59Z</time>
      </trkpt>
      <trkpt lat="44.79753" lon="6.98726">
        <ele>2259.72</ele>
        <time>2017-07-09T10:02:09Z</time>
      </trkpt>
      <trkpt lat="44.79754" lon="6.98726">
        <ele>2259.72</ele>
        <time>2017-07-09T10:02:12Z</time>
      </trkpt>
      <trkpt lat="44.79762" lon="6.98726">
        <ele>2260.68</ele>
        <time>2017-07-09T10:02:19Z</time>
      </trkpt>
      <trkpt lat="44.79775" lon="6.98727">
        <ele>2261.16</ele>
        <time>2017-07-09T10:02:31Z</time>
      </trkpt>
      <trkpt lat="44.79777" lon="6.98726">
        <ele>2261.16</ele>
        <time>2017-07-09T10:02:33Z</time>
      </trkpt>
      <trkpt lat="44.79781" lon="6.98724">
        <ele>2261.16</ele>
        <time>2017-07-09T10:02:37Z</time>
      </trkpt>
      <trkpt lat="44.79785" lon="6.98722">
        <ele>2261.64</ele>
        <time>2017-07-09T10:02:41Z</time>
      </trkpt>
      <trkpt lat="44.79788" lon="6.98723">
        <ele>2261.64</ele>
        <time>2017-07-09T10:02:44Z</time>
      </trkpt>
      <trkpt lat="44.79797" lon="6.9872">
        <ele>2261.64</ele>
        <time>2017-07-09T10:02:51Z</time>
      </trkpt>
      <trkpt lat="44.79799" lon="6.98718">
        <ele>2261.64</ele>
        <time>2017-07-09T10:02:53Z</time>
      </trkpt>
      <trkpt lat="44.79814" lon="6.98716">
        <ele>2262.12</ele>
        <time>2017-07-09T10:03:07Z</time>
      </trkpt>
      <trkpt lat="44.79815" lon="6.98717">
        <ele>2262.6</ele>
        <time>2017-07-09T10:03:09Z</time>
      </trkpt>
      <trkpt lat="44.7982" lon="6.98718">
        <ele>2262.6</ele>
        <time>2017-07-09T10:03:13Z</time>
      </trkpt>
      <trkpt lat="44.79833" lon="6.98721">
        <ele>2263.56</ele>
        <time>2017-07-09T10:03:24Z</time>
      </trkpt>
      <trkpt lat="44.79835" lon="6.98722">
        <ele>2263.56</ele>
        <time>2017-07-09T10:03:29Z</time>
      </trkpt>
      <trkpt lat="44.79847" lon="6.98728">
        <ele>2264.04</ele>
        <time>2017-07-09T10:03:39Z</time>
      </trkpt>
      <trkpt lat="44.79857" lon="6.98737">
        <ele>2264.04</ele>
        <time>2017-07-09T10:03:49Z</time>
      </trkpt>
      <trkpt lat="44.79858" lon="6.98739">
        <ele>2264.52</ele>
        <time>2017-07-09T10:03:53Z</time>
      </trkpt>
      <trkpt lat="44.79857" lon="6.98751">
        <ele>2265.96</ele>
        <time>2017-07-09T10:04:04Z</time>
      </trkpt>
      <trkpt lat="44.79855" lon="6.98757">
        <ele>2266.93</ele>
        <time>2017-07-09T10:04:09Z</time>
      </trkpt>
      <trkpt lat="44.79853" lon="6.98762">
        <ele>2267.41</ele>
        <time>2017-07-09T10:04:14Z</time>
      </trkpt>
      <trkpt lat="44.79847" lon="6.98772">
        <ele>2269.33</ele>
        <time>2017-07-09T10:04:24Z</time>
      </trkpt>
      <trkpt lat="44.79846" lon="6.98773">
        <ele>2269.81</ele>
        <time>2017-07-09T10:04:26Z</time>
      </trkpt>
      <trkpt lat="44.79846" lon="6.98777">
        <ele>2270.29</ele>
        <time>2017-07-09T10:04:29Z</time>
      </trkpt>
      <trkpt lat="44.79842" lon="6.98785">
        <ele>2271.25</ele>
        <time>2017-07-09T10:04:36Z</time>
      </trkpt>
      <trkpt lat="44.79839" lon="6.98793">
        <ele>2272.21</ele>
        <time>2017-07-09T10:04:44Z</time>
      </trkpt>
      <trkpt lat="44.79839" lon="6.98795">
        <ele>2273.17</ele>
        <time>2017-07-09T10:04:46Z</time>
      </trkpt>
      <trkpt lat="44.79837" lon="6.98808">
        <ele>2275.58</ele>
        <time>2017-07-09T10:04:57Z</time>
      </trkpt>
      <trkpt lat="44.79836" lon="6.9881">
        <ele>2276.54</ele>
        <time>2017-07-09T10:04:59Z</time>
      </trkpt>
      <trkpt lat="44.79834" lon="6.9882">
        <ele>2277.02</ele>
        <time>2017-07-09T10:05:09Z</time>
      </trkpt>
      <trkpt lat="44.7983" lon="6.98831">
        <ele>2278.94</ele>
        <time>2017-07-09T10:05:20Z</time>
      </trkpt>
      <trkpt lat="44.79827" lon="6.98842">
        <ele>2279.9</ele>
        <time>2017-07-09T10:05:29Z</time>
      </trkpt>
      <trkpt lat="44.79827" lon="6.98845">
        <ele>2280.38</ele>
        <time>2017-07-09T10:05:32Z</time>
      </trkpt>
      <trkpt lat="44.79825" lon="6.98856">
        <ele>2282.31</ele>
        <time>2017-07-09T10:05:42Z</time>
      </trkpt>
      <trkpt lat="44.79824" lon="6.98859">
        <ele>2282.79</ele>
        <time>2017-07-09T10:05:45Z</time>
      </trkpt>
      <trkpt lat="44.79822" lon="6.98865">
        <ele>2283.75</ele>
        <time>2017-07-09T10:05:50Z</time>
      </trkpt>
      <trkpt lat="44.79823" lon="6.98876">
        <ele>2285.19</ele>
        <time>2017-07-09T10:06:01Z</time>
      </trkpt>
      <trkpt lat="44.79822" lon="6.98886">
        <ele>2287.11</ele>
        <time>2017-07-09T10:06:12Z</time>
      </trkpt>
      <trkpt lat="44.79821" lon="6.98895">
        <ele>2288.56</ele>
        <time>2017-07-09T10:06:18Z</time>
      </trkpt>
      <trkpt lat="44.79818" lon="6.989">
        <ele>2288.08</ele>
        <time>2017-07-09T10:06:22Z</time>
      </trkpt>
      <trkpt lat="44.79817" lon="6.98904">
        <ele>2289.04</ele>
        <time>2017-07-09T10:06:25Z</time>
      </trkpt>
      <trkpt lat="44.79816" lon="6.98907">
        <ele>2289.04</ele>
        <time>2017-07-09T10:06:27Z</time>
      </trkpt>
      <trkpt lat="44.79815" lon="6.98919">
        <ele>2290.96</ele>
        <time>2017-07-09T10:06:39Z</time>
      </trkpt>
      <trkpt lat="44.79814" lon="6.98923">
        <ele>2291.44</ele>
        <time>2017-07-09T10:06:42Z</time>
      </trkpt>
      <trkpt lat="44.79812" lon="6.9893">
        <ele>2292.88</ele>
        <time>2017-07-09T10:06:49Z</time>
      </trkpt>
      <trkpt lat="44.79809" lon="6.98941">
        <ele>2294.8</ele>
        <time>2017-07-09T10:07:01Z</time>
      </trkpt>
      <trkpt lat="44.79808" lon="6.98943">
        <ele>2295.28</ele>
        <time>2017-07-09T10:07:03Z</time>
      </trkpt>
      <trkpt lat="44.79806" lon="6.98941">
        <ele>2295.28</ele>
        <time>2017-07-09T10:07:13Z</time>
      </trkpt>
      <trkpt lat="44.79807" lon="6.9894">
        <ele>2292.88</ele>
        <time>2017-07-09T10:07:32Z</time>
      </trkpt>
      <trkpt lat="44.79807" lon="6.9894">
        <ele>2295.77</ele>
        <time>2017-07-09T10:07:47Z</time>
      </trkpt>
      <trkpt lat="44.79807" lon="6.9894">
        <ele>2290.48</ele>
        <time>2017-07-09T10:07:54Z</time>
      </trkpt>
      <trkpt lat="44.79807" lon="6.9894">
        <ele>2292.88</ele>
        <time>2017-07-09T10:07:55Z</time>
      </trkpt>
      <trkpt lat="44.79807" lon="6.9894">
        <ele>2296.25</ele>
        <time>2017-07-09T10:07:59Z</time>
      </trkpt>
      <trkpt lat="44.79807" lon="6.9894">
        <ele>2294.8</ele>
        <time>2017-07-09T10:08:02Z</time>
      </trkpt>
      <trkpt lat="44.79807" lon="6.9894">
        <ele>2293.84</ele>
        <time>2017-07-09T10:08:22Z</time>
      </trkpt>
      <trkpt lat="44.79807" lon="6.98939">
        <ele>2293.84</ele>
        <time>2017-07-09T10:08:45Z</time>
      </trkpt>
      <trkpt lat="44.79807" lon="6.9894">
        <ele>2293.36</ele>
        <time>2017-07-09T10:09:11Z</time>
      </trkpt>
      <trkpt lat="44.79807" lon="6.98939">
        <ele>2293.36</ele>
        <time>2017-07-09T10:09:39Z</time>
      </trkpt>
      <trkpt lat="44.79807" lon="6.98938">
        <ele>2292.88</ele>
        <time>2017-07-09T10:09:55Z</time>
      </trkpt>
      <trkpt lat="44.79808" lon="6.98938">
        <ele>2293.36</ele>
        <time>2017-07-09T10:10:11Z</time>
      </trkpt>
      <trkpt lat="44.79808" lon="6.98939">
        <ele>2293.84</ele>
        <time>2017-07-09T10:10:37Z</time>
      </trkpt>
      <trkpt lat="44.79808" lon="6.98939">
        <ele>2294.32</ele>
        <time>2017-07-09T10:10:54Z</time>
      </trkpt>
      <trkpt lat="44.79808" lon="6.98938">
        <ele>2294.8</ele>
        <time>2017-07-09T10:11:14Z</time>
      </trkpt>
      <trkpt lat="44.79808" lon="6.98938">
        <ele>2295.77</ele>
        <time>2017-07-09T10:11:32Z</time>
      </trkpt>
      <trkpt lat="44.79808" lon="6.98938">
        <ele>2296.73</ele>
        <time>2017-07-09T10:11:38Z</time>
      </trkpt>
      <trkpt lat="44.79806" lon="6.9895">
        <ele>2298.65</ele>
        <time>2017-07-09T10:11:47Z</time>
      </trkpt>
      <trkpt lat="44.79805" lon="6.98955">
        <ele>2299.61</ele>
        <time>2017-07-09T10:11:58Z</time>
      </trkpt>
      <trkpt lat="44.79805" lon="6.98958">
        <ele>2298.65</ele>
        <time>2017-07-09T10:12:13Z</time>
      </trkpt>
      <trkpt lat="44.79805" lon="6.98962">
        <ele>2300.09</ele>
        <time>2017-07-09T10:12:17Z</time>
      </trkpt>
      <trkpt lat="44.79803" lon="6.98973">
        <ele>2301.53</ele>
        <time>2017-07-09T10:12:28Z</time>
      </trkpt>
      <trkpt lat="44.79801" lon="6.98986">
        <ele>2301.05</ele>
        <time>2017-07-09T10:12:37Z</time>
      </trkpt>
      <trkpt lat="44.79802" lon="6.98995">
        <ele>2301.05</ele>
        <time>2017-07-09T10:12:47Z</time>
      </trkpt>
      <trkpt lat="44.79801" lon="6.98999">
        <ele>2302.01</ele>
        <time>2017-07-09T10:12:49Z</time>
      </trkpt>
      <trkpt lat="44.79799" lon="6.99001">
        <ele>2302.49</ele>
        <time>2017-07-09T10:12:51Z</time>
      </trkpt>
      <trkpt lat="44.79798" lon="6.99008">
        <ele>2303.46</ele>
        <time>2017-07-09T10:13:05Z</time>
      </trkpt>
      <trkpt lat="44.79798" lon="6.99017">
        <ele>2305.38</ele>
        <time>2017-07-09T10:13:27Z</time>
      </trkpt>
      <trkpt lat="44.79798" lon="6.99021">
        <ele>2305.86</ele>
        <time>2017-07-09T10:13:30Z</time>
      </trkpt>
      <trkpt lat="44.79795" lon="6.99036">
        <ele>2307.78</ele>
        <time>2017-07-09T10:13:42Z</time>
      </trkpt>
      <trkpt lat="44.79795" lon="6.99039">
        <ele>2308.26</ele>
        <time>2017-07-09T10:13:45Z</time>
      </trkpt>
      <trkpt lat="44.79794" lon="6.99042">
        <ele>2309.22</ele>
        <time>2017-07-09T10:13:48Z</time>
      </trkpt>
      <trkpt lat="44.79791" lon="6.99054">
        <ele>2310.67</ele>
        <time>2017-07-09T10:13:59Z</time>
      </trkpt>
      <trkpt lat="44.7979" lon="6.99065">
        <ele>2312.59</ele>
        <time>2017-07-09T10:14:10Z</time>
      </trkpt>
      <trkpt lat="44.7979" lon="6.99076">
        <ele>2314.99</ele>
        <time>2017-07-09T10:14:20Z</time>
      </trkpt>
      <trkpt lat="44.79789" lon="6.9908">
        <ele>2314.99</ele>
        <time>2017-07-09T10:14:23Z</time>
      </trkpt>
      <trkpt lat="44.79789" lon="6.99085">
        <ele>2315.95</ele>
        <time>2017-07-09T10:14:27Z</time>
      </trkpt>
      <trkpt lat="44.79786" lon="6.99095">
        <ele>2316.91</ele>
        <time>2017-07-09T10:14:37Z</time>
      </trkpt>
      <trkpt lat="44.79784" lon="6.99105">
        <ele>2318.84</ele>
        <time>2017-07-09T10:14:47Z</time>
      </trkpt>
      <trkpt lat="44.79783" lon="6.9911">
        <ele>2319.8</ele>
        <time>2017-07-09T10:14:52Z</time>
      </trkpt>
      <trkpt lat="44.79782" lon="6.99115">
        <ele>2320.76</ele>
        <time>2017-07-09T10:14:56Z</time>
      </trkpt>
      <trkpt lat="44.79781" lon="6.99131">
        <ele>2321.72</ele>
        <time>2017-07-09T10:15:09Z</time>
      </trkpt>
      <trkpt lat="44.79781" lon="6.99132">
        <ele>2321.72</ele>
        <time>2017-07-09T10:15:11Z</time>
      </trkpt>
      <trkpt lat="44.79781" lon="6.99137">
        <ele>2322.2</ele>
        <time>2017-07-09T10:15:14Z</time>
      </trkpt>
      <trkpt lat="44.7978" lon="6.99142">
        <ele>2322.2</ele>
        <time>2017-07-09T10:15:17Z</time>
      </trkpt>
      <trkpt lat="44.79781" lon="6.9915">
        <ele>2323.16</ele>
        <time>2017-07-09T10:15:23Z</time>
      </trkpt>
      <trkpt lat="44.79785" lon="6.99154">
        <ele>2322.68</ele>
        <time>2017-07-09T10:15:27Z</time>
      </trkpt>
      <trkpt lat="44.79783" lon="6.99165">
        <ele>2321.72</ele>
        <time>2017-07-09T10:15:34Z</time>
      </trkpt>
      <trkpt lat="44.79781" lon="6.99172">
        <ele>2321.72</ele>
        <time>2017-07-09T10:15:44Z</time>
      </trkpt>
      <trkpt lat="44.79778" lon="6.9917">
        <ele>2322.68</ele>
        <time>2017-07-09T10:15:48Z</time>
      </trkpt>
      <trkpt lat="44.79773" lon="6.99171">
        <ele>2323.16</ele>
        <time>2017-07-09T10:15:52Z</time>
      </trkpt>
      <trkpt lat="44.79768" lon="6.99175">
        <ele>2322.68</ele>
        <time>2017-07-09T10:15:57Z</time>
      </trkpt>
      <trkpt lat="44.79761" lon="6.99182">
        <ele>2321.72</ele>
        <time>2017-07-09T10:16:06Z</time>
      </trkpt>
      <trkpt lat="44.79757" lon="6.99183">
        <ele>2322.68</ele>
        <time>2017-07-09T10:16:13Z</time>
      </trkpt>
      <trkpt lat="44.79754" lon="6.99183">
        <ele>2323.16</ele>
        <time>2017-07-09T10:16:17Z</time>
      </trkpt>
      <trkpt lat="44.79749" lon="6.99184">
        <ele>2324.12</ele>
        <time>2017-07-09T10:16:22Z</time>
      </trkpt>
      <trkpt lat="44.79746" lon="6.9919">
        <ele>2324.61</ele>
        <time>2017-07-09T10:16:27Z</time>
      </trkpt>
      <trkpt lat="44.79747" lon="6.99193">
        <ele>2325.09</ele>
        <time>2017-07-09T10:16:31Z</time>
      </trkpt>
      <trkpt lat="44.79749" lon="6.99196">
        <ele>2325.57</ele>
        <time>2017-07-09T10:16:34Z</time>
      </trkpt>
      <trkpt lat="44.7975" lon="6.992">
        <ele>2326.53</ele>
        <time>2017-07-09T10:16:38Z</time>
      </trkpt>
      <trkpt lat="44.79749" lon="6.99206">
        <ele>2327.49</ele>
        <time>2017-07-09T10:16:45Z</time>
      </trkpt>
      <trkpt lat="44.79744" lon="6.99218">
        <ele>2328.45</ele>
        <time>2017-07-09T10:16:55Z</time>
      </trkpt>
      <trkpt lat="44.79744" lon="6.99219">
        <ele>2328.45</ele>
        <time>2017-07-09T10:16:56Z</time>
      </trkpt>
      <trkpt lat="44.79743" lon="6.99225">
        <ele>2328.93</ele>
        <time>2017-07-09T10:17:01Z</time>
      </trkpt>
      <trkpt lat="44.7974" lon="6.99235">
        <ele>2330.85</ele>
        <time>2017-07-09T10:17:12Z</time>
      </trkpt>
      <trkpt lat="44.79735" lon="6.99243">
        <ele>2331.81</ele>
        <time>2017-07-09T10:17:21Z</time>
      </trkpt>
      <trkpt lat="44.79733" lon="6.99253">
        <ele>2333.26</ele>
        <time>2017-07-09T10:17:30Z</time>
      </trkpt>
      <trkpt lat="44.79733" lon="6.99257">
        <ele>2333.74</ele>
        <time>2017-07-09T10:17:33Z</time>
      </trkpt>
      <trkpt lat="44.79734" lon="6.99267">
        <ele>2335.66</ele>
        <time>2017-07-09T10:17:44Z</time>
      </trkpt>
      <trkpt lat="44.79731" lon="6.99278">
        <ele>2337.1</ele>
        <time>2017-07-09T10:17:55Z</time>
      </trkpt>
      <trkpt lat="44.7973" lon="6.99282">
        <ele>2337.58</ele>
        <time>2017-07-09T10:17:59Z</time>
      </trkpt>
      <trkpt lat="44.79732" lon="6.99289">
        <ele>2339.02</ele>
        <time>2017-07-09T10:18:06Z</time>
      </trkpt>
      <trkpt lat="44.79732" lon="6.99292">
        <ele>2339.51</ele>
        <time>2017-07-09T10:18:09Z</time>
      </trkpt>
      <trkpt lat="44.79729" lon="6.99303">
        <ele>2340.95</ele>
        <time>2017-07-09T10:18:20Z</time>
      </trkpt>
      <trkpt lat="44.79726" lon="6.99313">
        <ele>2341.91</ele>
        <time>2017-07-09T10:18:30Z</time>
      </trkpt>
      <trkpt lat="44.7972" lon="6.99324">
        <ele>2345.27</ele>
        <time>2017-07-09T10:18:41Z</time>
      </trkpt>
      <trkpt lat="44.79718" lon="6.99338">
        <ele>2347.2</ele>
        <time>2017-07-09T10:18:52Z</time>
      </trkpt>
      <trkpt lat="44.79718" lon="6.9934">
        <ele>2347.2</ele>
        <time>2017-07-09T10:18:53Z</time>
      </trkpt>
      <trkpt lat="44.79717" lon="6.99343">
        <ele>2347.68</ele>
        <time>2017-07-09T10:18:56Z</time>
      </trkpt>
      <trkpt lat="44.79718" lon="6.99354">
        <ele>2348.64</ele>
        <time>2017-07-09T10:19:05Z</time>
      </trkpt>
      <trkpt lat="44.79716" lon="6.99362">
        <ele>2349.6</ele>
        <time>2017-07-09T10:19:13Z</time>
      </trkpt>
      <trkpt lat="44.79716" lon="6.99366">
        <ele>2351.52</ele>
        <time>2017-07-09T10:19:16Z</time>
      </trkpt>
      <trkpt lat="44.79715" lon="6.99367">
        <ele>2351.04</ele>
        <time>2017-07-09T10:19:17Z</time>
      </trkpt>
      <trkpt lat="44.79714" lon="6.99379">
        <ele>2351.52</ele>
        <time>2017-07-09T10:19:28Z</time>
      </trkpt>
      <trkpt lat="44.79715" lon="6.99382">
        <ele>2352</ele>
        <time>2017-07-09T10:19:31Z</time>
      </trkpt>
      <trkpt lat="44.79716" lon="6.99384">
        <ele>2351.52</ele>
        <time>2017-07-09T10:19:33Z</time>
      </trkpt>
      <trkpt lat="44.79712" lon="6.99396">
        <ele>2352.96</ele>
        <time>2017-07-09T10:19:45Z</time>
      </trkpt>
      <trkpt lat="44.79712" lon="6.99398">
        <ele>2352.96</ele>
        <time>2017-07-09T10:19:47Z</time>
      </trkpt>
      <trkpt lat="44.7971" lon="6.99401">
        <ele>2352.96</ele>
        <time>2017-07-09T10:19:50Z</time>
      </trkpt>
      <trkpt lat="44.7971" lon="6.9941">
        <ele>2353.44</ele>
        <time>2017-07-09T10:20:01Z</time>
      </trkpt>
      <trkpt lat="44.7971" lon="6.99412">
        <ele>2353.93</ele>
        <time>2017-07-09T10:20:03Z</time>
      </trkpt>
      <trkpt lat="44.7971" lon="6.99423">
        <ele>2355.37</ele>
        <time>2017-07-09T10:20:14Z</time>
      </trkpt>
      <trkpt lat="44.79709" lon="6.99428">
        <ele>2356.33</ele>
        <time>2017-07-09T10:20:19Z</time>
      </trkpt>
      <trkpt lat="44.79706" lon="6.99437">
        <ele>2357.29</ele>
        <time>2017-07-09T10:20:28Z</time>
      </trkpt>
      <trkpt lat="44.79703" lon="6.99447">
        <ele>2358.73</ele>
        <time>2017-07-09T10:20:39Z</time>
      </trkpt>
      <trkpt lat="44.79703" lon="6.99451">
        <ele>2359.69</ele>
        <time>2017-07-09T10:20:43Z</time>
      </trkpt>
      <trkpt lat="44.79702" lon="6.99464">
        <ele>2361.62</ele>
        <time>2017-07-09T10:20:53Z</time>
      </trkpt>
      <trkpt lat="44.79702" lon="6.99466">
        <ele>2361.62</ele>
        <time>2017-07-09T10:20:56Z</time>
      </trkpt>
      <trkpt lat="44.79701" lon="6.99476">
        <ele>2363.06</ele>
        <time>2017-07-09T10:21:06Z</time>
      </trkpt>
      <trkpt lat="44.79697" lon="6.99489">
        <ele>2364.5</ele>
        <time>2017-07-09T10:21:17Z</time>
      </trkpt>
      <trkpt lat="44.79697" lon="6.99498">
        <ele>2365.46</ele>
        <time>2017-07-09T10:21:27Z</time>
      </trkpt>
      <trkpt lat="44.79696" lon="6.99507">
        <ele>2366.9</ele>
        <time>2017-07-09T10:21:36Z</time>
      </trkpt>
      <trkpt lat="44.79695" lon="6.99515">
        <ele>2368.35</ele>
        <time>2017-07-09T10:21:46Z</time>
      </trkpt>
      <trkpt lat="44.79697" lon="6.99519">
        <ele>2369.31</ele>
        <time>2017-07-09T10:21:52Z</time>
      </trkpt>
      <trkpt lat="44.79702" lon="6.99523">
        <ele>2370.75</ele>
        <time>2017-07-09T10:22:03Z</time>
      </trkpt>
      <trkpt lat="44.79706" lon="6.99526">
        <ele>2373.15</ele>
        <time>2017-07-09T10:22:13Z</time>
      </trkpt>
      <trkpt lat="44.79712" lon="6.99528">
        <ele>2374.59</ele>
        <time>2017-07-09T10:22:23Z</time>
      </trkpt>
      <trkpt lat="44.79715" lon="6.99531">
        <ele>2375.55</ele>
        <time>2017-07-09T10:22:30Z</time>
      </trkpt>
      <trkpt lat="44.79716" lon="6.99533">
        <ele>2377</ele>
        <time>2017-07-09T10:22:33Z</time>
      </trkpt>
      <trkpt lat="44.79713" lon="6.99536">
        <ele>2377.48</ele>
        <time>2017-07-09T10:22:39Z</time>
      </trkpt>
      <trkpt lat="44.79711" lon="6.99538">
        <ele>2377.96</ele>
        <time>2017-07-09T10:22:42Z</time>
      </trkpt>
      <trkpt lat="44.79713" lon="6.99545">
        <ele>2379.4</ele>
        <time>2017-07-09T10:22:52Z</time>
      </trkpt>
      <trkpt lat="44.79713" lon="6.99545">
        <ele>2378.92</ele>
        <time>2017-07-09T10:22:53Z</time>
      </trkpt>
      <trkpt lat="44.79711" lon="6.99549">
        <ele>2380.36</ele>
        <time>2017-07-09T10:23:01Z</time>
      </trkpt>
      <trkpt lat="44.79714" lon="6.99554">
        <ele>2381.8</ele>
        <time>2017-07-09T10:23:12Z</time>
      </trkpt>
      <trkpt lat="44.79717" lon="6.99555">
        <ele>2382.76</ele>
        <time>2017-07-09T10:23:16Z</time>
      </trkpt>
      <trkpt lat="44.79719" lon="6.99555">
        <ele>2383.25</ele>
        <time>2017-07-09T10:23:22Z</time>
      </trkpt>
      <trkpt lat="44.7972" lon="6.99561">
        <ele>2385.17</ele>
        <time>2017-07-09T10:23:32Z</time>
      </trkpt>
      <trkpt lat="44.79721" lon="6.99561">
        <ele>2385.17</ele>
        <time>2017-07-09T10:23:34Z</time>
      </trkpt>
      <trkpt lat="44.79723" lon="6.99567">
        <ele>2386.61</ele>
        <time>2017-07-09T10:23:44Z</time>
      </trkpt>
      <trkpt lat="44.7972" lon="6.99573">
        <ele>2388.05</ele>
        <time>2017-07-09T10:23:55Z</time>
      </trkpt>
      <trkpt lat="44.79723" lon="6.99577">
        <ele>2389.01</ele>
        <time>2017-07-09T10:24:00Z</time>
      </trkpt>
      <trkpt lat="44.79722" lon="6.99583">
        <ele>2390.94</ele>
        <time>2017-07-09T10:24:10Z</time>
      </trkpt>
      <trkpt lat="44.79719" lon="6.99586">
        <ele>2391.9</ele>
        <time>2017-07-09T10:24:15Z</time>
      </trkpt>
      <trkpt lat="44.79719" lon="6.9959">
        <ele>2392.86</ele>
        <time>2017-07-09T10:24:20Z</time>
      </trkpt>
      <trkpt lat="44.79723" lon="6.99592">
        <ele>2393.82</ele>
        <time>2017-07-09T10:24:25Z</time>
      </trkpt>
      <trkpt lat="44.79725" lon="6.99601">
        <ele>2395.26</ele>
        <time>2017-07-09T10:24:36Z</time>
      </trkpt>
      <trkpt lat="44.79724" lon="6.99608">
        <ele>2397.67</ele>
        <time>2017-07-09T10:24:45Z</time>
      </trkpt>
      <trkpt lat="44.79725" lon="6.99615">
        <ele>2398.63</ele>
        <time>2017-07-09T10:24:54Z</time>
      </trkpt>
      <trkpt lat="44.79723" lon="6.99621">
        <ele>2400.07</ele>
        <time>2017-07-09T10:25:05Z</time>
      </trkpt>
      <trkpt lat="44.79721" lon="6.99627">
        <ele>2401.03</ele>
        <time>2017-07-09T10:25:12Z</time>
      </trkpt>
      <trkpt lat="44.79716" lon="6.99633">
        <ele>2402.95</ele>
        <time>2017-07-09T10:25:19Z</time>
      </trkpt>
      <trkpt lat="44.79713" lon="6.99641">
        <ele>2403.91</ele>
        <time>2017-07-09T10:25:29Z</time>
      </trkpt>
      <trkpt lat="44.79713" lon="6.99643">
        <ele>2404.39</ele>
        <time>2017-07-09T10:25:34Z</time>
      </trkpt>
      <trkpt lat="44.79713" lon="6.99646">
        <ele>2404.88</ele>
        <time>2017-07-09T10:25:37Z</time>
      </trkpt>
      <trkpt lat="44.79713" lon="6.99656">
        <ele>2406.8</ele>
        <time>2017-07-09T10:25:48Z</time>
      </trkpt>
      <trkpt lat="44.79713" lon="6.99657">
        <ele>2406.8</ele>
        <time>2017-07-09T10:25:49Z</time>
      </trkpt>
      <trkpt lat="44.79711" lon="6.9966">
        <ele>2407.28</ele>
        <time>2017-07-09T10:25:53Z</time>
      </trkpt>
      <trkpt lat="44.79708" lon="6.99672">
        <ele>2408.72</ele>
        <time>2017-07-09T10:26:04Z</time>
      </trkpt>
      <trkpt lat="44.79703" lon="6.9968">
        <ele>2409.68</ele>
        <time>2017-07-09T10:26:12Z</time>
      </trkpt>
      <trkpt lat="44.797" lon="6.99692">
        <ele>2410.64</ele>
        <time>2017-07-09T10:26:20Z</time>
      </trkpt>
      <trkpt lat="44.79701" lon="6.99705">
        <ele>2411.6</ele>
        <time>2017-07-09T10:26:30Z</time>
      </trkpt>
      <trkpt lat="44.79701" lon="6.99715">
        <ele>2412.57</ele>
        <time>2017-07-09T10:26:40Z</time>
      </trkpt>
      <trkpt lat="44.797" lon="6.99728">
        <ele>2414.01</ele>
        <time>2017-07-09T10:26:50Z</time>
      </trkpt>
      <trkpt lat="44.79701" lon="6.99738">
        <ele>2415.45</ele>
        <time>2017-07-09T10:26:59Z</time>
      </trkpt>
      <trkpt lat="44.79702" lon="6.99751">
        <ele>2416.41</ele>
        <time>2017-07-09T10:27:10Z</time>
      </trkpt>
      <trkpt lat="44.79701" lon="6.99756">
        <ele>2416.89</ele>
        <time>2017-07-09T10:27:14Z</time>
      </trkpt>
      <trkpt lat="44.79702" lon="6.99761">
        <ele>2417.85</ele>
        <time>2017-07-09T10:27:18Z</time>
      </trkpt>
      <trkpt lat="44.79703" lon="6.9977">
        <ele>2418.33</ele>
        <time>2017-07-09T10:27:24Z</time>
      </trkpt>
      <trkpt lat="44.79706" lon="6.99783">
        <ele>2420.26</ele>
        <time>2017-07-09T10:27:36Z</time>
      </trkpt>
      <trkpt lat="44.79707" lon="6.9979">
        <ele>2420.74</ele>
        <time>2017-07-09T10:27:42Z</time>
      </trkpt>
      <trkpt lat="44.79702" lon="6.99797">
        <ele>2423.14</ele>
        <time>2017-07-09T10:27:53Z</time>
      </trkpt>
      <trkpt lat="44.79701" lon="6.99801">
        <ele>2423.62</ele>
        <time>2017-07-09T10:27:58Z</time>
      </trkpt>
      <trkpt lat="44.79699" lon="6.99805">
        <ele>2424.58</ele>
        <time>2017-07-09T10:28:02Z</time>
      </trkpt>
      <trkpt lat="44.79696" lon="6.99816">
        <ele>2425.54</ele>
        <time>2017-07-09T10:28:12Z</time>
      </trkpt>
      <trkpt lat="44.79697" lon="6.99823">
        <ele>2426.5</ele>
        <time>2017-07-09T10:28:20Z</time>
      </trkpt>
      <trkpt lat="44.79695" lon="6.99829">
        <ele>2426.99</ele>
        <time>2017-07-09T10:28:25Z</time>
      </trkpt>
      <trkpt lat="44.79695" lon="6.99834">
        <ele>2427.47</ele>
        <time>2017-07-09T10:28:30Z</time>
      </trkpt>
      <trkpt lat="44.79695" lon="6.99837">
        <ele>2427.95</ele>
        <time>2017-07-09T10:28:32Z</time>
      </trkpt>
      <trkpt lat="44.79696" lon="6.99848">
        <ele>2428.91</ele>
        <time>2017-07-09T10:28:43Z</time>
      </trkpt>
      <trkpt lat="44.79695" lon="6.99861">
        <ele>2430.35</ele>
        <time>2017-07-09T10:28:53Z</time>
      </trkpt>
      <trkpt lat="44.79694" lon="6.99865">
        <ele>2431.31</ele>
        <time>2017-07-09T10:28:59Z</time>
      </trkpt>
      <trkpt lat="44.79688" lon="6.99877">
        <ele>2432.75</ele>
        <time>2017-07-09T10:29:10Z</time>
      </trkpt>
      <trkpt lat="44.79687" lon="6.99879">
        <ele>2433.23</ele>
        <time>2017-07-09T10:29:12Z</time>
      </trkpt>
      <trkpt lat="44.79681" lon="6.99889">
        <ele>2434.68</ele>
        <time>2017-07-09T10:29:25Z</time>
      </trkpt>
      <trkpt lat="44.79676" lon="6.99896">
        <ele>2436.12</ele>
        <time>2017-07-09T10:29:33Z</time>
      </trkpt>
      <trkpt lat="44.79672" lon="6.99908">
        <ele>2438.04</ele>
        <time>2017-07-09T10:29:47Z</time>
      </trkpt>
      <trkpt lat="44.79667" lon="6.99918">
        <ele>2439</ele>
        <time>2017-07-09T10:29:55Z</time>
      </trkpt>
      <trkpt lat="44.79667" lon="6.99922">
        <ele>2439.48</ele>
        <time>2017-07-09T10:29:59Z</time>
      </trkpt>
      <trkpt lat="44.79665" lon="6.99929">
        <ele>2440.44</ele>
        <time>2017-07-09T10:30:04Z</time>
      </trkpt>
      <trkpt lat="44.79664" lon="6.99932">
        <ele>2440.92</ele>
        <time>2017-07-09T10:30:06Z</time>
      </trkpt>
      <trkpt lat="44.79664" lon="6.99935">
        <ele>2441.41</ele>
        <time>2017-07-09T10:30:10Z</time>
      </trkpt>
      <trkpt lat="44.79659" lon="6.99948">
        <ele>2442.37</ele>
        <time>2017-07-09T10:30:22Z</time>
      </trkpt>
      <trkpt lat="44.79659" lon="6.9995">
        <ele>2443.33</ele>
        <time>2017-07-09T10:30:25Z</time>
      </trkpt>
      <trkpt lat="44.79659" lon="6.99954">
        <ele>2443.81</ele>
        <time>2017-07-09T10:30:28Z</time>
      </trkpt>
      <trkpt lat="44.79656" lon="6.99963">
        <ele>2443.81</ele>
        <time>2017-07-09T10:30:39Z</time>
      </trkpt>
      <trkpt lat="44.79652" lon="6.99967">
        <ele>2443.81</ele>
        <time>2017-07-09T10:30:43Z</time>
      </trkpt>
      <trkpt lat="44.7964" lon="6.99977">
        <ele>2445.73</ele>
        <time>2017-07-09T10:30:57Z</time>
      </trkpt>
      <trkpt lat="44.79635" lon="6.99986">
        <ele>2446.69</ele>
        <time>2017-07-09T10:31:07Z</time>
      </trkpt>
      <trkpt lat="44.79631" lon="6.99998">
        <ele>2447.65</ele>
        <time>2017-07-09T10:31:17Z</time>
      </trkpt>
      <trkpt lat="44.79627" lon="7.00003">
        <ele>2447.65</ele>
        <time>2017-07-09T10:31:21Z</time>
      </trkpt>
      <trkpt lat="44.79622" lon="7.00013">
        <ele>2450.06</ele>
        <time>2017-07-09T10:31:35Z</time>
      </trkpt>
      <trkpt lat="44.79618" lon="7.00025">
        <ele>2451.5</ele>
        <time>2017-07-09T10:31:46Z</time>
      </trkpt>
      <trkpt lat="44.79609" lon="7.00033">
        <ele>2451.98</ele>
        <time>2017-07-09T10:31:58Z</time>
      </trkpt>
      <trkpt lat="44.79608" lon="7.00039">
        <ele>2452.94</ele>
        <time>2017-07-09T10:32:02Z</time>
      </trkpt>
      <trkpt lat="44.79606" lon="7.00047">
        <ele>2452.94</ele>
        <time>2017-07-09T10:32:10Z</time>
      </trkpt>
      <trkpt lat="44.79607" lon="7.00052">
        <ele>2453.9</ele>
        <time>2017-07-09T10:32:14Z</time>
      </trkpt>
      <trkpt lat="44.79606" lon="7.00059">
        <ele>2454.38</ele>
        <time>2017-07-09T10:32:20Z</time>
      </trkpt>
      <trkpt lat="44.796" lon="7.00069">
        <ele>2455.82</ele>
        <time>2017-07-09T10:32:30Z</time>
      </trkpt>
      <trkpt lat="44.79596" lon="7.00074">
        <ele>2456.31</ele>
        <time>2017-07-09T10:32:36Z</time>
      </trkpt>
      <trkpt lat="44.7959" lon="7.0008">
        <ele>2456.79</ele>
        <time>2017-07-09T10:32:42Z</time>
      </trkpt>
      <trkpt lat="44.79587" lon="7.00085">
        <ele>2456.79</ele>
        <time>2017-07-09T10:32:46Z</time>
      </trkpt>
      <trkpt lat="44.79584" lon="7.00087">
        <ele>2457.27</ele>
        <time>2017-07-09T10:32:50Z</time>
      </trkpt>
      <trkpt lat="44.79582" lon="7.00093">
        <ele>2457.27</ele>
        <time>2017-07-09T10:32:54Z</time>
      </trkpt>
      <trkpt lat="44.7958" lon="7.00102">
        <ele>2458.71</ele>
        <time>2017-07-09T10:33:06Z</time>
      </trkpt>
      <trkpt lat="44.79578" lon="7.00114">
        <ele>2460.15</ele>
        <time>2017-07-09T10:33:17Z</time>
      </trkpt>
      <trkpt lat="44.79577" lon="7.00115">
        <ele>2460.63</ele>
        <time>2017-07-09T10:33:18Z</time>
      </trkpt>
      <trkpt lat="44.79567" lon="7.00119">
        <ele>2462.55</ele>
        <time>2017-07-09T10:33:31Z</time>
      </trkpt>
      <trkpt lat="44.79563" lon="7.00117">
        <ele>2463.04</ele>
        <time>2017-07-09T10:33:37Z</time>
      </trkpt>
      <trkpt lat="44.79561" lon="7.00115">
        <ele>2463.52</ele>
        <time>2017-07-09T10:33:41Z</time>
      </trkpt>
      <trkpt lat="44.79552" lon="7.00119">
        <ele>2465.92</ele>
        <time>2017-07-09T10:33:56Z</time>
      </trkpt>
      <trkpt lat="44.7955" lon="7.00121">
        <ele>2466.88</ele>
        <time>2017-07-09T10:34:01Z</time>
      </trkpt>
      <trkpt lat="44.79549" lon="7.00126">
        <ele>2467.36</ele>
        <time>2017-07-09T10:34:06Z</time>
      </trkpt>
      <trkpt lat="44.79551" lon="7.00135">
        <ele>2469.28</ele>
        <time>2017-07-09T10:34:18Z</time>
      </trkpt>
      <trkpt lat="44.79555" lon="7.00145">
        <ele>2471.21</ele>
        <time>2017-07-09T10:34:29Z</time>
      </trkpt>
      <trkpt lat="44.79555" lon="7.00152">
        <ele>2473.61</ele>
        <time>2017-07-09T10:34:39Z</time>
      </trkpt>
      <trkpt lat="44.79554" lon="7.00155">
        <ele>2473.61</ele>
        <time>2017-07-09T10:34:42Z</time>
      </trkpt>
      <trkpt lat="44.79553" lon="7.00163">
        <ele>2475.05</ele>
        <time>2017-07-09T10:34:54Z</time>
      </trkpt>
      <trkpt lat="44.7955" lon="7.00165">
        <ele>2476.01</ele>
        <time>2017-07-09T10:34:59Z</time>
      </trkpt>
      <trkpt lat="44.79546" lon="7.00168">
        <ele>2477.94</ele>
        <time>2017-07-09T10:35:10Z</time>
      </trkpt>
      <trkpt lat="44.79539" lon="7.00177">
        <ele>2479.38</ele>
        <time>2017-07-09T10:35:24Z</time>
      </trkpt>
      <trkpt lat="44.79535" lon="7.00185">
        <ele>2481.3</ele>
        <time>2017-07-09T10:35:36Z</time>
      </trkpt>
      <trkpt lat="44.79534" lon="7.00194">
        <ele>2482.74</ele>
        <time>2017-07-09T10:35:45Z</time>
      </trkpt>
      <trkpt lat="44.79532" lon="7.00197">
        <ele>2483.7</ele>
        <time>2017-07-09T10:35:50Z</time>
      </trkpt>
      <trkpt lat="44.79526" lon="7.00202">
        <ele>2485.63</ele>
        <time>2017-07-09T10:35:59Z</time>
      </trkpt>
      <trkpt lat="44.79524" lon="7.00207">
        <ele>2486.59</ele>
        <time>2017-07-09T10:36:04Z</time>
      </trkpt>
      <trkpt lat="44.79521" lon="7.00215">
        <ele>2488.51</ele>
        <time>2017-07-09T10:36:15Z</time>
      </trkpt>
      <trkpt lat="44.79519" lon="7.00219">
        <ele>2489.95</ele>
        <time>2017-07-09T10:36:25Z</time>
      </trkpt>
      <trkpt lat="44.79515" lon="7.00225">
        <ele>2490.91</ele>
        <time>2017-07-09T10:36:37Z</time>
      </trkpt>
      <trkpt lat="44.79509" lon="7.00232">
        <ele>2493.32</ele>
        <time>2017-07-09T10:36:49Z</time>
      </trkpt>
      <trkpt lat="44.79508" lon="7.00234">
        <ele>2493.8</ele>
        <time>2017-07-09T10:36:51Z</time>
      </trkpt>
      <trkpt lat="44.79506" lon="7.00237">
        <ele>2494.28</ele>
        <time>2017-07-09T10:36:55Z</time>
      </trkpt>
      <trkpt lat="44.79504" lon="7.0024">
        <ele>2494.76</ele>
        <time>2017-07-09T10:36:57Z</time>
      </trkpt>
      <trkpt lat="44.79501" lon="7.00248">
        <ele>2496.2</ele>
        <time>2017-07-09T10:37:07Z</time>
      </trkpt>
      <trkpt lat="44.79494" lon="7.00252">
        <ele>2497.64</ele>
        <time>2017-07-09T10:37:15Z</time>
      </trkpt>
      <trkpt lat="44.79488" lon="7.00257">
        <ele>2499.08</ele>
        <time>2017-07-09T10:37:28Z</time>
      </trkpt>
      <trkpt lat="44.79487" lon="7.00254">
        <ele>2500.05</ele>
        <time>2017-07-09T10:37:43Z</time>
      </trkpt>
      <trkpt lat="44.79489" lon="7.00252">
        <ele>2499.57</ele>
        <time>2017-07-09T10:38:01Z</time>
      </trkpt>
      <trkpt lat="44.79489" lon="7.00248">
        <ele>2500.05</ele>
        <time>2017-07-09T10:38:29Z</time>
      </trkpt>
      <trkpt lat="44.79488" lon="7.0025">
        <ele>2500.05</ele>
        <time>2017-07-09T10:38:46Z</time>
      </trkpt>
      <trkpt lat="44.79485" lon="7.00251">
        <ele>2501.49</ele>
        <time>2017-07-09T10:38:49Z</time>
      </trkpt>
      <trkpt lat="44.79484" lon="7.00258">
        <ele>2501.97</ele>
        <time>2017-07-09T10:38:56Z</time>
      </trkpt>
      <trkpt lat="44.79485" lon="7.00265">
        <ele>2502.45</ele>
        <time>2017-07-09T10:39:02Z</time>
      </trkpt>
      <trkpt lat="44.79478" lon="7.00275">
        <ele>2503.89</ele>
        <time>2017-07-09T10:39:14Z</time>
      </trkpt>
      <trkpt lat="44.7947" lon="7.00287">
        <ele>2506.29</ele>
        <time>2017-07-09T10:39:27Z</time>
      </trkpt>
      <trkpt lat="44.79461" lon="7.00296">
        <ele>2507.26</ele>
        <time>2017-07-09T10:39:37Z</time>
      </trkpt>
      <trkpt lat="44.79458" lon="7.00301">
        <ele>2508.22</ele>
        <time>2017-07-09T10:39:42Z</time>
      </trkpt>
      <trkpt lat="44.79458" lon="7.00306">
        <ele>2509.18</ele>
        <time>2017-07-09T10:39:49Z</time>
      </trkpt>
      <trkpt lat="44.79456" lon="7.00316">
        <ele>2510.62</ele>
        <time>2017-07-09T10:39:58Z</time>
      </trkpt>
      <trkpt lat="44.79458" lon="7.00325">
        <ele>2512.06</ele>
        <time>2017-07-09T10:40:08Z</time>
      </trkpt>
      <trkpt lat="44.79454" lon="7.00331">
        <ele>2513.02</ele>
        <time>2017-07-09T10:40:14Z</time>
      </trkpt>
      <trkpt lat="44.7945" lon="7.00336">
        <ele>2513.02</ele>
        <time>2017-07-09T10:40:18Z</time>
      </trkpt>
      <trkpt lat="44.79439" lon="7.0034">
        <ele>2513.02</ele>
        <time>2017-07-09T10:40:24Z</time>
      </trkpt>
      <trkpt lat="44.79431" lon="7.00345">
        <ele>2513.5</ele>
        <time>2017-07-09T10:40:33Z</time>
      </trkpt>
      <trkpt lat="44.79432" lon="7.00356">
        <ele>2514.95</ele>
        <time>2017-07-09T10:40:42Z</time>
      </trkpt>
      <trkpt lat="44.79432" lon="7.00358">
        <ele>2515.43</ele>
        <time>2017-07-09T10:40:44Z</time>
      </trkpt>
      <trkpt lat="44.7943" lon="7.00359">
        <ele>2515.43</ele>
        <time>2017-07-09T10:40:46Z</time>
      </trkpt>
      <trkpt lat="44.79424" lon="7.00363">
        <ele>2516.87</ele>
        <time>2017-07-09T10:40:52Z</time>
      </trkpt>
      <trkpt lat="44.79421" lon="7.00368">
        <ele>2516.87</ele>
        <time>2017-07-09T10:40:57Z</time>
      </trkpt>
      <trkpt lat="44.79429" lon="7.00387">
        <ele>2517.35</ele>
        <time>2017-07-09T10:41:07Z</time>
      </trkpt>
      <trkpt lat="44.79429" lon="7.0039">
        <ele>2517.83</ele>
        <time>2017-07-09T10:41:10Z</time>
      </trkpt>
      <trkpt lat="44.79423" lon="7.00396">
        <ele>2517.83</ele>
        <time>2017-07-09T10:41:22Z</time>
      </trkpt>
      <trkpt lat="44.79422" lon="7.00399">
        <ele>2517.35</ele>
        <time>2017-07-09T10:41:25Z</time>
      </trkpt>
      <trkpt lat="44.79421" lon="7.00405">
        <ele>2517.35</ele>
        <time>2017-07-09T10:41:30Z</time>
      </trkpt>
      <trkpt lat="44.79418" lon="7.00408">
        <ele>2518.31</ele>
        <time>2017-07-09T10:41:34Z</time>
      </trkpt>
      <trkpt lat="44.79416" lon="7.0041">
        <ele>2518.31</ele>
        <time>2017-07-09T10:41:37Z</time>
      </trkpt>
      <trkpt lat="44.79413" lon="7.00415">
        <ele>2519.27</ele>
        <time>2017-07-09T10:41:42Z</time>
      </trkpt>
      <trkpt lat="44.79411" lon="7.00423">
        <ele>2518.79</ele>
        <time>2017-07-09T10:41:53Z</time>
      </trkpt>
      <trkpt lat="44.79415" lon="7.00426">
        <ele>2518.79</ele>
        <time>2017-07-09T10:42:09Z</time>
      </trkpt>
      <trkpt lat="44.79411" lon="7.00424">
        <ele>2519.27</ele>
        <time>2017-07-09T10:42:22Z</time>
      </trkpt>
      <trkpt lat="44.79411" lon="7.00425">
        <ele>2519.27</ele>
        <time>2017-07-09T10:42:29Z</time>
      </trkpt>
      <trkpt lat="44.7941" lon="7.00428">
        <ele>2520.23</ele>
        <time>2017-07-09T10:42:39Z</time>
      </trkpt>
      <trkpt lat="44.79406" lon="7.00423">
        <ele>2520.23</ele>
        <time>2017-07-09T10:42:54Z</time>
      </trkpt>
      <trkpt lat="44.79407" lon="7.00424">
        <ele>2519.27</ele>
        <time>2017-07-09T10:43:06Z</time>
      </trkpt>
      <trkpt lat="44.79407" lon="7.00424">
        <ele>2522.64</ele>
        <time>2017-07-09T10:43:07Z</time>
      </trkpt>
      <trkpt lat="44.79407" lon="7.00424">
        <ele>2519.27</ele>
        <time>2017-07-09T10:43:08Z</time>
      </trkpt>
      <trkpt lat="44.79407" lon="7.00424">
        <ele>2522.64</ele>
        <time>2017-07-09T10:43:09Z</time>
      </trkpt>
      <trkpt lat="44.79407" lon="7.00424">
        <ele>2520.23</ele>
        <time>2017-07-09T10:43:12Z</time>
      </trkpt>
      <trkpt lat="44.79411" lon="7.0042">
        <ele>2521.19</ele>
        <time>2017-07-09T10:43:25Z</time>
      </trkpt>
      <trkpt lat="44.79412" lon="7.0042">
        <ele>2521.19</ele>
        <time>2017-07-09T10:43:54Z</time>
      </trkpt>
      <trkpt lat="44.79411" lon="7.00422">
        <ele>2520.71</ele>
        <time>2017-07-09T10:44:11Z</time>
      </trkpt>
      <trkpt lat="44.7941" lon="7.00422">
        <ele>2520.71</ele>
        <time>2017-07-09T10:44:14Z</time>
      </trkpt>
      <trkpt lat="44.79409" lon="7.00422">
        <ele>2520.71</ele>
        <time>2017-07-09T10:44:16Z</time>
      </trkpt>
      <trkpt lat="44.79407" lon="7.00421">
        <ele>2520.23</ele>
        <time>2017-07-09T10:44:29Z</time>
      </trkpt>
      <trkpt lat="44.79407" lon="7.00422">
        <ele>2519.75</ele>
        <time>2017-07-09T10:44:53Z</time>
      </trkpt>
      <trkpt lat="44.79407" lon="7.00422">
        <ele>2520.23</ele>
        <time>2017-07-09T10:45:18Z</time>
      </trkpt>
      <trkpt lat="44.79407" lon="7.00421">
        <ele>2520.71</ele>
        <time>2017-07-09T10:45:45Z</time>
      </trkpt>
      <trkpt lat="44.79407" lon="7.0042">
        <ele>2520.71</ele>
        <time>2017-07-09T10:46:11Z</time>
      </trkpt>
      <trkpt lat="44.79407" lon="7.0042">
        <ele>2521.19</ele>
        <time>2017-07-09T10:46:40Z</time>
      </trkpt>
      <trkpt lat="44.79407" lon="7.0042">
        <ele>2521.19</ele>
        <time>2017-07-09T10:47:05Z</time>
      </trkpt>
      <trkpt lat="44.79407" lon="7.0042">
        <ele>2520.71</ele>
        <time>2017-07-09T10:47:28Z</time>
      </trkpt>
      <trkpt lat="44.79408" lon="7.0042">
        <ele>2520.71</ele>
        <time>2017-07-09T10:47:50Z</time>
      </trkpt>
      <trkpt lat="44.79408" lon="7.00419">
        <ele>2520.71</ele>
        <time>2017-07-09T10:48:07Z</time>
      </trkpt>
      <trkpt lat="44.79407" lon="7.00418">
        <ele>2520.71</ele>
        <time>2017-07-09T10:48:29Z</time>
      </trkpt>
      <trkpt lat="44.79407" lon="7.00418">
        <ele>2520.71</ele>
        <time>2017-07-09T10:48:30Z</time>
      </trkpt>
      <trkpt lat="44.79407" lon="7.00417">
        <ele>2520.71</ele>
        <time>2017-07-09T10:48:42Z</time>
      </trkpt>
      <trkpt lat="44.79407" lon="7.00417">
        <ele>2521.19</ele>
        <time>2017-07-09T10:48:56Z</time>
      </trkpt>
      <trkpt lat="44.79406" lon="7.00416">
        <ele>2521.68</ele>
        <time>2017-07-09T10:49:24Z</time>
      </trkpt>
      <trkpt lat="44.79406" lon="7.00417">
        <ele>2522.64</ele>
        <time>2017-07-09T10:49:51Z</time>
      </trkpt>
      <trkpt lat="44.79406" lon="7.00417">
        <ele>2523.12</ele>
        <time>2017-07-09T10:50:19Z</time>
      </trkpt>
      <trkpt lat="44.79406" lon="7.00417">
        <ele>2523.12</ele>
        <time>2017-07-09T10:50:44Z</time>
      </trkpt>
      <trkpt lat="44.79406" lon="7.00417">
        <ele>2522.64</ele>
        <time>2017-07-09T10:51:14Z</time>
      </trkpt>
      <trkpt lat="44.79406" lon="7.00418">
        <ele>2522.16</ele>
        <time>2017-07-09T10:51:40Z</time>
      </trkpt>
      <trkpt lat="44.79406" lon="7.00417">
        <ele>2522.16</ele>
        <time>2017-07-09T10:52:11Z</time>
      </trkpt>
      <trkpt lat="44.79406" lon="7.00418">
        <ele>2522.16</ele>
        <time>2017-07-09T10:52:40Z</time>
      </trkpt>
      <trkpt lat="44.79406" lon="7.00418">
        <ele>2522.16</ele>
        <time>2017-07-09T10:53:13Z</time>
      </trkpt>
      <trkpt lat="44.79406" lon="7.00418">
        <ele>2522.64</ele>
        <time>2017-07-09T10:53:46Z</time>
      </trkpt>
      <trkpt lat="44.79406" lon="7.00418">
        <ele>2523.12</ele>
        <time>2017-07-09T10:54:17Z</time>
      </trkpt>
      <trkpt lat="44.79407" lon="7.00418">
        <ele>2523.6</ele>
        <time>2017-07-09T10:54:51Z</time>
      </trkpt>
      <trkpt lat="44.79407" lon="7.00418">
        <ele>2524.08</ele>
        <time>2017-07-09T10:55:23Z</time>
      </trkpt>
      <trkpt lat="44.79407" lon="7.00418">
        <ele>2524.08</ele>
        <time>2017-07-09T10:55:52Z</time>
      </trkpt>
      <trkpt lat="44.79407" lon="7.00418">
        <ele>2523.6</ele>
        <time>2017-07-09T10:56:21Z</time>
      </trkpt>
      <trkpt lat="44.79406" lon="7.00418">
        <ele>2523.6</ele>
        <time>2017-07-09T10:56:52Z</time>
      </trkpt>
      <trkpt lat="44.79406" lon="7.00418">
        <ele>2523.6</ele>
        <time>2017-07-09T10:57:21Z</time>
      </trkpt>
      <trkpt lat="44.79406" lon="7.00419">
        <ele>2523.12</ele>
        <time>2017-07-09T10:57:47Z</time>
      </trkpt>
      <trkpt lat="44.79406" lon="7.00419">
        <ele>2523.12</ele>
        <time>2017-07-09T10:58:15Z</time>
      </trkpt>
      <trkpt lat="44.79406" lon="7.00419">
        <ele>2523.6</ele>
        <time>2017-07-09T10:58:46Z</time>
      </trkpt>
      <trkpt lat="44.79406" lon="7.00419">
        <ele>2523.6</ele>
        <time>2017-07-09T10:59:18Z</time>
      </trkpt>
      <trkpt lat="44.79406" lon="7.00419">
        <ele>2524.08</ele>
        <time>2017-07-09T10:59:43Z</time>
      </trkpt>
      <trkpt lat="44.79406" lon="7.00419">
        <ele>2524.56</ele>
        <time>2017-07-09T11:00:11Z</time>
      </trkpt>
      <trkpt lat="44.79406" lon="7.00418">
        <ele>2524.56</ele>
        <time>2017-07-09T11:00:38Z</time>
      </trkpt>
      <trkpt lat="44.79407" lon="7.00418">
        <ele>2525.04</ele>
        <time>2017-07-09T11:01:06Z</time>
      </trkpt>
      <trkpt lat="44.79407" lon="7.00418">
        <ele>2525.04</ele>
        <time>2017-07-09T11:01:36Z</time>
      </trkpt>
      <trkpt lat="44.79408" lon="7.00417">
        <ele>2525.52</ele>
        <time>2017-07-09T11:02:02Z</time>
      </trkpt>
      <trkpt lat="44.79409" lon="7.00417">
        <ele>2525.52</ele>
        <time>2017-07-09T11:02:30Z</time>
      </trkpt>
      <trkpt lat="44.79409" lon="7.00418">
        <ele>2525.52</ele>
        <time>2017-07-09T11:02:54Z</time>
      </trkpt>
      <trkpt lat="44.7941" lon="7.00418">
        <ele>2525.52</ele>
        <time>2017-07-09T11:03:19Z</time>
      </trkpt>
      <trkpt lat="44.7941" lon="7.00418">
        <ele>2526</ele>
        <time>2017-07-09T11:03:49Z</time>
      </trkpt>
      <trkpt lat="44.79409" lon="7.00419">
        <ele>2526.96</ele>
        <time>2017-07-09T11:04:19Z</time>
      </trkpt>
      <trkpt lat="44.79409" lon="7.00418">
        <ele>2526.96</ele>
        <time>2017-07-09T11:04:51Z</time>
      </trkpt>
      <trkpt lat="44.79409" lon="7.00418">
        <ele>2527.44</ele>
        <time>2017-07-09T11:05:06Z</time>
      </trkpt>
      <trkpt lat="44.79409" lon="7.00418">
        <ele>2526.96</ele>
        <time>2017-07-09T11:05:22Z</time>
      </trkpt>
      <trkpt lat="44.79408" lon="7.0042">
        <ele>2527.44</ele>
        <time>2017-07-09T11:05:34Z</time>
      </trkpt>
      <trkpt lat="44.79407" lon="7.00421">
        <ele>2527.44</ele>
        <time>2017-07-09T11:05:52Z</time>
      </trkpt>
      <trkpt lat="44.79407" lon="7.00421">
        <ele>2526</ele>
        <time>2017-07-09T11:06:12Z</time>
      </trkpt>
      <trkpt lat="44.79407" lon="7.00421">
        <ele>2526</ele>
        <time>2017-07-09T11:06:20Z</time>
      </trkpt>
      <trkpt lat="44.79405" lon="7.00422">
        <ele>2526.96</ele>
        <time>2017-07-09T11:06:22Z</time>
      </trkpt>
      <trkpt lat="44.794" lon="7.00424">
        <ele>2524.08</ele>
        <time>2017-07-09T11:06:31Z</time>
      </trkpt>
      <trkpt lat="44.79399" lon="7.00425">
        <ele>2523.6</ele>
        <time>2017-07-09T11:06:57Z</time>
      </trkpt>
      <trkpt lat="44.79399" lon="7.00424">
        <ele>2524.08</ele>
        <time>2017-07-09T11:07:29Z</time>
      </trkpt>
      <trkpt lat="44.79399" lon="7.00424">
        <ele>2526</ele>
        <time>2017-07-09T11:07:32Z</time>
      </trkpt>
      <trkpt lat="44.794" lon="7.00423">
        <ele>2526</ele>
        <time>2017-07-09T11:07:33Z</time>
      </trkpt>
      <trkpt lat="44.79402" lon="7.00421">
        <ele>2526</ele>
        <time>2017-07-09T11:07:35Z</time>
      </trkpt>
      <trkpt lat="44.79406" lon="7.0042">
        <ele>2525.52</ele>
        <time>2017-07-09T11:07:47Z</time>
      </trkpt>
      <trkpt lat="44.79406" lon="7.0042">
        <ele>2526.48</ele>
        <time>2017-07-09T11:07:49Z</time>
      </trkpt>
      <trkpt lat="44.79408" lon="7.00421">
        <ele>2526.48</ele>
        <time>2017-07-09T11:08:12Z</time>
      </trkpt>
      <trkpt lat="44.79407" lon="7.00422">
        <ele>2526.96</ele>
        <time>2017-07-09T11:08:32Z</time>
      </trkpt>
      <trkpt lat="44.79408" lon="7.00421">
        <ele>2526.96</ele>
        <time>2017-07-09T11:08:55Z</time>
      </trkpt>
      <trkpt lat="44.79407" lon="7.0042">
        <ele>2526.96</ele>
        <time>2017-07-09T11:09:17Z</time>
      </trkpt>
      <trkpt lat="44.79407" lon="7.0042">
        <ele>2527.44</ele>
        <time>2017-07-09T11:09:38Z</time>
      </trkpt>
      <trkpt lat="44.79407" lon="7.00419">
        <ele>2527.92</ele>
        <time>2017-07-09T11:10:02Z</time>
      </trkpt>
      <trkpt lat="44.79407" lon="7.0042">
        <ele>2526.48</ele>
        <time>2017-07-09T11:10:16Z</time>
      </trkpt>
      <trkpt lat="44.79406" lon="7.0042">
        <ele>2527.92</ele>
        <time>2017-07-09T11:10:36Z</time>
      </trkpt>
      <trkpt lat="44.79408" lon="7.00422">
        <ele>2528.4</ele>
        <time>2017-07-09T11:10:58Z</time>
      </trkpt>
      <trkpt lat="44.79408" lon="7.00423">
        <ele>2528.89</ele>
        <time>2017-07-09T11:10:59Z</time>
      </trkpt>
      <trkpt lat="44.79406" lon="7.00428">
        <ele>2528.89</ele>
        <time>2017-07-09T11:11:03Z</time>
      </trkpt>
      <trkpt lat="44.79404" lon="7.00437">
        <ele>2528.89</ele>
        <time>2017-07-09T11:11:10Z</time>
      </trkpt>
      <trkpt lat="44.79403" lon="7.00449">
        <ele>2525.52</ele>
        <time>2017-07-09T11:11:17Z</time>
      </trkpt>
      <trkpt lat="44.79402" lon="7.00453">
        <ele>2525.04</ele>
        <time>2017-07-09T11:11:20Z</time>
      </trkpt>
      <trkpt lat="44.79402" lon="7.0046">
        <ele>2524.08</ele>
        <time>2017-07-09T11:11:25Z</time>
      </trkpt>
      <trkpt lat="44.79397" lon="7.00475">
        <ele>2522.16</ele>
        <time>2017-07-09T11:11:35Z</time>
      </trkpt>
      <trkpt lat="44.79395" lon="7.00485">
        <ele>2520.23</ele>
        <time>2017-07-09T11:11:42Z</time>
      </trkpt>
      <trkpt lat="44.79388" lon="7.00494">
        <ele>2516.87</ele>
        <time>2017-07-09T11:11:54Z</time>
      </trkpt>
      <trkpt lat="44.79386" lon="7.00494">
        <ele>2515.91</ele>
        <time>2017-07-09T11:11:57Z</time>
      </trkpt>
      <trkpt lat="44.79386" lon="7.00496">
        <ele>2515.91</ele>
        <time>2017-07-09T11:11:59Z</time>
      </trkpt>
      <trkpt lat="44.79383" lon="7.00503">
        <ele>2513.98</ele>
        <time>2017-07-09T11:12:04Z</time>
      </trkpt>
      <trkpt lat="44.79382" lon="7.00505">
        <ele>2512.54</ele>
        <time>2017-07-09T11:12:07Z</time>
      </trkpt>
      <trkpt lat="44.79377" lon="7.00514">
        <ele>2510.14</ele>
        <time>2017-07-09T11:12:17Z</time>
      </trkpt>
      <trkpt lat="44.79375" lon="7.00518">
        <ele>2509.66</ele>
        <time>2017-07-09T11:12:22Z</time>
      </trkpt>
      <trkpt lat="44.79371" lon="7.00526">
        <ele>2508.22</ele>
        <time>2017-07-09T11:12:31Z</time>
      </trkpt>
      <trkpt lat="44.79371" lon="7.00534">
        <ele>2504.85</ele>
        <time>2017-07-09T11:12:39Z</time>
      </trkpt>
      <trkpt lat="44.7937" lon="7.00539">
        <ele>2502.93</ele>
        <time>2017-07-09T11:12:44Z</time>
      </trkpt>
      <trkpt lat="44.79368" lon="7.00541">
        <ele>2502.45</ele>
        <time>2017-07-09T11:12:47Z</time>
      </trkpt>
      <trkpt lat="44.79366" lon="7.00543">
        <ele>2501.97</ele>
        <time>2017-07-09T11:12:54Z</time>
      </trkpt>
      <trkpt lat="44.79365" lon="7.00545">
        <ele>2501.97</ele>
        <time>2017-07-09T11:12:56Z</time>
      </trkpt>
      <trkpt lat="44.79365" lon="7.00549">
        <ele>2501.49</ele>
        <time>2017-07-09T11:13:09Z</time>
      </trkpt>
      <trkpt lat="44.79366" lon="7.00559">
        <ele>2497.64</ele>
        <time>2017-07-09T11:13:17Z</time>
      </trkpt>
      <trkpt lat="44.79367" lon="7.00562">
        <ele>2497.16</ele>
        <time>2017-07-09T11:13:20Z</time>
      </trkpt>
      <trkpt lat="44.79365" lon="7.00565">
        <ele>2496.2</ele>
        <time>2017-07-09T11:13:22Z</time>
      </trkpt>
      <trkpt lat="44.79363" lon="7.00577">
        <ele>2495.72</ele>
        <time>2017-07-09T11:13:30Z</time>
      </trkpt>
      <trkpt lat="44.79364" lon="7.00579">
        <ele>2493.32</ele>
        <time>2017-07-09T11:13:35Z</time>
      </trkpt>
      <trkpt lat="44.79364" lon="7.00579">
        <ele>2492.84</ele>
        <time>2017-07-09T11:13:36Z</time>
      </trkpt>
      <trkpt lat="44.79358" lon="7.00575">
        <ele>2492.84</ele>
        <time>2017-07-09T11:13:43Z</time>
      </trkpt>
      <trkpt lat="44.79357" lon="7.00582">
        <ele>2489.95</ele>
        <time>2017-07-09T11:13:51Z</time>
      </trkpt>
      <trkpt lat="44.79357" lon="7.00586">
        <ele>2488.99</ele>
        <time>2017-07-09T11:13:55Z</time>
      </trkpt>
      <trkpt lat="44.79358" lon="7.00596">
        <ele>2488.03</ele>
        <time>2017-07-09T11:14:02Z</time>
      </trkpt>
      <trkpt lat="44.79358" lon="7.00599">
        <ele>2487.55</ele>
        <time>2017-07-09T11:14:04Z</time>
      </trkpt>
      <trkpt lat="44.79357" lon="7.0061">
        <ele>2486.59</ele>
        <time>2017-07-09T11:14:11Z</time>
      </trkpt>
      <trkpt lat="44.79356" lon="7.00613">
        <ele>2486.59</ele>
        <time>2017-07-09T11:14:13Z</time>
      </trkpt>
      <trkpt lat="44.79353" lon="7.00623">
        <ele>2484.66</ele>
        <time>2017-07-09T11:14:25Z</time>
      </trkpt>
      <trkpt lat="44.79351" lon="7.00625">
        <ele>2485.15</ele>
        <time>2017-07-09T11:14:32Z</time>
      </trkpt>
      <trkpt lat="44.7935" lon="7.00629">
        <ele>2485.15</ele>
        <time>2017-07-09T11:14:35Z</time>
      </trkpt>
      <trkpt lat="44.79349" lon="7.00633">
        <ele>2485.15</ele>
        <time>2017-07-09T11:14:40Z</time>
      </trkpt>
      <trkpt lat="44.79346" lon="7.00638">
        <ele>2482.74</ele>
        <time>2017-07-09T11:14:49Z</time>
      </trkpt>
      <trkpt lat="44.79346" lon="7.00638">
        <ele>2483.22</ele>
        <time>2017-07-09T11:14:50Z</time>
      </trkpt>
      <trkpt lat="44.79344" lon="7.00648">
        <ele>2483.22</ele>
        <time>2017-07-09T11:14:58Z</time>
      </trkpt>
      <trkpt lat="44.79341" lon="7.0065">
        <ele>2481.78</ele>
        <time>2017-07-09T11:15:04Z</time>
      </trkpt>
      <trkpt lat="44.79334" lon="7.00658">
        <ele>2479.38</ele>
        <time>2017-07-09T11:15:16Z</time>
      </trkpt>
      <trkpt lat="44.79333" lon="7.00657">
        <ele>2479.86</ele>
        <time>2017-07-09T11:15:17Z</time>
      </trkpt>
      <trkpt lat="44.79327" lon="7.00666">
        <ele>2477.94</ele>
        <time>2017-07-09T11:15:26Z</time>
      </trkpt>
      <trkpt lat="44.79327" lon="7.00666">
        <ele>2477.94</ele>
        <time>2017-07-09T11:15:27Z</time>
      </trkpt>
      <trkpt lat="44.79324" lon="7.00672">
        <ele>2476.97</ele>
        <time>2017-07-09T11:15:32Z</time>
      </trkpt>
      <trkpt lat="44.79318" lon="7.00676">
        <ele>2474.57</ele>
        <time>2017-07-09T11:15:39Z</time>
      </trkpt>
      <trkpt lat="44.79311" lon="7.00683">
        <ele>2471.69</ele>
        <time>2017-07-09T11:15:48Z</time>
      </trkpt>
      <trkpt lat="44.79304" lon="7.00691">
        <ele>2469.76</ele>
        <time>2017-07-09T11:15:58Z</time>
      </trkpt>
      <trkpt lat="44.79301" lon="7.00702">
        <ele>2466.88</ele>
        <time>2017-07-09T11:16:09Z</time>
      </trkpt>
      <trkpt lat="44.79299" lon="7.00702">
        <ele>2465.44</ele>
        <time>2017-07-09T11:16:12Z</time>
      </trkpt>
      <trkpt lat="44.79299" lon="7.00707">
        <ele>2465.92</ele>
        <time>2017-07-09T11:16:16Z</time>
      </trkpt>
      <trkpt lat="44.79293" lon="7.0071">
        <ele>2464</ele>
        <time>2017-07-09T11:16:22Z</time>
      </trkpt>
      <trkpt lat="44.79292" lon="7.00713">
        <ele>2462.55</ele>
        <time>2017-07-09T11:16:25Z</time>
      </trkpt>
      <trkpt lat="44.79291" lon="7.00716">
        <ele>2462.55</ele>
        <time>2017-07-09T11:16:28Z</time>
      </trkpt>
      <trkpt lat="44.79288" lon="7.00721">
        <ele>2460.15</ele>
        <time>2017-07-09T11:16:36Z</time>
      </trkpt>
      <trkpt lat="44.79287" lon="7.00722">
        <ele>2459.67</ele>
        <time>2017-07-09T11:16:48Z</time>
      </trkpt>
      <trkpt lat="44.79282" lon="7.0073">
        <ele>2458.71</ele>
        <time>2017-07-09T11:16:56Z</time>
      </trkpt>
      <trkpt lat="44.79281" lon="7.00731">
        <ele>2457.75</ele>
        <time>2017-07-09T11:16:59Z</time>
      </trkpt>
      <trkpt lat="44.79279" lon="7.00734">
        <ele>2457.75</ele>
        <time>2017-07-09T11:17:02Z</time>
      </trkpt>
      <trkpt lat="44.79279" lon="7.00736">
        <ele>2457.75</ele>
        <time>2017-07-09T11:17:06Z</time>
      </trkpt>
      <trkpt lat="44.79281" lon="7.00739">
        <ele>2455.34</ele>
        <time>2017-07-09T11:17:15Z</time>
      </trkpt>
      <trkpt lat="44.79281" lon="7.0074">
        <ele>2455.34</ele>
        <time>2017-07-09T11:17:16Z</time>
      </trkpt>
      <trkpt lat="44.79277" lon="7.00742">
        <ele>2454.38</ele>
        <time>2017-07-09T11:17:20Z</time>
      </trkpt>
      <trkpt lat="44.79275" lon="7.00743">
        <ele>2453.42</ele>
        <time>2017-07-09T11:17:24Z</time>
      </trkpt>
      <trkpt lat="44.79277" lon="7.00751">
        <ele>2451.5</ele>
        <time>2017-07-09T11:17:34Z</time>
      </trkpt>
      <trkpt lat="44.79275" lon="7.00757">
        <ele>2448.62</ele>
        <time>2017-07-09T11:17:43Z</time>
      </trkpt>
      <trkpt lat="44.79273" lon="7.00758">
        <ele>2447.65</ele>
        <time>2017-07-09T11:17:48Z</time>
      </trkpt>
      <trkpt lat="44.79271" lon="7.00762">
        <ele>2446.69</ele>
        <time>2017-07-09T11:17:52Z</time>
      </trkpt>
      <trkpt lat="44.79269" lon="7.00766">
        <ele>2445.73</ele>
        <time>2017-07-09T11:17:57Z</time>
      </trkpt>
      <trkpt lat="44.79269" lon="7.00771">
        <ele>2444.29</ele>
        <time>2017-07-09T11:18:02Z</time>
      </trkpt>
      <trkpt lat="44.79264" lon="7.00773">
        <ele>2441.89</ele>
        <time>2017-07-09T11:18:11Z</time>
      </trkpt>
      <trkpt lat="44.79264" lon="7.00783">
        <ele>2440.44</ele>
        <time>2017-07-09T11:18:21Z</time>
      </trkpt>
      <trkpt lat="44.79262" lon="7.00787">
        <ele>2439</ele>
        <time>2017-07-09T11:18:29Z</time>
      </trkpt>
      <trkpt lat="44.79266" lon="7.00798">
        <ele>2437.08</ele>
        <time>2017-07-09T11:18:36Z</time>
      </trkpt>
      <trkpt lat="44.79263" lon="7.00808">
        <ele>2436.12</ele>
        <time>2017-07-09T11:18:47Z</time>
      </trkpt>
      <trkpt lat="44.7926" lon="7.00816">
        <ele>2435.16</ele>
        <time>2017-07-09T11:18:57Z</time>
      </trkpt>
      <trkpt lat="44.79257" lon="7.00825">
        <ele>2433.71</ele>
        <time>2017-07-09T11:19:05Z</time>
      </trkpt>
      <trkpt lat="44.79256" lon="7.00829">
        <ele>2433.23</ele>
        <time>2017-07-09T11:19:08Z</time>
      </trkpt>
      <trkpt lat="44.79256" lon="7.00843">
        <ele>2432.27</ele>
        <time>2017-07-09T11:19:18Z</time>
      </trkpt>
      <trkpt lat="44.79255" lon="7.00844">
        <ele>2432.27</ele>
        <time>2017-07-09T11:19:19Z</time>
      </trkpt>
      <trkpt lat="44.79254" lon="7.00854">
        <ele>2431.31</ele>
        <time>2017-07-09T11:19:26Z</time>
      </trkpt>
      <trkpt lat="44.79252" lon="7.00862">
        <ele>2429.87</ele>
        <time>2017-07-09T11:19:33Z</time>
      </trkpt>
      <trkpt lat="44.79252" lon="7.00869">
        <ele>2429.39</ele>
        <time>2017-07-09T11:19:37Z</time>
      </trkpt>
      <trkpt lat="44.79253" lon="7.00875">
        <ele>2428.91</ele>
        <time>2017-07-09T11:19:41Z</time>
      </trkpt>
      <trkpt lat="44.79252" lon="7.00882">
        <ele>2427.95</ele>
        <time>2017-07-09T11:19:45Z</time>
      </trkpt>
      <trkpt lat="44.79254" lon="7.00888">
        <ele>2427.47</ele>
        <time>2017-07-09T11:19:49Z</time>
      </trkpt>
      <trkpt lat="44.79254" lon="7.0089">
        <ele>2426.99</ele>
        <time>2017-07-09T11:19:51Z</time>
      </trkpt>
      <trkpt lat="44.79253" lon="7.00893">
        <ele>2426.99</ele>
        <time>2017-07-09T11:19:53Z</time>
      </trkpt>
      <trkpt lat="44.7925" lon="7.00901">
        <ele>2426.02</ele>
        <time>2017-07-09T11:19:58Z</time>
      </trkpt>
      <trkpt lat="44.79253" lon="7.0091">
        <ele>2425.54</ele>
        <time>2017-07-09T11:20:03Z</time>
      </trkpt>
      <trkpt lat="44.79251" lon="7.00917">
        <ele>2424.58</ele>
        <time>2017-07-09T11:20:08Z</time>
      </trkpt>
      <trkpt lat="44.79249" lon="7.0092">
        <ele>2424.1</ele>
        <time>2017-07-09T11:20:11Z</time>
      </trkpt>
      <trkpt lat="44.7925" lon="7.00935">
        <ele>2423.62</ele>
        <time>2017-07-09T11:20:19Z</time>
      </trkpt>
      <trkpt lat="44.7925" lon="7.00937">
        <ele>2423.62</ele>
        <time>2017-07-09T11:20:20Z</time>
      </trkpt>
      <trkpt lat="44.79246" lon="7.00949">
        <ele>2422.66</ele>
        <time>2017-07-09T11:20:30Z</time>
      </trkpt>
      <trkpt lat="44.79244" lon="7.00957">
        <ele>2421.7</ele>
        <time>2017-07-09T11:20:36Z</time>
      </trkpt>
      <trkpt lat="44.79241" lon="7.0096">
        <ele>2422.18</ele>
        <time>2017-07-09T11:20:39Z</time>
      </trkpt>
      <trkpt lat="44.79233" lon="7.00973">
        <ele>2420.26</ele>
        <time>2017-07-09T11:20:50Z</time>
      </trkpt>
      <trkpt lat="44.79227" lon="7.00978">
        <ele>2418.81</ele>
        <time>2017-07-09T11:20:58Z</time>
      </trkpt>
      <trkpt lat="44.79222" lon="7.00984">
        <ele>2418.81</ele>
        <time>2017-07-09T11:21:11Z</time>
      </trkpt>
      <trkpt lat="44.79221" lon="7.00985">
        <ele>2417.85</ele>
        <time>2017-07-09T11:21:14Z</time>
      </trkpt>
      <trkpt lat="44.79219" lon="7.00986">
        <ele>2417.85</ele>
        <time>2017-07-09T11:21:20Z</time>
      </trkpt>
      <trkpt lat="44.79213" lon="7.00988">
        <ele>2415.93</ele>
        <time>2017-07-09T11:21:27Z</time>
      </trkpt>
      <trkpt lat="44.79213" lon="7.00989">
        <ele>2416.41</ele>
        <time>2017-07-09T11:21:33Z</time>
      </trkpt>
      <trkpt lat="44.79208" lon="7.01003">
        <ele>2415.45</ele>
        <time>2017-07-09T11:21:43Z</time>
      </trkpt>
      <trkpt lat="44.79208" lon="7.01003">
        <ele>2414.97</ele>
        <time>2017-07-09T11:21:45Z</time>
      </trkpt>
      <trkpt lat="44.79199" lon="7.01018">
        <ele>2413.53</ele>
        <time>2017-07-09T11:21:56Z</time>
      </trkpt>
      <trkpt lat="44.79196" lon="7.01025">
        <ele>2412.09</ele>
        <time>2017-07-09T11:22:03Z</time>
      </trkpt>
      <trkpt lat="44.79193" lon="7.01027">
        <ele>2411.6</ele>
        <time>2017-07-09T11:22:06Z</time>
      </trkpt>
      <trkpt lat="44.7919" lon="7.01031">
        <ele>2411.6</ele>
        <time>2017-07-09T11:22:10Z</time>
      </trkpt>
      <trkpt lat="44.79187" lon="7.0103">
        <ele>2410.16</ele>
        <time>2017-07-09T11:22:15Z</time>
      </trkpt>
      <trkpt lat="44.79187" lon="7.01027">
        <ele>2410.64</ele>
        <time>2017-07-09T11:22:40Z</time>
      </trkpt>
      <trkpt lat="44.79181" lon="7.01031">
        <ele>2408.72</ele>
        <time>2017-07-09T11:22:48Z</time>
      </trkpt>
      <trkpt lat="44.79178" lon="7.01033">
        <ele>2408.24</ele>
        <time>2017-07-09T11:22:52Z</time>
      </trkpt>
      <trkpt lat="44.79176" lon="7.01035">
        <ele>2406.8</ele>
        <time>2017-07-09T11:22:56Z</time>
      </trkpt>
      <trkpt lat="44.79173" lon="7.01038">
        <ele>2405.84</ele>
        <time>2017-07-09T11:23:00Z</time>
      </trkpt>
      <trkpt lat="44.79169" lon="7.01038">
        <ele>2404.88</ele>
        <time>2017-07-09T11:23:04Z</time>
      </trkpt>
      <trkpt lat="44.79166" lon="7.01039">
        <ele>2403.91</ele>
        <time>2017-07-09T11:23:08Z</time>
      </trkpt>
      <trkpt lat="44.79159" lon="7.01044">
        <ele>2401.51</ele>
        <time>2017-07-09T11:23:18Z</time>
      </trkpt>
      <trkpt lat="44.79156" lon="7.01045">
        <ele>2400.55</ele>
        <time>2017-07-09T11:23:23Z</time>
      </trkpt>
      <trkpt lat="44.79155" lon="7.01051">
        <ele>2399.11</ele>
        <time>2017-07-09T11:23:30Z</time>
      </trkpt>
      <trkpt lat="44.79149" lon="7.01055">
        <ele>2397.18</ele>
        <time>2017-07-09T11:23:38Z</time>
      </trkpt>
      <trkpt lat="44.79144" lon="7.01057">
        <ele>2396.7</ele>
        <time>2017-07-09T11:23:43Z</time>
      </trkpt>
      <trkpt lat="44.79138" lon="7.01059">
        <ele>2394.78</ele>
        <time>2017-07-09T11:23:53Z</time>
      </trkpt>
      <trkpt lat="44.79132" lon="7.01061">
        <ele>2392.86</ele>
        <time>2017-07-09T11:24:04Z</time>
      </trkpt>
      <trkpt lat="44.79128" lon="7.0106">
        <ele>2390.94</ele>
        <time>2017-07-09T11:24:11Z</time>
      </trkpt>
      <trkpt lat="44.79123" lon="7.01059">
        <ele>2389.49</ele>
        <time>2017-07-09T11:24:19Z</time>
      </trkpt>
      <trkpt lat="44.7912" lon="7.01056">
        <ele>2388.05</ele>
        <time>2017-07-09T11:24:27Z</time>
      </trkpt>
      <trkpt lat="44.79116" lon="7.01057">
        <ele>2386.13</ele>
        <time>2017-07-09T11:24:36Z</time>
      </trkpt>
      <trkpt lat="44.7911" lon="7.01058">
        <ele>2385.65</ele>
        <time>2017-07-09T11:24:46Z</time>
      </trkpt>
      <trkpt lat="44.79109" lon="7.01059">
        <ele>2383.25</ele>
        <time>2017-07-09T11:24:54Z</time>
      </trkpt>
      <trkpt lat="44.79101" lon="7.0105">
        <ele>2385.65</ele>
        <time>2017-07-09T11:25:06Z</time>
      </trkpt>
      <trkpt lat="44.79102" lon="7.0105">
        <ele>2385.65</ele>
        <time>2017-07-09T11:25:07Z</time>
      </trkpt>
      <trkpt lat="44.79098" lon="7.01053">
        <ele>2385.17</ele>
        <time>2017-07-09T11:25:11Z</time>
      </trkpt>
      <trkpt lat="44.79099" lon="7.01055">
        <ele>2384.21</ele>
        <time>2017-07-09T11:25:13Z</time>
      </trkpt>
      <trkpt lat="44.79094" lon="7.01061">
        <ele>2382.76</ele>
        <time>2017-07-09T11:25:21Z</time>
      </trkpt>
      <trkpt lat="44.79093" lon="7.01061">
        <ele>2383.25</ele>
        <time>2017-07-09T11:25:28Z</time>
      </trkpt>
      <trkpt lat="44.79082" lon="7.01069">
        <ele>2381.32</ele>
        <time>2017-07-09T11:25:40Z</time>
      </trkpt>
      <trkpt lat="44.79077" lon="7.01073">
        <ele>2380.84</ele>
        <time>2017-07-09T11:25:47Z</time>
      </trkpt>
      <trkpt lat="44.79075" lon="7.01078">
        <ele>2379.88</ele>
        <time>2017-07-09T11:25:51Z</time>
      </trkpt>
      <trkpt lat="44.79072" lon="7.0108">
        <ele>2379.4</ele>
        <time>2017-07-09T11:25:57Z</time>
      </trkpt>
      <trkpt lat="44.79071" lon="7.0109">
        <ele>2377.48</ele>
        <time>2017-07-09T11:26:09Z</time>
      </trkpt>
      <trkpt lat="44.79069" lon="7.01095">
        <ele>2376.04</ele>
        <time>2017-07-09T11:26:13Z</time>
      </trkpt>
      <trkpt lat="44.79063" lon="7.01107">
        <ele>2374.11</ele>
        <time>2017-07-09T11:26:23Z</time>
      </trkpt>
      <trkpt lat="44.79062" lon="7.01107">
        <ele>2374.11</ele>
        <time>2017-07-09T11:26:24Z</time>
      </trkpt>
      <trkpt lat="44.79056" lon="7.0111">
        <ele>2372.67</ele>
        <time>2017-07-09T11:26:30Z</time>
      </trkpt>
      <trkpt lat="44.79053" lon="7.01113">
        <ele>2372.19</ele>
        <time>2017-07-09T11:26:33Z</time>
      </trkpt>
      <trkpt lat="44.79048" lon="7.0112">
        <ele>2370.75</ele>
        <time>2017-07-09T11:26:42Z</time>
      </trkpt>
      <trkpt lat="44.79043" lon="7.01117">
        <ele>2371.23</ele>
        <time>2017-07-09T11:26:54Z</time>
      </trkpt>
      <trkpt lat="44.79042" lon="7.01117">
        <ele>2371.23</ele>
        <time>2017-07-09T11:26:55Z</time>
      </trkpt>
      <trkpt lat="44.79039" lon="7.01118">
        <ele>2371.23</ele>
        <time>2017-07-09T11:27:13Z</time>
      </trkpt>
      <trkpt lat="44.79038" lon="7.0112">
        <ele>2370.75</ele>
        <time>2017-07-09T11:27:17Z</time>
      </trkpt>
      <trkpt lat="44.79039" lon="7.0112">
        <ele>2370.75</ele>
        <time>2017-07-09T11:27:19Z</time>
      </trkpt>
      <trkpt lat="44.79038" lon="7.01129">
        <ele>2368.83</ele>
        <time>2017-07-09T11:27:26Z</time>
      </trkpt>
      <trkpt lat="44.79039" lon="7.01135">
        <ele>2367.86</ele>
        <time>2017-07-09T11:27:32Z</time>
      </trkpt>
      <trkpt lat="44.79037" lon="7.01142">
        <ele>2366.9</ele>
        <time>2017-07-09T11:27:40Z</time>
      </trkpt>
      <trkpt lat="44.79035" lon="7.01149">
        <ele>2365.46</ele>
        <time>2017-07-09T11:27:46Z</time>
      </trkpt>
      <trkpt lat="44.79031" lon="7.01162">
        <ele>2364.02</ele>
        <time>2017-07-09T11:27:56Z</time>
      </trkpt>
      <trkpt lat="44.79025" lon="7.0117">
        <ele>2362.1</ele>
        <time>2017-07-09T11:28:07Z</time>
      </trkpt>
      <trkpt lat="44.79021" lon="7.01178">
        <ele>2359.69</ele>
        <time>2017-07-09T11:28:16Z</time>
      </trkpt>
      <trkpt lat="44.79017" lon="7.01189">
        <ele>2357.77</ele>
        <time>2017-07-09T11:28:27Z</time>
      </trkpt>
      <trkpt lat="44.79016" lon="7.0119">
        <ele>2356.81</ele>
        <time>2017-07-09T11:28:29Z</time>
      </trkpt>
      <trkpt lat="44.7901" lon="7.01197">
        <ele>2353.93</ele>
        <time>2017-07-09T11:28:40Z</time>
      </trkpt>
      <trkpt lat="44.79008" lon="7.012">
        <ele>2352.96</ele>
        <time>2017-07-09T11:28:49Z</time>
      </trkpt>
      <trkpt lat="44.79006" lon="7.01208">
        <ele>2350.56</ele>
        <time>2017-07-09T11:28:59Z</time>
      </trkpt>
      <trkpt lat="44.79005" lon="7.01209">
        <ele>2350.08</ele>
        <time>2017-07-09T11:29:00Z</time>
      </trkpt>
      <trkpt lat="44.79" lon="7.01218">
        <ele>2348.16</ele>
        <time>2017-07-09T11:29:09Z</time>
      </trkpt>
      <trkpt lat="44.78997" lon="7.01219">
        <ele>2347.2</ele>
        <time>2017-07-09T11:29:12Z</time>
      </trkpt>
      <trkpt lat="44.78994" lon="7.0122">
        <ele>2346.72</ele>
        <time>2017-07-09T11:29:16Z</time>
      </trkpt>
      <trkpt lat="44.78992" lon="7.01225">
        <ele>2344.31</ele>
        <time>2017-07-09T11:29:28Z</time>
      </trkpt>
      <trkpt lat="44.78987" lon="7.01229">
        <ele>2341.91</ele>
        <time>2017-07-09T11:29:39Z</time>
      </trkpt>
      <trkpt lat="44.78983" lon="7.01234">
        <ele>2339.51</ele>
        <time>2017-07-09T11:29:51Z</time>
      </trkpt>
      <trkpt lat="44.78979" lon="7.01237">
        <ele>2338.54</ele>
        <time>2017-07-09T11:29:56Z</time>
      </trkpt>
      <trkpt lat="44.78976" lon="7.01241">
        <ele>2337.58</ele>
        <time>2017-07-09T11:30:06Z</time>
      </trkpt>
      <trkpt lat="44.78975" lon="7.01241">
        <ele>2337.1</ele>
        <time>2017-07-09T11:30:08Z</time>
      </trkpt>
      <trkpt lat="44.78973" lon="7.01246">
        <ele>2335.66</ele>
        <time>2017-07-09T11:30:14Z</time>
      </trkpt>
      <trkpt lat="44.78971" lon="7.01246">
        <ele>2334.7</ele>
        <time>2017-07-09T11:30:16Z</time>
      </trkpt>
      <trkpt lat="44.7897" lon="7.01248">
        <ele>2333.26</ele>
        <time>2017-07-09T11:30:22Z</time>
      </trkpt>
      <trkpt lat="44.78966" lon="7.01252">
        <ele>2330.85</ele>
        <time>2017-07-09T11:30:31Z</time>
      </trkpt>
      <trkpt lat="44.78959" lon="7.01257">
        <ele>2329.41</ele>
        <time>2017-07-09T11:30:41Z</time>
      </trkpt>
      <trkpt lat="44.78955" lon="7.01259">
        <ele>2327.49</ele>
        <time>2017-07-09T11:30:49Z</time>
      </trkpt>
      <trkpt lat="44.78952" lon="7.01262">
        <ele>2325.57</ele>
        <time>2017-07-09T11:30:59Z</time>
      </trkpt>
      <trkpt lat="44.78948" lon="7.01262">
        <ele>2324.61</ele>
        <time>2017-07-09T11:31:09Z</time>
      </trkpt>
      <trkpt lat="44.78944" lon="7.01265">
        <ele>2322.68</ele>
        <time>2017-07-09T11:31:22Z</time>
      </trkpt>
      <trkpt lat="44.7894" lon="7.01267">
        <ele>2321.24</ele>
        <time>2017-07-09T11:31:32Z</time>
      </trkpt>
      <trkpt lat="44.78933" lon="7.01271">
        <ele>2320.76</ele>
        <time>2017-07-09T11:31:43Z</time>
      </trkpt>
      <trkpt lat="44.78929" lon="7.01275">
        <ele>2320.28</ele>
        <time>2017-07-09T11:31:54Z</time>
      </trkpt>
      <trkpt lat="44.78926" lon="7.01278">
        <ele>2318.84</ele>
        <time>2017-07-09T11:32:04Z</time>
      </trkpt>
      <trkpt lat="44.78924" lon="7.01283">
        <ele>2316.91</ele>
        <time>2017-07-09T11:32:15Z</time>
      </trkpt>
      <trkpt lat="44.78916" lon="7.01291">
        <ele>2314.99</ele>
        <time>2017-07-09T11:32:26Z</time>
      </trkpt>
      <trkpt lat="44.78915" lon="7.01294">
        <ele>2313.55</ele>
        <time>2017-07-09T11:32:31Z</time>
      </trkpt>
      <trkpt lat="44.78917" lon="7.01302">
        <ele>2311.63</ele>
        <time>2017-07-09T11:32:43Z</time>
      </trkpt>
      <trkpt lat="44.78917" lon="7.01303">
        <ele>2311.15</ele>
        <time>2017-07-09T11:32:49Z</time>
      </trkpt>
      <trkpt lat="44.78911" lon="7.01308">
        <ele>2310.19</ele>
        <time>2017-07-09T11:32:59Z</time>
      </trkpt>
      <trkpt lat="44.78912" lon="7.01308">
        <ele>2309.7</ele>
        <time>2017-07-09T11:33:01Z</time>
      </trkpt>
      <trkpt lat="44.7891" lon="7.0131">
        <ele>2308.26</ele>
        <time>2017-07-09T11:33:10Z</time>
      </trkpt>
      <trkpt lat="44.7891" lon="7.01313">
        <ele>2308.26</ele>
        <time>2017-07-09T11:33:21Z</time>
      </trkpt>
      <trkpt lat="44.78911" lon="7.01315">
        <ele>2306.82</ele>
        <time>2017-07-09T11:33:30Z</time>
      </trkpt>
      <trkpt lat="44.78912" lon="7.01317">
        <ele>2305.38</ele>
        <time>2017-07-09T11:33:41Z</time>
      </trkpt>
      <trkpt lat="44.78912" lon="7.01321">
        <ele>2304.9</ele>
        <time>2017-07-09T11:33:44Z</time>
      </trkpt>
      <trkpt lat="44.78913" lon="7.01325">
        <ele>2304.42</ele>
        <time>2017-07-09T11:33:49Z</time>
      </trkpt>
      <trkpt lat="44.78914" lon="7.01323">
        <ele>2302.49</ele>
        <time>2017-07-09T11:33:59Z</time>
      </trkpt>
      <trkpt lat="44.78914" lon="7.01329">
        <ele>2301.05</ele>
        <time>2017-07-09T11:34:10Z</time>
      </trkpt>
      <trkpt lat="44.78909" lon="7.01341">
        <ele>2299.13</ele>
        <time>2017-07-09T11:34:21Z</time>
      </trkpt>
      <trkpt lat="44.78909" lon="7.01344">
        <ele>2298.65</ele>
        <time>2017-07-09T11:34:27Z</time>
      </trkpt>
      <trkpt lat="44.7891" lon="7.01352">
        <ele>2298.65</ele>
        <time>2017-07-09T11:34:38Z</time>
      </trkpt>
      <trkpt lat="44.7891" lon="7.01355">
        <ele>2298.65</ele>
        <time>2017-07-09T11:34:40Z</time>
      </trkpt>
      <trkpt lat="44.78905" lon="7.01365">
        <ele>2295.77</ele>
        <time>2017-07-09T11:34:52Z</time>
      </trkpt>
      <trkpt lat="44.78906" lon="7.01374">
        <ele>2294.32</ele>
        <time>2017-07-09T11:35:03Z</time>
      </trkpt>
      <trkpt lat="44.78902" lon="7.01385">
        <ele>2290.96</ele>
        <time>2017-07-09T11:35:14Z</time>
      </trkpt>
      <trkpt lat="44.78903" lon="7.01388">
        <ele>2289.04</ele>
        <time>2017-07-09T11:35:24Z</time>
      </trkpt>
      <trkpt lat="44.78904" lon="7.01388">
        <ele>2288.08</ele>
        <time>2017-07-09T11:35:27Z</time>
      </trkpt>
      <trkpt lat="44.78904" lon="7.01398">
        <ele>2286.15</ele>
        <time>2017-07-09T11:35:37Z</time>
      </trkpt>
      <trkpt lat="44.78902" lon="7.01402">
        <ele>2283.75</ele>
        <time>2017-07-09T11:35:47Z</time>
      </trkpt>
      <trkpt lat="44.78904" lon="7.01404">
        <ele>2283.75</ele>
        <time>2017-07-09T11:35:49Z</time>
      </trkpt>
      <trkpt lat="44.78899" lon="7.01415">
        <ele>2280.38</ele>
        <time>2017-07-09T11:36:02Z</time>
      </trkpt>
      <trkpt lat="44.78897" lon="7.01424">
        <ele>2277.5</ele>
        <time>2017-07-09T11:36:14Z</time>
      </trkpt>
      <trkpt lat="44.78892" lon="7.01426">
        <ele>2276.06</ele>
        <time>2017-07-09T11:36:31Z</time>
      </trkpt>
      <trkpt lat="44.7889" lon="7.01429">
        <ele>2274.14</ele>
        <time>2017-07-09T11:36:40Z</time>
      </trkpt>
      <trkpt lat="44.78891" lon="7.01432">
        <ele>2273.66</ele>
        <time>2017-07-09T11:36:43Z</time>
      </trkpt>
      <trkpt lat="44.78889" lon="7.01442">
        <ele>2272.69</ele>
        <time>2017-07-09T11:36:49Z</time>
      </trkpt>
      <trkpt lat="44.78886" lon="7.01447">
        <ele>2271.25</ele>
        <time>2017-07-09T11:36:56Z</time>
      </trkpt>
      <trkpt lat="44.78885" lon="7.01453">
        <ele>2270.29</ele>
        <time>2017-07-09T11:37:01Z</time>
      </trkpt>
      <trkpt lat="44.78881" lon="7.01459">
        <ele>2267.89</ele>
        <time>2017-07-09T11:37:12Z</time>
      </trkpt>
      <trkpt lat="44.78878" lon="7.01464">
        <ele>2265.96</ele>
        <time>2017-07-09T11:37:22Z</time>
      </trkpt>
      <trkpt lat="44.78878" lon="7.01467">
        <ele>2264.04</ele>
        <time>2017-07-09T11:37:25Z</time>
      </trkpt>
      <trkpt lat="44.78876" lon="7.01466">
        <ele>2263.08</ele>
        <time>2017-07-09T11:37:30Z</time>
      </trkpt>
      <trkpt lat="44.78875" lon="7.01466">
        <ele>2262.6</ele>
        <time>2017-07-09T11:37:32Z</time>
      </trkpt>
      <trkpt lat="44.78871" lon="7.01476">
        <ele>2259.72</ele>
        <time>2017-07-09T11:37:44Z</time>
      </trkpt>
      <trkpt lat="44.78867" lon="7.01485">
        <ele>2255.87</ele>
        <time>2017-07-09T11:37:56Z</time>
      </trkpt>
      <trkpt lat="44.78862" lon="7.0149">
        <ele>2253.47</ele>
        <time>2017-07-09T11:38:08Z</time>
      </trkpt>
      <trkpt lat="44.78863" lon="7.01494">
        <ele>2252.51</ele>
        <time>2017-07-09T11:38:18Z</time>
      </trkpt>
      <trkpt lat="44.78858" lon="7.01493">
        <ele>2251.54</ele>
        <time>2017-07-09T11:38:34Z</time>
      </trkpt>
      <trkpt lat="44.78857" lon="7.01494">
        <ele>2251.54</ele>
        <time>2017-07-09T11:38:38Z</time>
      </trkpt>
      <trkpt lat="44.78856" lon="7.01501">
        <ele>2251.06</ele>
        <time>2017-07-09T11:38:48Z</time>
      </trkpt>
      <trkpt lat="44.78853" lon="7.01508">
        <ele>2249.62</ele>
        <time>2017-07-09T11:39:01Z</time>
      </trkpt>
      <trkpt lat="44.78844" lon="7.01515">
        <ele>2248.66</ele>
        <time>2017-07-09T11:39:13Z</time>
      </trkpt>
      <trkpt lat="44.78842" lon="7.01521">
        <ele>2247.22</ele>
        <time>2017-07-09T11:39:24Z</time>
      </trkpt>
      <trkpt lat="44.78841" lon="7.01523">
        <ele>2245.78</ele>
        <time>2017-07-09T11:39:37Z</time>
      </trkpt>
      <trkpt lat="44.78838" lon="7.01528">
        <ele>2244.82</ele>
        <time>2017-07-09T11:39:46Z</time>
      </trkpt>
      <trkpt lat="44.78839" lon="7.0153">
        <ele>2243.37</ele>
        <time>2017-07-09T11:39:56Z</time>
      </trkpt>
      <trkpt lat="44.78838" lon="7.01542">
        <ele>2241.93</ele>
        <time>2017-07-09T11:40:06Z</time>
      </trkpt>
      <trkpt lat="44.78838" lon="7.01546">
        <ele>2241.45</ele>
        <time>2017-07-09T11:40:08Z</time>
      </trkpt>
      <trkpt lat="44.78834" lon="7.01557">
        <ele>2240.01</ele>
        <time>2017-07-09T11:40:20Z</time>
      </trkpt>
      <trkpt lat="44.78832" lon="7.01564">
        <ele>2237.61</ele>
        <time>2017-07-09T11:40:29Z</time>
      </trkpt>
      <trkpt lat="44.7883" lon="7.01571">
        <ele>2236.16</ele>
        <time>2017-07-09T11:40:36Z</time>
      </trkpt>
      <trkpt lat="44.78829" lon="7.01575">
        <ele>2235.2</ele>
        <time>2017-07-09T11:40:40Z</time>
      </trkpt>
      <trkpt lat="44.78822" lon="7.01581">
        <ele>2233.76</ele>
        <time>2017-07-09T11:40:49Z</time>
      </trkpt>
      <trkpt lat="44.78818" lon="7.01588">
        <ele>2231.36</ele>
        <time>2017-07-09T11:40:59Z</time>
      </trkpt>
      <trkpt lat="44.78815" lon="7.01593">
        <ele>2229.92</ele>
        <time>2017-07-09T11:41:06Z</time>
      </trkpt>
      <trkpt lat="44.7881" lon="7.01608">
        <ele>2227.51</ele>
        <time>2017-07-09T11:41:17Z</time>
      </trkpt>
      <trkpt lat="44.78805" lon="7.01614">
        <ele>2226.07</ele>
        <time>2017-07-09T11:41:24Z</time>
      </trkpt>
      <trkpt lat="44.78798" lon="7.01621">
        <ele>2225.11</ele>
        <time>2017-07-09T11:41:32Z</time>
      </trkpt>
      <trkpt lat="44.788" lon="7.01627">
        <ele>2225.59</ele>
        <time>2017-07-09T11:41:38Z</time>
      </trkpt>
      <trkpt lat="44.78799" lon="7.01633">
        <ele>2224.15</ele>
        <time>2017-07-09T11:41:47Z</time>
      </trkpt>
      <trkpt lat="44.78798" lon="7.01641">
        <ele>2221.74</ele>
        <time>2017-07-09T11:41:56Z</time>
      </trkpt>
      <trkpt lat="44.78798" lon="7.01649">
        <ele>2221.26</ele>
        <time>2017-07-09T11:42:03Z</time>
      </trkpt>
      <trkpt lat="44.78795" lon="7.01656">
        <ele>2219.34</ele>
        <time>2017-07-09T11:42:13Z</time>
      </trkpt>
      <trkpt lat="44.78793" lon="7.01658">
        <ele>2218.86</ele>
        <time>2017-07-09T11:42:15Z</time>
      </trkpt>
      <trkpt lat="44.78787" lon="7.01661">
        <ele>2217.42</ele>
        <time>2017-07-09T11:42:22Z</time>
      </trkpt>
      <trkpt lat="44.78784" lon="7.01664">
        <ele>2216.46</ele>
        <time>2017-07-09T11:42:25Z</time>
      </trkpt>
      <trkpt lat="44.7878" lon="7.0167">
        <ele>2214.53</ele>
        <time>2017-07-09T11:42:32Z</time>
      </trkpt>
      <trkpt lat="44.7878" lon="7.01671">
        <ele>2213.57</ele>
        <time>2017-07-09T11:42:34Z</time>
      </trkpt>
      <trkpt lat="44.78778" lon="7.01675">
        <ele>2212.61</ele>
        <time>2017-07-09T11:42:38Z</time>
      </trkpt>
      <trkpt lat="44.78772" lon="7.01679">
        <ele>2212.13</ele>
        <time>2017-07-09T11:42:43Z</time>
      </trkpt>
      <trkpt lat="44.7877" lon="7.01685">
        <ele>2212.61</ele>
        <time>2017-07-09T11:42:50Z</time>
      </trkpt>
      <trkpt lat="44.78757" lon="7.01691">
        <ele>2211.17</ele>
        <time>2017-07-09T11:43:01Z</time>
      </trkpt>
      <trkpt lat="44.78756" lon="7.01692">
        <ele>2211.17</ele>
        <time>2017-07-09T11:43:02Z</time>
      </trkpt>
      <trkpt lat="44.78748" lon="7.01697">
        <ele>2210.21</ele>
        <time>2017-07-09T11:43:07Z</time>
      </trkpt>
      <trkpt lat="44.78747" lon="7.01698">
        <ele>2210.21</ele>
        <time>2017-07-09T11:43:09Z</time>
      </trkpt>
      <trkpt lat="44.78744" lon="7.01705">
        <ele>2210.21</ele>
        <time>2017-07-09T11:43:17Z</time>
      </trkpt>
      <trkpt lat="44.78743" lon="7.01716">
        <ele>2208.77</ele>
        <time>2017-07-09T11:43:26Z</time>
      </trkpt>
      <trkpt lat="44.78741" lon="7.01719">
        <ele>2207.81</ele>
        <time>2017-07-09T11:43:31Z</time>
      </trkpt>
      <trkpt lat="44.78741" lon="7.01725">
        <ele>2206.36</ele>
        <time>2017-07-09T11:43:36Z</time>
      </trkpt>
      <trkpt lat="44.78739" lon="7.01727">
        <ele>2205.88</ele>
        <time>2017-07-09T11:43:38Z</time>
      </trkpt>
      <trkpt lat="44.78737" lon="7.01741">
        <ele>2204.92</ele>
        <time>2017-07-09T11:43:47Z</time>
      </trkpt>
      <trkpt lat="44.78737" lon="7.01749">
        <ele>2203.48</ele>
        <time>2017-07-09T11:43:54Z</time>
      </trkpt>
      <trkpt lat="44.78736" lon="7.01751">
        <ele>2203</ele>
        <time>2017-07-09T11:43:56Z</time>
      </trkpt>
      <trkpt lat="44.78733" lon="7.01755">
        <ele>2201.56</ele>
        <time>2017-07-09T11:44:01Z</time>
      </trkpt>
      <trkpt lat="44.78733" lon="7.01764">
        <ele>2201.56</ele>
        <time>2017-07-09T11:44:06Z</time>
      </trkpt>
      <trkpt lat="44.78725" lon="7.01767">
        <ele>2202.52</ele>
        <time>2017-07-09T11:44:12Z</time>
      </trkpt>
      <trkpt lat="44.78723" lon="7.01772">
        <ele>2202.04</ele>
        <time>2017-07-09T11:44:16Z</time>
      </trkpt>
      <trkpt lat="44.78719" lon="7.01773">
        <ele>2202.52</ele>
        <time>2017-07-09T11:44:19Z</time>
      </trkpt>
      <trkpt lat="44.78714" lon="7.01781">
        <ele>2201.08</ele>
        <time>2017-07-09T11:44:29Z</time>
      </trkpt>
      <trkpt lat="44.78711" lon="7.01788">
        <ele>2200.59</ele>
        <time>2017-07-09T11:44:37Z</time>
      </trkpt>
      <trkpt lat="44.78709" lon="7.01792">
        <ele>2199.63</ele>
        <time>2017-07-09T11:44:43Z</time>
      </trkpt>
      <trkpt lat="44.78708" lon="7.01802">
        <ele>2197.71</ele>
        <time>2017-07-09T11:44:51Z</time>
      </trkpt>
      <trkpt lat="44.78702" lon="7.01807">
        <ele>2197.23</ele>
        <time>2017-07-09T11:44:57Z</time>
      </trkpt>
      <trkpt lat="44.78689" lon="7.01815">
        <ele>2195.79</ele>
        <time>2017-07-09T11:45:09Z</time>
      </trkpt>
      <trkpt lat="44.78682" lon="7.01818">
        <ele>2195.31</ele>
        <time>2017-07-09T11:45:13Z</time>
      </trkpt>
      <trkpt lat="44.78678" lon="7.0182">
        <ele>2194.35</ele>
        <time>2017-07-09T11:45:17Z</time>
      </trkpt>
      <trkpt lat="44.78676" lon="7.01825">
        <ele>2193.39</ele>
        <time>2017-07-09T11:45:21Z</time>
      </trkpt>
      <trkpt lat="44.78676" lon="7.01828">
        <ele>2191.94</ele>
        <time>2017-07-09T11:45:24Z</time>
      </trkpt>
      <trkpt lat="44.7867" lon="7.01833">
        <ele>2190.98</ele>
        <time>2017-07-09T11:45:30Z</time>
      </trkpt>
      <trkpt lat="44.78669" lon="7.01835">
        <ele>2190.98</ele>
        <time>2017-07-09T11:45:32Z</time>
      </trkpt>
      <trkpt lat="44.78667" lon="7.01836">
        <ele>2191.46</ele>
        <time>2017-07-09T11:45:34Z</time>
      </trkpt>
      <trkpt lat="44.78664" lon="7.01845">
        <ele>2191.46</ele>
        <time>2017-07-09T11:45:41Z</time>
      </trkpt>
      <trkpt lat="44.78659" lon="7.01851">
        <ele>2190.5</ele>
        <time>2017-07-09T11:45:47Z</time>
      </trkpt>
      <trkpt lat="44.78656" lon="7.01858">
        <ele>2190.02</ele>
        <time>2017-07-09T11:45:52Z</time>
      </trkpt>
      <trkpt lat="44.78646" lon="7.01864">
        <ele>2189.06</ele>
        <time>2017-07-09T11:46:02Z</time>
      </trkpt>
      <trkpt lat="44.78642" lon="7.01872">
        <ele>2187.62</ele>
        <time>2017-07-09T11:46:12Z</time>
      </trkpt>
      <trkpt lat="44.78639" lon="7.01876">
        <ele>2187.14</ele>
        <time>2017-07-09T11:46:17Z</time>
      </trkpt>
      <trkpt lat="44.78636" lon="7.0188">
        <ele>2186.66</ele>
        <time>2017-07-09T11:46:26Z</time>
      </trkpt>
      <trkpt lat="44.78635" lon="7.0188">
        <ele>2186.66</ele>
        <time>2017-07-09T11:46:48Z</time>
      </trkpt>
      <trkpt lat="44.78633" lon="7.01879">
        <ele>2186.66</ele>
        <time>2017-07-09T11:47:09Z</time>
      </trkpt>
      <trkpt lat="44.7863" lon="7.01884">
        <ele>2185.21</ele>
        <time>2017-07-09T11:47:17Z</time>
      </trkpt>
      <trkpt lat="44.78621" lon="7.01893">
        <ele>2182.81</ele>
        <time>2017-07-09T11:47:27Z</time>
      </trkpt>
      <trkpt lat="44.7862" lon="7.01898">
        <ele>2180.89</ele>
        <time>2017-07-09T11:47:33Z</time>
      </trkpt>
      <trkpt lat="44.78612" lon="7.01908">
        <ele>2179.93</ele>
        <time>2017-07-09T11:47:42Z</time>
      </trkpt>
      <trkpt lat="44.7861" lon="7.01916">
        <ele>2179.93</ele>
        <time>2017-07-09T11:47:48Z</time>
      </trkpt>
      <trkpt lat="44.78607" lon="7.01921">
        <ele>2180.41</ele>
        <time>2017-07-09T11:47:55Z</time>
      </trkpt>
      <trkpt lat="44.78601" lon="7.01931">
        <ele>2180.41</ele>
        <time>2017-07-09T11:48:03Z</time>
      </trkpt>
      <trkpt lat="44.78599" lon="7.01933">
        <ele>2180.41</ele>
        <time>2017-07-09T11:48:05Z</time>
      </trkpt>
      <trkpt lat="44.78595" lon="7.01937">
        <ele>2178.97</ele>
        <time>2017-07-09T11:48:17Z</time>
      </trkpt>
      <trkpt lat="44.78591" lon="7.01936">
        <ele>2178.97</ele>
        <time>2017-07-09T11:48:28Z</time>
      </trkpt>
      <trkpt lat="44.78588" lon="7.01934">
        <ele>2178.48</ele>
        <time>2017-07-09T11:48:38Z</time>
      </trkpt>
      <trkpt lat="44.78589" lon="7.01932">
        <ele>2178.48</ele>
        <time>2017-07-09T11:48:52Z</time>
      </trkpt>
      <trkpt lat="44.7859" lon="7.0193">
        <ele>2178.48</ele>
        <time>2017-07-09T11:48:57Z</time>
      </trkpt>
      <trkpt lat="44.78592" lon="7.0193">
        <ele>2178.48</ele>
        <time>2017-07-09T11:49:01Z</time>
      </trkpt>
      <trkpt lat="44.78591" lon="7.01939">
        <ele>2178</ele>
        <time>2017-07-09T11:49:09Z</time>
      </trkpt>
      <trkpt lat="44.7859" lon="7.01939">
        <ele>2177.52</ele>
        <time>2017-07-09T11:49:24Z</time>
      </trkpt>
      <trkpt lat="44.78589" lon="7.01937">
        <ele>2177.52</ele>
        <time>2017-07-09T11:49:41Z</time>
      </trkpt>
      <trkpt lat="44.7859" lon="7.01937">
        <ele>2177.04</ele>
        <time>2017-07-09T11:49:54Z</time>
      </trkpt>
      <trkpt lat="44.78591" lon="7.01938">
        <ele>2177.52</ele>
        <time>2017-07-09T11:50:11Z</time>
      </trkpt>
      <trkpt lat="44.78591" lon="7.01938">
        <ele>2176.08</ele>
        <time>2017-07-09T11:50:26Z</time>
      </trkpt>
      <trkpt lat="44.7859" lon="7.01938">
        <ele>2176.56</ele>
        <time>2017-07-09T11:50:28Z</time>
      </trkpt>
      <trkpt lat="44.78588" lon="7.01936">
        <ele>2176.08</ele>
        <time>2017-07-09T11:50:34Z</time>
      </trkpt>
      <trkpt lat="44.78581" lon="7.01935">
        <ele>2174.16</ele>
        <time>2017-07-09T11:50:42Z</time>
      </trkpt>
      <trkpt lat="44.78579" lon="7.01935">
        <ele>2173.68</ele>
        <time>2017-07-09T11:50:44Z</time>
      </trkpt>
      <trkpt lat="44.78575" lon="7.01937">
        <ele>2173.2</ele>
        <time>2017-07-09T11:50:48Z</time>
      </trkpt>
      <trkpt lat="44.78568" lon="7.0194">
        <ele>2171.27</ele>
        <time>2017-07-09T11:50:58Z</time>
      </trkpt>
      <trkpt lat="44.78567" lon="7.01941">
        <ele>2171.27</ele>
        <time>2017-07-09T11:50:59Z</time>
      </trkpt>
      <trkpt lat="44.78563" lon="7.01948">
        <ele>2171.27</ele>
        <time>2017-07-09T11:51:04Z</time>
      </trkpt>
      <trkpt lat="44.78562" lon="7.0195">
        <ele>2170.31</ele>
        <time>2017-07-09T11:51:06Z</time>
      </trkpt>
      <trkpt lat="44.78556" lon="7.01953">
        <ele>2168.87</ele>
        <time>2017-07-09T11:51:17Z</time>
      </trkpt>
      <trkpt lat="44.78554" lon="7.01949">
        <ele>2168.39</ele>
        <time>2017-07-09T11:51:29Z</time>
      </trkpt>
      <trkpt lat="44.78552" lon="7.01948">
        <ele>2168.39</ele>
        <time>2017-07-09T11:51:55Z</time>
      </trkpt>
      <trkpt lat="44.78551" lon="7.01947">
        <ele>2168.39</ele>
        <time>2017-07-09T11:52:12Z</time>
      </trkpt>
      <trkpt lat="44.78552" lon="7.01948">
        <ele>2168.39</ele>
        <time>2017-07-09T11:52:31Z</time>
      </trkpt>
      <trkpt lat="44.78549" lon="7.0195">
        <ele>2167.91</ele>
        <time>2017-07-09T11:52:33Z</time>
      </trkpt>
      <trkpt lat="44.78546" lon="7.01958">
        <ele>2166.47</ele>
        <time>2017-07-09T11:52:41Z</time>
      </trkpt>
      <trkpt lat="44.78538" lon="7.01963">
        <ele>2165.51</ele>
        <time>2017-07-09T11:52:53Z</time>
      </trkpt>
      <trkpt lat="44.78536" lon="7.01965">
        <ele>2164.55</ele>
        <time>2017-07-09T11:53:03Z</time>
      </trkpt>
      <trkpt lat="44.78534" lon="7.01965">
        <ele>2164.55</ele>
        <time>2017-07-09T11:53:22Z</time>
      </trkpt>
      <trkpt lat="44.78535" lon="7.01966">
        <ele>2163.58</ele>
        <time>2017-07-09T11:53:34Z</time>
      </trkpt>
      <trkpt lat="44.78535" lon="7.01967">
        <ele>2163.58</ele>
        <time>2017-07-09T11:53:36Z</time>
      </trkpt>
      <trkpt lat="44.78533" lon="7.01973">
        <ele>2161.66</ele>
        <time>2017-07-09T11:53:45Z</time>
      </trkpt>
      <trkpt lat="44.78525" lon="7.01978">
        <ele>2160.22</ele>
        <time>2017-07-09T11:53:55Z</time>
      </trkpt>
      <trkpt lat="44.78524" lon="7.01978">
        <ele>2160.22</ele>
        <time>2017-07-09T11:53:56Z</time>
      </trkpt>
      <trkpt lat="44.78518" lon="7.01986">
        <ele>2158.78</ele>
        <time>2017-07-09T11:54:03Z</time>
      </trkpt>
      <trkpt lat="44.78512" lon="7.01987">
        <ele>2157.82</ele>
        <time>2017-07-09T11:54:14Z</time>
      </trkpt>
      <trkpt lat="44.78513" lon="7.01988">
        <ele>2157.34</ele>
        <time>2017-07-09T11:54:16Z</time>
      </trkpt>
      <trkpt lat="44.78511" lon="7.01991">
        <ele>2156.37</ele>
        <time>2017-07-09T11:54:20Z</time>
      </trkpt>
      <trkpt lat="44.78511" lon="7.01995">
        <ele>2155.89</ele>
        <time>2017-07-09T11:54:25Z</time>
      </trkpt>
      <trkpt lat="44.78509" lon="7.01998">
        <ele>2153.97</ele>
        <time>2017-07-09T11:54:34Z</time>
      </trkpt>
      <trkpt lat="44.7851" lon="7.02005">
        <ele>2152.53</ele>
        <time>2017-07-09T11:54:43Z</time>
      </trkpt>
      <trkpt lat="44.7851" lon="7.0201">
        <ele>2151.09</ele>
        <time>2017-07-09T11:54:50Z</time>
      </trkpt>
      <trkpt lat="44.78511" lon="7.02015">
        <ele>2149.65</ele>
        <time>2017-07-09T11:54:58Z</time>
      </trkpt>
      <trkpt lat="44.78512" lon="7.02018">
        <ele>2148.68</ele>
        <time>2017-07-09T11:55:01Z</time>
      </trkpt>
      <trkpt lat="44.78513" lon="7.02023">
        <ele>2146.76</ele>
        <time>2017-07-09T11:55:10Z</time>
      </trkpt>
      <trkpt lat="44.78514" lon="7.02034">
        <ele>2144.36</ele>
        <time>2017-07-09T11:55:22Z</time>
      </trkpt>
      <trkpt lat="44.78512" lon="7.0204">
        <ele>2142.92</ele>
        <time>2017-07-09T11:55:29Z</time>
      </trkpt>
      <trkpt lat="44.78514" lon="7.02046">
        <ele>2141.47</ele>
        <time>2017-07-09T11:55:34Z</time>
      </trkpt>
      <trkpt lat="44.78517" lon="7.0205">
        <ele>2139.07</ele>
        <time>2017-07-09T11:55:43Z</time>
      </trkpt>
      <trkpt lat="44.7852" lon="7.0206">
        <ele>2137.15</ele>
        <time>2017-07-09T11:55:50Z</time>
      </trkpt>
      <trkpt lat="44.78519" lon="7.02073">
        <ele>2136.19</ele>
        <time>2017-07-09T11:55:59Z</time>
      </trkpt>
      <trkpt lat="44.78511" lon="7.02086">
        <ele>2134.74</ele>
        <time>2017-07-09T11:56:08Z</time>
      </trkpt>
      <trkpt lat="44.78507" lon="7.02096">
        <ele>2134.26</ele>
        <time>2017-07-09T11:56:17Z</time>
      </trkpt>
      <trkpt lat="44.78507" lon="7.02096">
        <ele>2134.26</ele>
        <time>2017-07-09T11:56:18Z</time>
      </trkpt>
      <trkpt lat="44.78502" lon="7.02101">
        <ele>2133.78</ele>
        <time>2017-07-09T11:56:22Z</time>
      </trkpt>
      <trkpt lat="44.78491" lon="7.02106">
        <ele>2131.86</ele>
        <time>2017-07-09T11:56:32Z</time>
      </trkpt>
      <trkpt lat="44.78487" lon="7.02103">
        <ele>2130.9</ele>
        <time>2017-07-09T11:56:38Z</time>
      </trkpt>
      <trkpt lat="44.78483" lon="7.02106">
        <ele>2129.46</ele>
        <time>2017-07-09T11:56:51Z</time>
      </trkpt>
      <trkpt lat="44.7848" lon="7.02108">
        <ele>2128.98</ele>
        <time>2017-07-09T11:56:59Z</time>
      </trkpt>
      <trkpt lat="44.78477" lon="7.02112">
        <ele>2128.5</ele>
        <time>2017-07-09T11:57:08Z</time>
      </trkpt>
      <trkpt lat="44.78472" lon="7.02124">
        <ele>2127.05</ele>
        <time>2017-07-09T11:57:18Z</time>
      </trkpt>
      <trkpt lat="44.78463" lon="7.02128">
        <ele>2126.09</ele>
        <time>2017-07-09T11:57:25Z</time>
      </trkpt>
      <trkpt lat="44.78456" lon="7.02133">
        <ele>2124.17</ele>
        <time>2017-07-09T11:57:36Z</time>
      </trkpt>
      <trkpt lat="44.78456" lon="7.02133">
        <ele>2123.69</ele>
        <time>2017-07-09T11:57:37Z</time>
      </trkpt>
      <trkpt lat="44.78448" lon="7.02143">
        <ele>2121.77</ele>
        <time>2017-07-09T11:57:47Z</time>
      </trkpt>
      <trkpt lat="44.78447" lon="7.02144">
        <ele>2121.77</ele>
        <time>2017-07-09T11:57:48Z</time>
      </trkpt>
      <trkpt lat="44.78443" lon="7.02151">
        <ele>2120.81</ele>
        <time>2017-07-09T11:57:52Z</time>
      </trkpt>
      <trkpt lat="44.7844" lon="7.02153">
        <ele>2120.32</ele>
        <time>2017-07-09T11:57:56Z</time>
      </trkpt>
      <trkpt lat="44.78436" lon="7.02162">
        <ele>2119.84</ele>
        <time>2017-07-09T11:58:03Z</time>
      </trkpt>
      <trkpt lat="44.78432" lon="7.02163">
        <ele>2119.36</ele>
        <time>2017-07-09T11:58:09Z</time>
      </trkpt>
      <trkpt lat="44.78425" lon="7.02173">
        <ele>2117.92</ele>
        <time>2017-07-09T11:58:18Z</time>
      </trkpt>
      <trkpt lat="44.78421" lon="7.02175">
        <ele>2117.44</ele>
        <time>2017-07-09T11:58:21Z</time>
      </trkpt>
      <trkpt lat="44.78416" lon="7.02177">
        <ele>2116.48</ele>
        <time>2017-07-09T11:58:28Z</time>
      </trkpt>
      <trkpt lat="44.78413" lon="7.02182">
        <ele>2116</ele>
        <time>2017-07-09T11:58:32Z</time>
      </trkpt>
      <trkpt lat="44.78412" lon="7.02186">
        <ele>2115.52</ele>
        <time>2017-07-09T11:58:35Z</time>
      </trkpt>
      <trkpt lat="44.78409" lon="7.02197">
        <ele>2114.08</ele>
        <time>2017-07-09T11:58:46Z</time>
      </trkpt>
      <trkpt lat="44.78405" lon="7.02202">
        <ele>2113.12</ele>
        <time>2017-07-09T11:58:52Z</time>
      </trkpt>
      <trkpt lat="44.78395" lon="7.02207">
        <ele>2111.67</ele>
        <time>2017-07-09T11:59:04Z</time>
      </trkpt>
      <trkpt lat="44.7839" lon="7.02207">
        <ele>2112.15</ele>
        <time>2017-07-09T11:59:09Z</time>
      </trkpt>
      <trkpt lat="44.78386" lon="7.02216">
        <ele>2110.71</ele>
        <time>2017-07-09T11:59:20Z</time>
      </trkpt>
      <trkpt lat="44.78387" lon="7.02227">
        <ele>2109.27</ele>
        <time>2017-07-09T11:59:28Z</time>
      </trkpt>
      <trkpt lat="44.78388" lon="7.02231">
        <ele>2108.79</ele>
        <time>2017-07-09T11:59:31Z</time>
      </trkpt>
      <trkpt lat="44.78386" lon="7.02242">
        <ele>2107.83</ele>
        <time>2017-07-09T11:59:39Z</time>
      </trkpt>
      <trkpt lat="44.78384" lon="7.02248">
        <ele>2106.87</ele>
        <time>2017-07-09T11:59:43Z</time>
      </trkpt>
      <trkpt lat="44.78377" lon="7.02261">
        <ele>2105.91</ele>
        <time>2017-07-09T11:59:52Z</time>
      </trkpt>
      <trkpt lat="44.78375" lon="7.02269">
        <ele>2105.91</ele>
        <time>2017-07-09T11:59:58Z</time>
      </trkpt>
      <trkpt lat="44.78368" lon="7.0228">
        <ele>2103.98</ele>
        <time>2017-07-09T12:00:07Z</time>
      </trkpt>
      <trkpt lat="44.78367" lon="7.02282">
        <ele>2103.98</ele>
        <time>2017-07-09T12:00:09Z</time>
      </trkpt>
      <trkpt lat="44.78366" lon="7.02288">
        <ele>2103.98</ele>
        <time>2017-07-09T12:00:12Z</time>
      </trkpt>
      <trkpt lat="44.78363" lon="7.02295">
        <ele>2103.5</ele>
        <time>2017-07-09T12:00:17Z</time>
      </trkpt>
      <trkpt lat="44.7836" lon="7.02301">
        <ele>2103.5</ele>
        <time>2017-07-09T12:00:21Z</time>
      </trkpt>
      <trkpt lat="44.78354" lon="7.02304">
        <ele>2102.54</ele>
        <time>2017-07-09T12:00:26Z</time>
      </trkpt>
      <trkpt lat="44.78353" lon="7.02307">
        <ele>2102.54</ele>
        <time>2017-07-09T12:00:28Z</time>
      </trkpt>
      <trkpt lat="44.78344" lon="7.02321">
        <ele>2101.58</ele>
        <time>2017-07-09T12:00:39Z</time>
      </trkpt>
      <trkpt lat="44.78343" lon="7.02324">
        <ele>2100.62</ele>
        <time>2017-07-09T12:00:46Z</time>
      </trkpt>
      <trkpt lat="44.78341" lon="7.02327">
        <ele>2101.1</ele>
        <time>2017-07-09T12:00:49Z</time>
      </trkpt>
      <trkpt lat="44.78336" lon="7.02331">
        <ele>2099.66</ele>
        <time>2017-07-09T12:00:53Z</time>
      </trkpt>
      <trkpt lat="44.78335" lon="7.02345">
        <ele>2097.25</ele>
        <time>2017-07-09T12:01:04Z</time>
      </trkpt>
      <trkpt lat="44.78335" lon="7.02356">
        <ele>2095.33</ele>
        <time>2017-07-09T12:01:13Z</time>
      </trkpt>
      <trkpt lat="44.78333" lon="7.02362">
        <ele>2095.33</ele>
        <time>2017-07-09T12:01:17Z</time>
      </trkpt>
      <trkpt lat="44.78332" lon="7.02368">
        <ele>2092.93</ele>
        <time>2017-07-09T12:01:23Z</time>
      </trkpt>
      <trkpt lat="44.78327" lon="7.0237">
        <ele>2091.97</ele>
        <time>2017-07-09T12:01:28Z</time>
      </trkpt>
      <trkpt lat="44.78324" lon="7.02371">
        <ele>2091.49</ele>
        <time>2017-07-09T12:01:30Z</time>
      </trkpt>
      <trkpt lat="44.78322" lon="7.02376">
        <ele>2091</ele>
        <time>2017-07-09T12:01:35Z</time>
      </trkpt>
      <trkpt lat="44.78319" lon="7.02379">
        <ele>2091</ele>
        <time>2017-07-09T12:01:39Z</time>
      </trkpt>
      <trkpt lat="44.78318" lon="7.02383">
        <ele>2090.52</ele>
        <time>2017-07-09T12:01:43Z</time>
      </trkpt>
      <trkpt lat="44.78318" lon="7.02387">
        <ele>2089.08</ele>
        <time>2017-07-09T12:01:46Z</time>
      </trkpt>
      <trkpt lat="44.78316" lon="7.02392">
        <ele>2088.6</ele>
        <time>2017-07-09T12:01:50Z</time>
      </trkpt>
      <trkpt lat="44.78316" lon="7.02397">
        <ele>2087.64</ele>
        <time>2017-07-09T12:01:53Z</time>
      </trkpt>
      <trkpt lat="44.78314" lon="7.02399">
        <ele>2087.64</ele>
        <time>2017-07-09T12:01:57Z</time>
      </trkpt>
      <trkpt lat="44.78307" lon="7.02403">
        <ele>2086.2</ele>
        <time>2017-07-09T12:02:09Z</time>
      </trkpt>
      <trkpt lat="44.78304" lon="7.02406">
        <ele>2085.72</ele>
        <time>2017-07-09T12:02:14Z</time>
      </trkpt>
      <trkpt lat="44.783" lon="7.02416">
        <ele>2085.24</ele>
        <time>2017-07-09T12:02:23Z</time>
      </trkpt>
      <trkpt lat="44.78294" lon="7.02422">
        <ele>2085.72</ele>
        <time>2017-07-09T12:02:34Z</time>
      </trkpt>
      <trkpt lat="44.78294" lon="7.02424">
        <ele>2085.24</ele>
        <time>2017-07-09T12:02:35Z</time>
      </trkpt>
      <trkpt lat="44.7829" lon="7.0243">
        <ele>2085.24</ele>
        <time>2017-07-09T12:02:48Z</time>
      </trkpt>
      <trkpt lat="44.7829" lon="7.0243">
        <ele>2085.24</ele>
        <time>2017-07-09T12:02:51Z</time>
      </trkpt>
      <trkpt lat="44.78289" lon="7.0244">
        <ele>2085.72</ele>
        <time>2017-07-09T12:03:01Z</time>
      </trkpt>
      <trkpt lat="44.78289" lon="7.02441">
        <ele>2085.72</ele>
        <time>2017-07-09T12:03:02Z</time>
      </trkpt>
      <trkpt lat="44.78285" lon="7.02454">
        <ele>2084.28</ele>
        <time>2017-07-09T12:03:12Z</time>
      </trkpt>
      <trkpt lat="44.78282" lon="7.02462">
        <ele>2084.76</ele>
        <time>2017-07-09T12:03:21Z</time>
      </trkpt>
      <trkpt lat="44.7828" lon="7.02476">
        <ele>2083.79</ele>
        <time>2017-07-09T12:03:31Z</time>
      </trkpt>
      <trkpt lat="44.78275" lon="7.02487">
        <ele>2084.28</ele>
        <time>2017-07-09T12:03:39Z</time>
      </trkpt>
      <trkpt lat="44.78275" lon="7.02493">
        <ele>2082.83</ele>
        <time>2017-07-09T12:03:46Z</time>
      </trkpt>
      <trkpt lat="44.7827" lon="7.02506">
        <ele>2082.83</ele>
        <time>2017-07-09T12:03:54Z</time>
      </trkpt>
      <trkpt lat="44.78267" lon="7.02515">
        <ele>2083.31</ele>
        <time>2017-07-09T12:04:01Z</time>
      </trkpt>
      <trkpt lat="44.78263" lon="7.0253">
        <ele>2082.83</ele>
        <time>2017-07-09T12:04:13Z</time>
      </trkpt>
      <trkpt lat="44.78261" lon="7.02535">
        <ele>2080.91</ele>
        <time>2017-07-09T12:04:22Z</time>
      </trkpt>
      <trkpt lat="44.78261" lon="7.02542">
        <ele>2081.39</ele>
        <time>2017-07-09T12:04:31Z</time>
      </trkpt>
      <trkpt lat="44.7826" lon="7.02551">
        <ele>2080.91</ele>
        <time>2017-07-09T12:04:38Z</time>
      </trkpt>
      <trkpt lat="44.78256" lon="7.0256">
        <ele>2078.99</ele>
        <time>2017-07-09T12:04:50Z</time>
      </trkpt>
      <trkpt lat="44.78256" lon="7.02567">
        <ele>2077.07</ele>
        <time>2017-07-09T12:05:02Z</time>
      </trkpt>
      <trkpt lat="44.78256" lon="7.02578">
        <ele>2075.62</ele>
        <time>2017-07-09T12:05:12Z</time>
      </trkpt>
      <trkpt lat="44.78252" lon="7.02588">
        <ele>2074.66</ele>
        <time>2017-07-09T12:05:23Z</time>
      </trkpt>
      <trkpt lat="44.78251" lon="7.02593">
        <ele>2074.66</ele>
        <time>2017-07-09T12:05:26Z</time>
      </trkpt>
      <trkpt lat="44.78251" lon="7.02598">
        <ele>2075.14</ele>
        <time>2017-07-09T12:05:31Z</time>
      </trkpt>
      <trkpt lat="44.78248" lon="7.02607">
        <ele>2076.59</ele>
        <time>2017-07-09T12:05:41Z</time>
      </trkpt>
      <trkpt lat="44.78247" lon="7.02616">
        <ele>2078.51</ele>
        <time>2017-07-09T12:05:52Z</time>
      </trkpt>
      <trkpt lat="44.78246" lon="7.0262">
        <ele>2080.91</ele>
        <time>2017-07-09T12:06:03Z</time>
      </trkpt>
      <trkpt lat="44.78245" lon="7.0262">
        <ele>2080.91</ele>
        <time>2017-07-09T12:06:04Z</time>
      </trkpt>
      <trkpt lat="44.78242" lon="7.02626">
        <ele>2080.91</ele>
        <time>2017-07-09T12:06:09Z</time>
      </trkpt>
      <trkpt lat="44.78238" lon="7.02634">
        <ele>2080.43</ele>
        <time>2017-07-09T12:06:13Z</time>
      </trkpt>
      <trkpt lat="44.78234" lon="7.02637">
        <ele>2080.91</ele>
        <time>2017-07-09T12:06:17Z</time>
      </trkpt>
      <trkpt lat="44.78231" lon="7.02645">
        <ele>2079.47</ele>
        <time>2017-07-09T12:06:24Z</time>
      </trkpt>
      <trkpt lat="44.7823" lon="7.0266">
        <ele>2078.03</ele>
        <time>2017-07-09T12:06:35Z</time>
      </trkpt>
      <trkpt lat="44.7823" lon="7.02663">
        <ele>2077.55</ele>
        <time>2017-07-09T12:06:37Z</time>
      </trkpt>
      <trkpt lat="44.7823" lon="7.02672">
        <ele>2077.07</ele>
        <time>2017-07-09T12:06:44Z</time>
      </trkpt>
      <trkpt lat="44.78231" lon="7.02678">
        <ele>2076.59</ele>
        <time>2017-07-09T12:06:47Z</time>
      </trkpt>
      <trkpt lat="44.7823" lon="7.02684">
        <ele>2076.1</ele>
        <time>2017-07-09T12:06:51Z</time>
      </trkpt>
      <trkpt lat="44.78231" lon="7.02691">
        <ele>2075.62</ele>
        <time>2017-07-09T12:06:56Z</time>
      </trkpt>
      <trkpt lat="44.7823" lon="7.02705">
        <ele>2074.66</ele>
        <time>2017-07-09T12:07:04Z</time>
      </trkpt>
      <trkpt lat="44.78228" lon="7.0272">
        <ele>2073.22</ele>
        <time>2017-07-09T12:07:15Z</time>
      </trkpt>
      <trkpt lat="44.78228" lon="7.02727">
        <ele>2073.7</ele>
        <time>2017-07-09T12:07:20Z</time>
      </trkpt>
      <trkpt lat="44.78227" lon="7.02734">
        <ele>2073.7</ele>
        <time>2017-07-09T12:07:23Z</time>
      </trkpt>
      <trkpt lat="44.78226" lon="7.02739">
        <ele>2073.22</ele>
        <time>2017-07-09T12:07:26Z</time>
      </trkpt>
      <trkpt lat="44.78228" lon="7.02747">
        <ele>2073.22</ele>
        <time>2017-07-09T12:07:29Z</time>
      </trkpt>
      <trkpt lat="44.78229" lon="7.02753">
        <ele>2073.22</ele>
        <time>2017-07-09T12:07:33Z</time>
      </trkpt>
      <trkpt lat="44.78227" lon="7.02764">
        <ele>2073.22</ele>
        <time>2017-07-09T12:07:40Z</time>
      </trkpt>
      <trkpt lat="44.78228" lon="7.02781">
        <ele>2072.26</ele>
        <time>2017-07-09T12:07:52Z</time>
      </trkpt>
      <trkpt lat="44.78226" lon="7.02784">
        <ele>2071.78</ele>
        <time>2017-07-09T12:08:02Z</time>
      </trkpt>
      <trkpt lat="44.78226" lon="7.02783">
        <ele>2071.78</ele>
        <time>2017-07-09T12:08:12Z</time>
      </trkpt>
      <trkpt lat="44.78226" lon="7.0278">
        <ele>2071.78</ele>
        <time>2017-07-09T12:08:28Z</time>
      </trkpt>
      <trkpt lat="44.78227" lon="7.02783">
        <ele>2072.74</ele>
        <time>2017-07-09T12:08:49Z</time>
      </trkpt>
      <trkpt lat="44.78227" lon="7.02783">
        <ele>2072.74</ele>
        <time>2017-07-09T12:09:01Z</time>
      </trkpt>
      <trkpt lat="44.78227" lon="7.02782">
        <ele>2073.22</ele>
        <time>2017-07-09T12:09:19Z</time>
      </trkpt>
      <trkpt lat="44.78227" lon="7.02782">
        <ele>2073.7</ele>
        <time>2017-07-09T12:09:37Z</time>
      </trkpt>
      <trkpt lat="44.78227" lon="7.02786">
        <ele>2073.7</ele>
        <time>2017-07-09T12:09:41Z</time>
      </trkpt>
      <trkpt lat="44.78227" lon="7.02791">
        <ele>2073.22</ele>
        <time>2017-07-09T12:09:45Z</time>
      </trkpt>
      <trkpt lat="44.78228" lon="7.02794">
        <ele>2073.7</ele>
        <time>2017-07-09T12:09:58Z</time>
      </trkpt>
      <trkpt lat="44.78226" lon="7.02795">
        <ele>2072.26</ele>
        <time>2017-07-09T12:10:16Z</time>
      </trkpt>
      <trkpt lat="44.78224" lon="7.02794">
        <ele>2071.78</ele>
        <time>2017-07-09T12:10:31Z</time>
      </trkpt>
      <trkpt lat="44.78224" lon="7.02794">
        <ele>2071.78</ele>
        <time>2017-07-09T12:10:59Z</time>
      </trkpt>
      <trkpt lat="44.78224" lon="7.0279">
        <ele>2072.26</ele>
        <time>2017-07-09T12:11:04Z</time>
      </trkpt>
      <trkpt lat="44.78226" lon="7.02786">
        <ele>2072.26</ele>
        <time>2017-07-09T12:11:16Z</time>
      </trkpt>
      <trkpt lat="44.78226" lon="7.02788">
        <ele>2072.26</ele>
        <time>2017-07-09T12:11:29Z</time>
      </trkpt>
      <trkpt lat="44.78222" lon="7.028">
        <ele>2071.3</ele>
        <time>2017-07-09T12:11:39Z</time>
      </trkpt>
      <trkpt lat="44.78216" lon="7.02812">
        <ele>2070.34</ele>
        <time>2017-07-09T12:11:50Z</time>
      </trkpt>
      <trkpt lat="44.78215" lon="7.02813">
        <ele>2069.86</ele>
        <time>2017-07-09T12:11:51Z</time>
      </trkpt>
      <trkpt lat="44.7821" lon="7.02822">
        <ele>2068.41</ele>
        <time>2017-07-09T12:12:01Z</time>
      </trkpt>
      <trkpt lat="44.78204" lon="7.02831">
        <ele>2066.97</ele>
        <time>2017-07-09T12:12:10Z</time>
      </trkpt>
      <trkpt lat="44.78201" lon="7.02837">
        <ele>2066.01</ele>
        <time>2017-07-09T12:12:19Z</time>
      </trkpt>
      <trkpt lat="44.78203" lon="7.02849">
        <ele>2067.45</ele>
        <time>2017-07-09T12:12:30Z</time>
      </trkpt>
      <trkpt lat="44.78203" lon="7.02851">
        <ele>2067.93</ele>
        <time>2017-07-09T12:12:33Z</time>
      </trkpt>
      <trkpt lat="44.78201" lon="7.02861">
        <ele>2068.89</ele>
        <time>2017-07-09T12:12:41Z</time>
      </trkpt>
      <trkpt lat="44.782" lon="7.02877">
        <ele>2070.34</ele>
        <time>2017-07-09T12:12:52Z</time>
      </trkpt>
      <trkpt lat="44.782" lon="7.02879">
        <ele>2070.34</ele>
        <time>2017-07-09T12:12:53Z</time>
      </trkpt>
      <trkpt lat="44.78193" lon="7.02891">
        <ele>2069.86</ele>
        <time>2017-07-09T12:13:01Z</time>
      </trkpt>
      <trkpt lat="44.78183" lon="7.02903">
        <ele>2070.34</ele>
        <time>2017-07-09T12:13:11Z</time>
      </trkpt>
      <trkpt lat="44.7818" lon="7.02907">
        <ele>2070.82</ele>
        <time>2017-07-09T12:13:15Z</time>
      </trkpt>
      <trkpt lat="44.78179" lon="7.02914">
        <ele>2071.78</ele>
        <time>2017-07-09T12:13:21Z</time>
      </trkpt>
      <trkpt lat="44.78179" lon="7.02929">
        <ele>2073.7</ele>
        <time>2017-07-09T12:13:33Z</time>
      </trkpt>
      <trkpt lat="44.78177" lon="7.02936">
        <ele>2074.18</ele>
        <time>2017-07-09T12:13:38Z</time>
      </trkpt>
      <trkpt lat="44.78177" lon="7.02946">
        <ele>2074.66</ele>
        <time>2017-07-09T12:13:45Z</time>
      </trkpt>
      <trkpt lat="44.78172" lon="7.02962">
        <ele>2075.14</ele>
        <time>2017-07-09T12:13:55Z</time>
      </trkpt>
      <trkpt lat="44.7817" lon="7.0297">
        <ele>2076.1</ele>
        <time>2017-07-09T12:14:03Z</time>
      </trkpt>
      <trkpt lat="44.78169" lon="7.02975">
        <ele>2077.07</ele>
        <time>2017-07-09T12:14:08Z</time>
      </trkpt>
      <trkpt lat="44.7817" lon="7.02987">
        <ele>2078.99</ele>
        <time>2017-07-09T12:14:19Z</time>
      </trkpt>
      <trkpt lat="44.78172" lon="7.02994">
        <ele>2080.91</ele>
        <time>2017-07-09T12:14:29Z</time>
      </trkpt>
      <trkpt lat="44.7817" lon="7.03002">
        <ele>2083.31</ele>
        <time>2017-07-09T12:14:40Z</time>
      </trkpt>
      <trkpt lat="44.78166" lon="7.03008">
        <ele>2085.24</ele>
        <time>2017-07-09T12:14:51Z</time>
      </trkpt>
      <trkpt lat="44.78162" lon="7.03011">
        <ele>2086.68</ele>
        <time>2017-07-09T12:14:59Z</time>
      </trkpt>
      <trkpt lat="44.78156" lon="7.03016">
        <ele>2087.64</ele>
        <time>2017-07-09T12:15:06Z</time>
      </trkpt>
      <trkpt lat="44.78152" lon="7.03024">
        <ele>2087.16</ele>
        <time>2017-07-09T12:15:13Z</time>
      </trkpt>
      <trkpt lat="44.78152" lon="7.03039">
        <ele>2084.76</ele>
        <time>2017-07-09T12:15:25Z</time>
      </trkpt>
      <trkpt lat="44.78152" lon="7.0304">
        <ele>2084.28</ele>
        <time>2017-07-09T12:15:26Z</time>
      </trkpt>
      <trkpt lat="44.78158" lon="7.03052">
        <ele>2081.87</ele>
        <time>2017-07-09T12:15:36Z</time>
      </trkpt>
      <trkpt lat="44.78156" lon="7.03054">
        <ele>2080.91</ele>
        <time>2017-07-09T12:15:39Z</time>
      </trkpt>
      <trkpt lat="44.78145" lon="7.03053">
        <ele>2078.03</ele>
        <time>2017-07-09T12:15:50Z</time>
      </trkpt>
      <trkpt lat="44.78141" lon="7.03047">
        <ele>2076.59</ele>
        <time>2017-07-09T12:15:55Z</time>
      </trkpt>
      <trkpt lat="44.78139" lon="7.03046">
        <ele>2076.1</ele>
        <time>2017-07-09T12:15:57Z</time>
      </trkpt>
      <trkpt lat="44.78137" lon="7.03044">
        <ele>2075.62</ele>
        <time>2017-07-09T12:16:10Z</time>
      </trkpt>
      <trkpt lat="44.7813" lon="7.03041">
        <ele>2074.66</ele>
        <time>2017-07-09T12:16:21Z</time>
      </trkpt>
      <trkpt lat="44.78129" lon="7.0304">
        <ele>2074.18</ele>
        <time>2017-07-09T12:16:23Z</time>
      </trkpt>
      <trkpt lat="44.78126" lon="7.03041">
        <ele>2073.7</ele>
        <time>2017-07-09T12:16:26Z</time>
      </trkpt>
      <trkpt lat="44.78116" lon="7.0304">
        <ele>2073.7</ele>
        <time>2017-07-09T12:16:35Z</time>
      </trkpt>
      <trkpt lat="44.78112" lon="7.03043">
        <ele>2073.7</ele>
        <time>2017-07-09T12:16:44Z</time>
      </trkpt>
      <trkpt lat="44.78112" lon="7.03062">
        <ele>2073.7</ele>
        <time>2017-07-09T12:16:56Z</time>
      </trkpt>
      <trkpt lat="44.78112" lon="7.03066">
        <ele>2074.18</ele>
        <time>2017-07-09T12:17:00Z</time>
      </trkpt>
      <trkpt lat="44.78107" lon="7.03079">
        <ele>2074.18</ele>
        <time>2017-07-09T12:17:09Z</time>
      </trkpt>
      <trkpt lat="44.78106" lon="7.03082">
        <ele>2074.18</ele>
        <time>2017-07-09T12:17:11Z</time>
      </trkpt>
      <trkpt lat="44.78104" lon="7.03091">
        <ele>2073.7</ele>
        <time>2017-07-09T12:17:17Z</time>
      </trkpt>
      <trkpt lat="44.78094" lon="7.03106">
        <ele>2074.18</ele>
        <time>2017-07-09T12:17:28Z</time>
      </trkpt>
      <trkpt lat="44.78092" lon="7.0311">
        <ele>2074.66</ele>
        <time>2017-07-09T12:17:32Z</time>
      </trkpt>
      <trkpt lat="44.78089" lon="7.03116">
        <ele>2075.14</ele>
        <time>2017-07-09T12:17:37Z</time>
      </trkpt>
      <trkpt lat="44.78083" lon="7.03129">
        <ele>2075.62</ele>
        <time>2017-07-09T12:17:47Z</time>
      </trkpt>
      <trkpt lat="44.78083" lon="7.03129">
        <ele>2075.62</ele>
        <time>2017-07-09T12:17:48Z</time>
      </trkpt>
      <trkpt lat="44.78079" lon="7.0314">
        <ele>2077.07</ele>
        <time>2017-07-09T12:17:58Z</time>
      </trkpt>
      <trkpt lat="44.78079" lon="7.03143">
        <ele>2077.55</ele>
        <time>2017-07-09T12:18:01Z</time>
      </trkpt>
      <trkpt lat="44.78081" lon="7.03154">
        <ele>2078.99</ele>
        <time>2017-07-09T12:18:12Z</time>
      </trkpt>
      <trkpt lat="44.78078" lon="7.03153">
        <ele>2079.47</ele>
        <time>2017-07-09T12:18:23Z</time>
      </trkpt>
      <trkpt lat="44.78076" lon="7.03154">
        <ele>2078.03</ele>
        <time>2017-07-09T12:18:31Z</time>
      </trkpt>
      <trkpt lat="44.78076" lon="7.03154">
        <ele>2079.47</ele>
        <time>2017-07-09T12:18:33Z</time>
      </trkpt>
      <trkpt lat="44.78074" lon="7.03153">
        <ele>2083.31</ele>
        <time>2017-07-09T12:18:41Z</time>
      </trkpt>
      <trkpt lat="44.78074" lon="7.03153">
        <ele>2080.43</ele>
        <time>2017-07-09T12:18:42Z</time>
      </trkpt>
      <trkpt lat="44.78075" lon="7.03153">
        <ele>2079.95</ele>
        <time>2017-07-09T12:18:44Z</time>
      </trkpt>
      <trkpt lat="44.78075" lon="7.03151">
        <ele>2079.47</ele>
        <time>2017-07-09T12:18:56Z</time>
      </trkpt>
      <trkpt lat="44.78075" lon="7.03156">
        <ele>2079.47</ele>
        <time>2017-07-09T12:19:15Z</time>
      </trkpt>
      <trkpt lat="44.78075" lon="7.0316">
        <ele>2079.95</ele>
        <time>2017-07-09T12:19:18Z</time>
      </trkpt>
      <trkpt lat="44.78076" lon="7.03178">
        <ele>2079.47</ele>
        <time>2017-07-09T12:19:29Z</time>
      </trkpt>
      <trkpt lat="44.78077" lon="7.0318">
        <ele>2079.47</ele>
        <time>2017-07-09T12:19:30Z</time>
      </trkpt>
      <trkpt lat="44.78078" lon="7.03188">
        <ele>2078.99</ele>
        <time>2017-07-09T12:19:37Z</time>
      </trkpt>
      <trkpt lat="44.78075" lon="7.03189">
        <ele>2079.47</ele>
        <time>2017-07-09T12:19:51Z</time>
      </trkpt>
      <trkpt lat="44.78074" lon="7.03199">
        <ele>2078.99</ele>
        <time>2017-07-09T12:19:59Z</time>
      </trkpt>
      <trkpt lat="44.78076" lon="7.03209">
        <ele>2078.99</ele>
        <time>2017-07-09T12:20:05Z</time>
      </trkpt>
      <trkpt lat="44.78075" lon="7.03214">
        <ele>2078.51</ele>
        <time>2017-07-09T12:20:09Z</time>
      </trkpt>
      <trkpt lat="44.78074" lon="7.03228">
        <ele>2077.55</ele>
        <time>2017-07-09T12:20:20Z</time>
      </trkpt>
      <trkpt lat="44.78073" lon="7.03239">
        <ele>2077.55</ele>
        <time>2017-07-09T12:20:27Z</time>
      </trkpt>
      <trkpt lat="44.7807" lon="7.03256">
        <ele>2077.07</ele>
        <time>2017-07-09T12:20:37Z</time>
      </trkpt>
      <trkpt lat="44.78073" lon="7.03264">
        <ele>2077.07</ele>
        <time>2017-07-09T12:20:43Z</time>
      </trkpt>
      <trkpt lat="44.78074" lon="7.03283">
        <ele>2078.03</ele>
        <time>2017-07-09T12:20:54Z</time>
      </trkpt>
      <trkpt lat="44.78075" lon="7.03306">
        <ele>2078.03</ele>
        <time>2017-07-09T12:21:08Z</time>
      </trkpt>
      <trkpt lat="44.78074" lon="7.03315">
        <ele>2077.55</ele>
        <time>2017-07-09T12:21:15Z</time>
      </trkpt>
      <trkpt lat="44.7807" lon="7.03329">
        <ele>2076.59</ele>
        <time>2017-07-09T12:21:23Z</time>
      </trkpt>
      <trkpt lat="44.78068" lon="7.0334">
        <ele>2074.66</ele>
        <time>2017-07-09T12:21:32Z</time>
      </trkpt>
      <trkpt lat="44.78066" lon="7.03348">
        <ele>2074.18</ele>
        <time>2017-07-09T12:21:37Z</time>
      </trkpt>
      <trkpt lat="44.78063" lon="7.03365">
        <ele>2073.7</ele>
        <time>2017-07-09T12:21:46Z</time>
      </trkpt>
      <trkpt lat="44.78063" lon="7.03366">
        <ele>2073.22</ele>
        <time>2017-07-09T12:21:47Z</time>
      </trkpt>
      <trkpt lat="44.78053" lon="7.03382">
        <ele>2072.26</ele>
        <time>2017-07-09T12:21:57Z</time>
      </trkpt>
      <trkpt lat="44.78051" lon="7.03385">
        <ele>2072.26</ele>
        <time>2017-07-09T12:22:00Z</time>
      </trkpt>
      <trkpt lat="44.78047" lon="7.03391">
        <ele>2071.78</ele>
        <time>2017-07-09T12:22:04Z</time>
      </trkpt>
      <trkpt lat="44.7804" lon="7.03407">
        <ele>2070.82</ele>
        <time>2017-07-09T12:22:14Z</time>
      </trkpt>
      <trkpt lat="44.78031" lon="7.03424">
        <ele>2069.38</ele>
        <time>2017-07-09T12:22:25Z</time>
      </trkpt>
      <trkpt lat="44.78029" lon="7.03434">
        <ele>2068.41</ele>
        <time>2017-07-09T12:22:35Z</time>
      </trkpt>
      <trkpt lat="44.7802" lon="7.0345">
        <ele>2068.89</ele>
        <time>2017-07-09T12:22:46Z</time>
      </trkpt>
      <trkpt lat="44.78013" lon="7.03459">
        <ele>2066.97</ele>
        <time>2017-07-09T12:22:56Z</time>
      </trkpt>
      <trkpt lat="44.78012" lon="7.03466">
        <ele>2065.53</ele>
        <time>2017-07-09T12:23:01Z</time>
      </trkpt>
      <trkpt lat="44.78012" lon="7.03473">
        <ele>2065.53</ele>
        <time>2017-07-09T12:23:04Z</time>
      </trkpt>
      <trkpt lat="44.78012" lon="7.03482">
        <ele>2062.65</ele>
        <time>2017-07-09T12:23:12Z</time>
      </trkpt>
      <trkpt lat="44.78018" lon="7.03481">
        <ele>2061.68</ele>
        <time>2017-07-09T12:23:20Z</time>
      </trkpt>
      <trkpt lat="44.78017" lon="7.03489">
        <ele>2060.24</ele>
        <time>2017-07-09T12:23:26Z</time>
      </trkpt>
      <trkpt lat="44.78019" lon="7.03493">
        <ele>2058.8</ele>
        <time>2017-07-09T12:23:31Z</time>
      </trkpt>
      <trkpt lat="44.7802" lon="7.03503">
        <ele>2057.36</ele>
        <time>2017-07-09T12:23:38Z</time>
      </trkpt>
      <trkpt lat="44.78019" lon="7.03504">
        <ele>2056.88</ele>
        <time>2017-07-09T12:23:40Z</time>
      </trkpt>
      <trkpt lat="44.78014" lon="7.03521">
        <ele>2053.99</ele>
        <time>2017-07-09T12:23:53Z</time>
      </trkpt>
      <trkpt lat="44.78011" lon="7.03532">
        <ele>2051.59</ele>
        <time>2017-07-09T12:24:02Z</time>
      </trkpt>
      <trkpt lat="44.78009" lon="7.03546">
        <ele>2049.19</ele>
        <time>2017-07-09T12:24:13Z</time>
      </trkpt>
      <trkpt lat="44.78008" lon="7.03561">
        <ele>2046.3</ele>
        <time>2017-07-09T12:24:26Z</time>
      </trkpt>
      <trkpt lat="44.77998" lon="7.03574">
        <ele>2043.9</ele>
        <time>2017-07-09T12:24:39Z</time>
      </trkpt>
      <trkpt lat="44.77996" lon="7.03575">
        <ele>2043.9</ele>
        <time>2017-07-09T12:24:41Z</time>
      </trkpt>
      <trkpt lat="44.77988" lon="7.03566">
        <ele>2040.54</ele>
        <time>2017-07-09T12:24:54Z</time>
      </trkpt>
      <trkpt lat="44.77987" lon="7.03564">
        <ele>2040.54</ele>
        <time>2017-07-09T12:24:56Z</time>
      </trkpt>
      <trkpt lat="44.77986" lon="7.0356">
        <ele>2040.05</ele>
        <time>2017-07-09T12:24:58Z</time>
      </trkpt>
      <trkpt lat="44.77978" lon="7.03546">
        <ele>2038.61</ele>
        <time>2017-07-09T12:25:06Z</time>
      </trkpt>
      <trkpt lat="44.77975" lon="7.03536">
        <ele>2037.17</ele>
        <time>2017-07-09T12:25:13Z</time>
      </trkpt>
      <trkpt lat="44.77971" lon="7.03525">
        <ele>2036.21</ele>
        <time>2017-07-09T12:25:20Z</time>
      </trkpt>
      <trkpt lat="44.7797" lon="7.03519">
        <ele>2035.73</ele>
        <time>2017-07-09T12:25:23Z</time>
      </trkpt>
      <trkpt lat="44.77967" lon="7.03518">
        <ele>2034.77</ele>
        <time>2017-07-09T12:25:29Z</time>
      </trkpt>
      <trkpt lat="44.77964" lon="7.03524">
        <ele>2032.84</ele>
        <time>2017-07-09T12:25:41Z</time>
      </trkpt>
      <trkpt lat="44.77965" lon="7.03524">
        <ele>2032.84</ele>
        <time>2017-07-09T12:26:10Z</time>
      </trkpt>
      <trkpt lat="44.77965" lon="7.03527">
        <ele>2031.4</ele>
        <time>2017-07-09T12:26:24Z</time>
      </trkpt>
      <trkpt lat="44.77965" lon="7.03529">
        <ele>2030.92</ele>
        <time>2017-07-09T12:26:26Z</time>
      </trkpt>
      <trkpt lat="44.77964" lon="7.03534">
        <ele>2029.96</ele>
        <time>2017-07-09T12:26:30Z</time>
      </trkpt>
      <trkpt lat="44.77963" lon="7.03539">
        <ele>2028.04</ele>
        <time>2017-07-09T12:26:34Z</time>
      </trkpt>
      <trkpt lat="44.7796" lon="7.03547">
        <ele>2025.15</ele>
        <time>2017-07-09T12:26:43Z</time>
      </trkpt>
      <trkpt lat="44.7796" lon="7.03564">
        <ele>2021.79</ele>
        <time>2017-07-09T12:26:54Z</time>
      </trkpt>
      <trkpt lat="44.77957" lon="7.03566">
        <ele>2020.35</ele>
        <time>2017-07-09T12:26:59Z</time>
      </trkpt>
      <trkpt lat="44.77953" lon="7.03572">
        <ele>2018.91</ele>
        <time>2017-07-09T12:27:06Z</time>
      </trkpt>
      <trkpt lat="44.7795" lon="7.03578">
        <ele>2016.5</ele>
        <time>2017-07-09T12:27:14Z</time>
      </trkpt>
      <trkpt lat="44.77943" lon="7.0359">
        <ele>2013.14</ele>
        <time>2017-07-09T12:27:26Z</time>
      </trkpt>
      <trkpt lat="44.77941" lon="7.03598">
        <ele>2011.7</ele>
        <time>2017-07-09T12:27:33Z</time>
      </trkpt>
      <trkpt lat="44.77941" lon="7.03603">
        <ele>2010.73</ele>
        <time>2017-07-09T12:27:37Z</time>
      </trkpt>
      <trkpt lat="44.77942" lon="7.03607">
        <ele>2010.25</ele>
        <time>2017-07-09T12:27:39Z</time>
      </trkpt>
      <trkpt lat="44.77942" lon="7.03622">
        <ele>2007.37</ele>
        <time>2017-07-09T12:27:50Z</time>
      </trkpt>
      <trkpt lat="44.7794" lon="7.0363">
        <ele>2005.45</ele>
        <time>2017-07-09T12:28:00Z</time>
      </trkpt>
      <trkpt lat="44.77939" lon="7.03633">
        <ele>2004.97</ele>
        <time>2017-07-09T12:28:02Z</time>
      </trkpt>
      <trkpt lat="44.77936" lon="7.0365">
        <ele>2003.52</ele>
        <time>2017-07-09T12:28:15Z</time>
      </trkpt>
      <trkpt lat="44.77937" lon="7.03672">
        <ele>2003.04</ele>
        <time>2017-07-09T12:28:29Z</time>
      </trkpt>
      <trkpt lat="44.77938" lon="7.03675">
        <ele>2003.04</ele>
        <time>2017-07-09T12:28:31Z</time>
      </trkpt>
      <trkpt lat="44.77932" lon="7.037">
        <ele>2001.6</ele>
        <time>2017-07-09T12:28:45Z</time>
      </trkpt>
      <trkpt lat="44.77933" lon="7.03702">
        <ele>2001.6</ele>
        <time>2017-07-09T12:28:46Z</time>
      </trkpt>
      <trkpt lat="44.77941" lon="7.03717">
        <ele>2000.64</ele>
        <time>2017-07-09T12:28:57Z</time>
      </trkpt>
      <trkpt lat="44.77942" lon="7.03719">
        <ele>2000.64</ele>
        <time>2017-07-09T12:28:59Z</time>
      </trkpt>
      <trkpt lat="44.77947" lon="7.03725">
        <ele>1999.2</ele>
        <time>2017-07-09T12:29:05Z</time>
      </trkpt>
      <trkpt lat="44.77953" lon="7.03729">
        <ele>1997.76</ele>
        <time>2017-07-09T12:29:13Z</time>
      </trkpt>
      <trkpt lat="44.77955" lon="7.03733">
        <ele>1996.8</ele>
        <time>2017-07-09T12:29:16Z</time>
      </trkpt>
      <trkpt lat="44.77958" lon="7.03734">
        <ele>1994.39</ele>
        <time>2017-07-09T12:29:28Z</time>
      </trkpt>
      <trkpt lat="44.77958" lon="7.03734">
        <ele>1994.87</ele>
        <time>2017-07-09T12:29:49Z</time>
      </trkpt>
      <trkpt lat="44.77961" lon="7.03733">
        <ele>1994.87</ele>
        <time>2017-07-09T12:30:04Z</time>
      </trkpt>
      <trkpt lat="44.77963" lon="7.03736">
        <ele>1992.95</ele>
        <time>2017-07-09T12:30:15Z</time>
      </trkpt>
      <trkpt lat="44.77963" lon="7.03736">
        <ele>1992.95</ele>
        <time>2017-07-09T12:30:43Z</time>
      </trkpt>
      <trkpt lat="44.77963" lon="7.03737">
        <ele>1988.62</ele>
        <time>2017-07-09T12:30:49Z</time>
      </trkpt>
      <trkpt lat="44.77963" lon="7.03737">
        <ele>1997.28</ele>
        <time>2017-07-09T12:30:50Z</time>
      </trkpt>
      <trkpt lat="44.77963" lon="7.03737">
        <ele>1993.43</ele>
        <time>2017-07-09T12:30:51Z</time>
      </trkpt>
      <trkpt lat="44.77963" lon="7.03737">
        <ele>1993.43</ele>
        <time>2017-07-09T12:31:00Z</time>
      </trkpt>
      <trkpt lat="44.77965" lon="7.03737">
        <ele>1992.95</ele>
        <time>2017-07-09T12:31:03Z</time>
      </trkpt>
      <trkpt lat="44.77968" lon="7.03738">
        <ele>1992.47</ele>
        <time>2017-07-09T12:31:06Z</time>
      </trkpt>
      <trkpt lat="44.77981" lon="7.03743">
        <ele>1989.59</ele>
        <time>2017-07-09T12:31:17Z</time>
      </trkpt>
      <trkpt lat="44.77985" lon="7.03746">
        <ele>1988.14</ele>
        <time>2017-07-09T12:31:23Z</time>
      </trkpt>
      <trkpt lat="44.77995" lon="7.03756">
        <ele>1987.18</ele>
        <time>2017-07-09T12:31:29Z</time>
      </trkpt>
      <trkpt lat="44.78002" lon="7.03758">
        <ele>1984.78</ele>
        <time>2017-07-09T12:31:39Z</time>
      </trkpt>
      <trkpt lat="44.7801" lon="7.03761">
        <ele>1983.34</ele>
        <time>2017-07-09T12:31:45Z</time>
      </trkpt>
      <trkpt lat="44.78023" lon="7.03761">
        <ele>1981.41</ele>
        <time>2017-07-09T12:31:54Z</time>
      </trkpt>
      <trkpt lat="44.78024" lon="7.03762">
        <ele>1980.93</ele>
        <time>2017-07-09T12:31:57Z</time>
      </trkpt>
      <trkpt lat="44.78033" lon="7.03768">
        <ele>1979.49</ele>
        <time>2017-07-09T12:32:06Z</time>
      </trkpt>
      <trkpt lat="44.78045" lon="7.03769">
        <ele>1977.57</ele>
        <time>2017-07-09T12:32:17Z</time>
      </trkpt>
      <trkpt lat="44.78052" lon="7.03768">
        <ele>1976.13</ele>
        <time>2017-07-09T12:32:24Z</time>
      </trkpt>
      <trkpt lat="44.78053" lon="7.03773">
        <ele>1975.17</ele>
        <time>2017-07-09T12:32:29Z</time>
      </trkpt>
      <trkpt lat="44.78046" lon="7.0379">
        <ele>1973.72</ele>
        <time>2017-07-09T12:32:41Z</time>
      </trkpt>
      <trkpt lat="44.78037" lon="7.03796">
        <ele>1972.28</ele>
        <time>2017-07-09T12:32:51Z</time>
      </trkpt>
      <trkpt lat="44.78035" lon="7.03797">
        <ele>1971.32</ele>
        <time>2017-07-09T12:32:55Z</time>
      </trkpt>
      <trkpt lat="44.78026" lon="7.03802">
        <ele>1969.88</ele>
        <time>2017-07-09T12:33:03Z</time>
      </trkpt>
      <trkpt lat="44.78025" lon="7.03804">
        <ele>1968.92</ele>
        <time>2017-07-09T12:33:05Z</time>
      </trkpt>
      <trkpt lat="44.78022" lon="7.03808">
        <ele>1968.92</ele>
        <time>2017-07-09T12:33:09Z</time>
      </trkpt>
      <trkpt lat="44.78022" lon="7.03809">
        <ele>1968.44</ele>
        <time>2017-07-09T12:33:11Z</time>
      </trkpt>
      <trkpt lat="44.78017" lon="7.03811">
        <ele>1966.99</ele>
        <time>2017-07-09T12:33:16Z</time>
      </trkpt>
      <trkpt lat="44.78013" lon="7.03813">
        <ele>1965.07</ele>
        <time>2017-07-09T12:33:29Z</time>
      </trkpt>
      <trkpt lat="44.78017" lon="7.03812">
        <ele>1965.07</ele>
        <time>2017-07-09T12:33:39Z</time>
      </trkpt>
      <trkpt lat="44.78017" lon="7.03814">
        <ele>1964.11</ele>
        <time>2017-07-09T12:33:53Z</time>
      </trkpt>
      <trkpt lat="44.78015" lon="7.03814">
        <ele>1964.11</ele>
        <time>2017-07-09T12:34:16Z</time>
      </trkpt>
      <trkpt lat="44.78013" lon="7.03818">
        <ele>1964.11</ele>
        <time>2017-07-09T12:34:36Z</time>
      </trkpt>
      <trkpt lat="44.78013" lon="7.03818">
        <ele>1964.11</ele>
        <time>2017-07-09T12:34:37Z</time>
      </trkpt>
      <trkpt lat="44.78005" lon="7.03818">
        <ele>1963.15</ele>
        <time>2017-07-09T12:34:49Z</time>
      </trkpt>
      <trkpt lat="44.78001" lon="7.03821">
        <ele>1961.23</ele>
        <time>2017-07-09T12:35:01Z</time>
      </trkpt>
      <trkpt lat="44.77998" lon="7.03822">
        <ele>1960.27</ele>
        <time>2017-07-09T12:35:06Z</time>
      </trkpt>
      <trkpt lat="44.77992" lon="7.03831">
        <ele>1957.86</ele>
        <time>2017-07-09T12:35:18Z</time>
      </trkpt>
      <trkpt lat="44.77986" lon="7.03837">
        <ele>1955.94</ele>
        <time>2017-07-09T12:35:27Z</time>
      </trkpt>
      <trkpt lat="44.77972" lon="7.03847">
        <ele>1953.54</ele>
        <time>2017-07-09T12:35:40Z</time>
      </trkpt>
      <trkpt lat="44.77962" lon="7.0385">
        <ele>1950.65</ele>
        <time>2017-07-09T12:35:54Z</time>
      </trkpt>
      <trkpt lat="44.77952" lon="7.03857">
        <ele>1947.29</ele>
        <time>2017-07-09T12:36:04Z</time>
      </trkpt>
      <trkpt lat="44.77951" lon="7.03861">
        <ele>1946.33</ele>
        <time>2017-07-09T12:36:09Z</time>
      </trkpt>
      <trkpt lat="44.77955" lon="7.03862">
        <ele>1945.36</ele>
        <time>2017-07-09T12:36:13Z</time>
      </trkpt>
      <trkpt lat="44.77957" lon="7.03867">
        <ele>1942.48</ele>
        <time>2017-07-09T12:36:22Z</time>
      </trkpt>
      <trkpt lat="44.77956" lon="7.03871">
        <ele>1941.52</ele>
        <time>2017-07-09T12:36:25Z</time>
      </trkpt>
      <trkpt lat="44.77955" lon="7.03876">
        <ele>1939.12</ele>
        <time>2017-07-09T12:36:36Z</time>
      </trkpt>
      <trkpt lat="44.77953" lon="7.03879">
        <ele>1937.67</ele>
        <time>2017-07-09T12:36:40Z</time>
      </trkpt>
      <trkpt lat="44.77951" lon="7.03886">
        <ele>1935.27</ele>
        <time>2017-07-09T12:36:50Z</time>
      </trkpt>
      <trkpt lat="44.77947" lon="7.03891">
        <ele>1932.39</ele>
        <time>2017-07-09T12:36:58Z</time>
      </trkpt>
      <trkpt lat="44.7793" lon="7.0389">
        <ele>1930.95</ele>
        <time>2017-07-09T12:37:08Z</time>
      </trkpt>
      <trkpt lat="44.77931" lon="7.03896">
        <ele>1930.95</ele>
        <time>2017-07-09T12:37:14Z</time>
      </trkpt>
      <trkpt lat="44.77929" lon="7.03897">
        <ele>1931.43</ele>
        <time>2017-07-09T12:37:16Z</time>
      </trkpt>
      <trkpt lat="44.77925" lon="7.03897">
        <ele>1930.95</ele>
        <time>2017-07-09T12:37:18Z</time>
      </trkpt>
      <trkpt lat="44.7792" lon="7.03898">
        <ele>1930.95</ele>
        <time>2017-07-09T12:37:23Z</time>
      </trkpt>
      <trkpt lat="44.77917" lon="7.03899">
        <ele>1930.46</ele>
        <time>2017-07-09T12:37:26Z</time>
      </trkpt>
      <trkpt lat="44.77908" lon="7.03902">
        <ele>1928.54</ele>
        <time>2017-07-09T12:37:36Z</time>
      </trkpt>
      <trkpt lat="44.77896" lon="7.03905">
        <ele>1925.66</ele>
        <time>2017-07-09T12:37:49Z</time>
      </trkpt>
      <trkpt lat="44.77895" lon="7.03906">
        <ele>1925.18</ele>
        <time>2017-07-09T12:37:50Z</time>
      </trkpt>
      <trkpt lat="44.77882" lon="7.0391">
        <ele>1923.25</ele>
        <time>2017-07-09T12:38:01Z</time>
      </trkpt>
      <trkpt lat="44.77871" lon="7.03908">
        <ele>1921.33</ele>
        <time>2017-07-09T12:38:10Z</time>
      </trkpt>
      <trkpt lat="44.77859" lon="7.03906">
        <ele>1919.89</ele>
        <time>2017-07-09T12:38:19Z</time>
      </trkpt>
      <trkpt lat="44.77856" lon="7.03908">
        <ele>1918.93</ele>
        <time>2017-07-09T12:38:22Z</time>
      </trkpt>
      <trkpt lat="44.77851" lon="7.0391">
        <ele>1917.97</ele>
        <time>2017-07-09T12:38:28Z</time>
      </trkpt>
      <trkpt lat="44.77844" lon="7.03911">
        <ele>1917.49</ele>
        <time>2017-07-09T12:38:36Z</time>
      </trkpt>
      <trkpt lat="44.7784" lon="7.03909">
        <ele>1917.01</ele>
        <time>2017-07-09T12:38:39Z</time>
      </trkpt>
      <trkpt lat="44.7782" lon="7.03918">
        <ele>1915.56</ele>
        <time>2017-07-09T12:38:52Z</time>
      </trkpt>
      <trkpt lat="44.77815" lon="7.0392">
        <ele>1914.12</ele>
        <time>2017-07-09T12:38:57Z</time>
      </trkpt>
      <trkpt lat="44.77809" lon="7.03926">
        <ele>1912.2</ele>
        <time>2017-07-09T12:39:09Z</time>
      </trkpt>
      <trkpt lat="44.7781" lon="7.03919">
        <ele>1911.72</ele>
        <time>2017-07-09T12:39:12Z</time>
      </trkpt>
      <trkpt lat="44.77813" lon="7.03915">
        <ele>1911.24</ele>
        <time>2017-07-09T12:39:15Z</time>
      </trkpt>
      <trkpt lat="44.77818" lon="7.03896">
        <ele>1909.8</ele>
        <time>2017-07-09T12:39:23Z</time>
      </trkpt>
      <trkpt lat="44.77819" lon="7.03887">
        <ele>1907.39</ele>
        <time>2017-07-09T12:39:32Z</time>
      </trkpt>
      <trkpt lat="44.77812" lon="7.03897">
        <ele>1906.43</ele>
        <time>2017-07-09T12:39:38Z</time>
      </trkpt>
      <trkpt lat="44.77801" lon="7.0391">
        <ele>1904.51</ele>
        <time>2017-07-09T12:39:52Z</time>
      </trkpt>
      <trkpt lat="44.77797" lon="7.03913">
        <ele>1903.07</ele>
        <time>2017-07-09T12:40:00Z</time>
      </trkpt>
      <trkpt lat="44.77794" lon="7.03901">
        <ele>1900.66</ele>
        <time>2017-07-09T12:40:12Z</time>
      </trkpt>
      <trkpt lat="44.77793" lon="7.0389">
        <ele>1897.78</ele>
        <time>2017-07-09T12:40:23Z</time>
      </trkpt>
      <trkpt lat="44.77789" lon="7.03874">
        <ele>1894.42</ele>
        <time>2017-07-09T12:40:37Z</time>
      </trkpt>
      <trkpt lat="44.77786" lon="7.0388">
        <ele>1892.49</ele>
        <time>2017-07-09T12:40:44Z</time>
      </trkpt>
      <trkpt lat="44.77778" lon="7.03887">
        <ele>1890.09</ele>
        <time>2017-07-09T12:40:58Z</time>
      </trkpt>
      <trkpt lat="44.7778" lon="7.03871">
        <ele>1887.69</ele>
        <time>2017-07-09T12:41:10Z</time>
      </trkpt>
      <trkpt lat="44.77781" lon="7.03855">
        <ele>1887.21</ele>
        <time>2017-07-09T12:41:18Z</time>
      </trkpt>
      <trkpt lat="44.77773" lon="7.03849">
        <ele>1884.32</ele>
        <time>2017-07-09T12:41:33Z</time>
      </trkpt>
      <trkpt lat="44.7777" lon="7.03854">
        <ele>1884.8</ele>
        <time>2017-07-09T12:41:48Z</time>
      </trkpt>
      <trkpt lat="44.7777" lon="7.03853">
        <ele>1884.8</ele>
        <time>2017-07-09T12:41:49Z</time>
      </trkpt>
      <trkpt lat="44.77759" lon="7.03849">
        <ele>1881.44</ele>
        <time>2017-07-09T12:42:00Z</time>
      </trkpt>
      <trkpt lat="44.77756" lon="7.03849">
        <ele>1880.96</ele>
        <time>2017-07-09T12:42:14Z</time>
      </trkpt>
      <trkpt lat="44.77756" lon="7.03848">
        <ele>1880.48</ele>
        <time>2017-07-09T12:42:40Z</time>
      </trkpt>
      <trkpt lat="44.77756" lon="7.03847">
        <ele>1880</ele>
        <time>2017-07-09T12:42:45Z</time>
      </trkpt>
      <trkpt lat="44.77751" lon="7.0385">
        <ele>1877.11</ele>
        <time>2017-07-09T12:42:52Z</time>
      </trkpt>
      <trkpt lat="44.77745" lon="7.03855">
        <ele>1874.71</ele>
        <time>2017-07-09T12:43:01Z</time>
      </trkpt>
      <trkpt lat="44.77743" lon="7.03858">
        <ele>1873.27</ele>
        <time>2017-07-09T12:43:05Z</time>
      </trkpt>
      <trkpt lat="44.77737" lon="7.03864">
        <ele>1870.86</ele>
        <time>2017-07-09T12:43:14Z</time>
      </trkpt>
      <trkpt lat="44.7773" lon="7.03861">
        <ele>1867.5</ele>
        <time>2017-07-09T12:43:23Z</time>
      </trkpt>
      <trkpt lat="44.77727" lon="7.03869">
        <ele>1865.09</ele>
        <time>2017-07-09T12:43:31Z</time>
      </trkpt>
      <trkpt lat="44.77725" lon="7.03878">
        <ele>1862.69</ele>
        <time>2017-07-09T12:43:39Z</time>
      </trkpt>
      <trkpt lat="44.77724" lon="7.03883">
        <ele>1862.21</ele>
        <time>2017-07-09T12:43:41Z</time>
      </trkpt>
      <trkpt lat="44.77719" lon="7.03883">
        <ele>1859.81</ele>
        <time>2017-07-09T12:43:53Z</time>
      </trkpt>
      <trkpt lat="44.7771" lon="7.03874">
        <ele>1856.92</ele>
        <time>2017-07-09T12:44:05Z</time>
      </trkpt>
      <trkpt lat="44.77708" lon="7.03871">
        <ele>1856.44</ele>
        <time>2017-07-09T12:44:08Z</time>
      </trkpt>
      <trkpt lat="44.77706" lon="7.03863">
        <ele>1855.48</ele>
        <time>2017-07-09T12:44:12Z</time>
      </trkpt>
      <trkpt lat="44.77703" lon="7.03858">
        <ele>1853.56</ele>
        <time>2017-07-09T12:44:21Z</time>
      </trkpt>
      <trkpt lat="44.77701" lon="7.03864">
        <ele>1852.12</ele>
        <time>2017-07-09T12:44:28Z</time>
      </trkpt>
      <trkpt lat="44.77701" lon="7.03875">
        <ele>1849.23</ele>
        <time>2017-07-09T12:44:40Z</time>
      </trkpt>
      <trkpt lat="44.77698" lon="7.03884">
        <ele>1846.35</ele>
        <time>2017-07-09T12:44:51Z</time>
      </trkpt>
      <trkpt lat="44.77695" lon="7.03889">
        <ele>1845.39</ele>
        <time>2017-07-09T12:44:55Z</time>
      </trkpt>
      <trkpt lat="44.77693" lon="7.03887">
        <ele>1844.43</ele>
        <time>2017-07-09T12:44:59Z</time>
      </trkpt>
      <trkpt lat="44.77691" lon="7.03887">
        <ele>1842.98</ele>
        <time>2017-07-09T12:45:05Z</time>
      </trkpt>
      <trkpt lat="44.77691" lon="7.03897">
        <ele>1841.06</ele>
        <time>2017-07-09T12:45:12Z</time>
      </trkpt>
      <trkpt lat="44.7769" lon="7.039">
        <ele>1840.1</ele>
        <time>2017-07-09T12:45:15Z</time>
      </trkpt>
      <trkpt lat="44.77682" lon="7.03895">
        <ele>1837.7</ele>
        <time>2017-07-09T12:45:24Z</time>
      </trkpt>
      <trkpt lat="44.77678" lon="7.03888">
        <ele>1835.77</ele>
        <time>2017-07-09T12:45:31Z</time>
      </trkpt>
      <trkpt lat="44.7767" lon="7.03873">
        <ele>1832.41</ele>
        <time>2017-07-09T12:45:44Z</time>
      </trkpt>
      <trkpt lat="44.77665" lon="7.03859">
        <ele>1830.01</ele>
        <time>2017-07-09T12:45:55Z</time>
      </trkpt>
      <trkpt lat="44.77663" lon="7.03849">
        <ele>1829.05</ele>
        <time>2017-07-09T12:45:59Z</time>
      </trkpt>
      <trkpt lat="44.77662" lon="7.03843">
        <ele>1828.56</ele>
        <time>2017-07-09T12:46:02Z</time>
      </trkpt>
      <trkpt lat="44.77657" lon="7.03838">
        <ele>1828.08</ele>
        <time>2017-07-09T12:46:05Z</time>
      </trkpt>
      <trkpt lat="44.7765" lon="7.03843">
        <ele>1825.68</ele>
        <time>2017-07-09T12:46:14Z</time>
      </trkpt>
      <trkpt lat="44.77648" lon="7.03846">
        <ele>1824.72</ele>
        <time>2017-07-09T12:46:18Z</time>
      </trkpt>
      <trkpt lat="44.77644" lon="7.03853">
        <ele>1822.32</ele>
        <time>2017-07-09T12:46:27Z</time>
      </trkpt>
      <trkpt lat="44.7764" lon="7.03863">
        <ele>1819.91</ele>
        <time>2017-07-09T12:46:36Z</time>
      </trkpt>
      <trkpt lat="44.7764" lon="7.03865">
        <ele>1819.43</ele>
        <time>2017-07-09T12:46:37Z</time>
      </trkpt>
      <trkpt lat="44.77634" lon="7.03873">
        <ele>1816.55</ele>
        <time>2017-07-09T12:46:48Z</time>
      </trkpt>
      <trkpt lat="44.77628" lon="7.03881">
        <ele>1814.15</ele>
        <time>2017-07-09T12:46:58Z</time>
      </trkpt>
      <trkpt lat="44.77627" lon="7.0389">
        <ele>1812.22</ele>
        <time>2017-07-09T12:47:06Z</time>
      </trkpt>
      <trkpt lat="44.77625" lon="7.03888">
        <ele>1811.74</ele>
        <time>2017-07-09T12:47:08Z</time>
      </trkpt>
      <trkpt lat="44.77624" lon="7.03883">
        <ele>1810.78</ele>
        <time>2017-07-09T12:47:12Z</time>
      </trkpt>
      <trkpt lat="44.77618" lon="7.03873">
        <ele>1807.9</ele>
        <time>2017-07-09T12:47:23Z</time>
      </trkpt>
      <trkpt lat="44.77609" lon="7.03876">
        <ele>1805.49</ele>
        <time>2017-07-09T12:47:33Z</time>
      </trkpt>
      <trkpt lat="44.77603" lon="7.03883">
        <ele>1804.05</ele>
        <time>2017-07-09T12:47:38Z</time>
      </trkpt>
      <trkpt lat="44.77602" lon="7.03888">
        <ele>1803.09</ele>
        <time>2017-07-09T12:47:43Z</time>
      </trkpt>
      <trkpt lat="44.77596" lon="7.03899">
        <ele>1800.21</ele>
        <time>2017-07-09T12:47:55Z</time>
      </trkpt>
      <trkpt lat="44.77592" lon="7.03901">
        <ele>1798.76</ele>
        <time>2017-07-09T12:48:02Z</time>
      </trkpt>
      <trkpt lat="44.77587" lon="7.039">
        <ele>1797.32</ele>
        <time>2017-07-09T12:48:09Z</time>
      </trkpt>
      <trkpt lat="44.77585" lon="7.03911">
        <ele>1795.4</ele>
        <time>2017-07-09T12:48:21Z</time>
      </trkpt>
      <trkpt lat="44.77586" lon="7.0391">
        <ele>1788.19</ele>
        <time>2017-07-09T12:48:42Z</time>
      </trkpt>
      <trkpt lat="44.77585" lon="7.0391">
        <ele>1793.48</ele>
        <time>2017-07-09T12:48:43Z</time>
      </trkpt>
      <trkpt lat="44.77585" lon="7.0391">
        <ele>1794.44</ele>
        <time>2017-07-09T12:48:45Z</time>
      </trkpt>
      <trkpt lat="44.77585" lon="7.0391">
        <ele>1798.28</ele>
        <time>2017-07-09T12:49:11Z</time>
      </trkpt>
      <trkpt lat="44.77585" lon="7.0391">
        <ele>1794.44</ele>
        <time>2017-07-09T12:49:12Z</time>
      </trkpt>
      <trkpt lat="44.77586" lon="7.03911">
        <ele>1793.48</ele>
        <time>2017-07-09T12:49:45Z</time>
      </trkpt>
      <trkpt lat="44.77586" lon="7.03911">
        <ele>1800.21</ele>
        <time>2017-07-09T12:50:05Z</time>
      </trkpt>
      <trkpt lat="44.77585" lon="7.03911">
        <ele>1794.92</ele>
        <time>2017-07-09T12:50:06Z</time>
      </trkpt>
      <trkpt lat="44.77586" lon="7.03911">
        <ele>1789.15</ele>
        <time>2017-07-09T12:50:09Z</time>
      </trkpt>
      <trkpt lat="44.77586" lon="7.03911">
        <ele>1792.52</ele>
        <time>2017-07-09T12:50:10Z</time>
      </trkpt>
      <trkpt lat="44.77586" lon="7.0391">
        <ele>1802.13</ele>
        <time>2017-07-09T12:50:37Z</time>
      </trkpt>
      <trkpt lat="44.77586" lon="7.03911">
        <ele>1802.13</ele>
        <time>2017-07-09T12:50:38Z</time>
      </trkpt>
      <trkpt lat="44.77586" lon="7.03911">
        <ele>1794.44</ele>
        <time>2017-07-09T12:50:39Z</time>
      </trkpt>
      <trkpt lat="44.77585" lon="7.03912">
        <ele>1793</ele>
        <time>2017-07-09T12:50:49Z</time>
      </trkpt>
      <trkpt lat="44.77579" lon="7.03911">
        <ele>1791.07</ele>
        <time>2017-07-09T12:50:56Z</time>
      </trkpt>
      <trkpt lat="44.77572" lon="7.03913">
        <ele>1790.11</ele>
        <time>2017-07-09T12:51:01Z</time>
      </trkpt>
      <trkpt lat="44.77558" lon="7.03912">
        <ele>1787.71</ele>
        <time>2017-07-09T12:51:11Z</time>
      </trkpt>
      <trkpt lat="44.77554" lon="7.03911">
        <ele>1786.75</ele>
        <time>2017-07-09T12:51:16Z</time>
      </trkpt>
      <trkpt lat="44.77543" lon="7.03911">
        <ele>1784.34</ele>
        <time>2017-07-09T12:51:27Z</time>
      </trkpt>
      <trkpt lat="44.77542" lon="7.03912">
        <ele>1783.86</ele>
        <time>2017-07-09T12:51:28Z</time>
      </trkpt>
      <trkpt lat="44.7754" lon="7.03914">
        <ele>1783.38</ele>
        <time>2017-07-09T12:51:30Z</time>
      </trkpt>
      <trkpt lat="44.77531" lon="7.03922">
        <ele>1780.02</ele>
        <time>2017-07-09T12:51:41Z</time>
      </trkpt>
      <trkpt lat="44.77527" lon="7.03926">
        <ele>1779.06</ele>
        <time>2017-07-09T12:51:46Z</time>
      </trkpt>
      <trkpt lat="44.77527" lon="7.0394">
        <ele>1776.65</ele>
        <time>2017-07-09T12:51:55Z</time>
      </trkpt>
      <trkpt lat="44.77525" lon="7.03945">
        <ele>1775.69</ele>
        <time>2017-07-09T12:51:59Z</time>
      </trkpt>
      <trkpt lat="44.77519" lon="7.03958">
        <ele>1773.77</ele>
        <time>2017-07-09T12:52:09Z</time>
      </trkpt>
      <trkpt lat="44.77514" lon="7.03963">
        <ele>1772.33</ele>
        <time>2017-07-09T12:52:13Z</time>
      </trkpt>
      <trkpt lat="44.77513" lon="7.03966">
        <ele>1772.33</ele>
        <time>2017-07-09T12:52:15Z</time>
      </trkpt>
      <trkpt lat="44.77502" lon="7.03976">
        <ele>1769.92</ele>
        <time>2017-07-09T12:52:27Z</time>
      </trkpt>
      <trkpt lat="44.77498" lon="7.03982">
        <ele>1768.96</ele>
        <time>2017-07-09T12:52:32Z</time>
      </trkpt>
      <trkpt lat="44.77493" lon="7.03985">
        <ele>1767.52</ele>
        <time>2017-07-09T12:52:37Z</time>
      </trkpt>
      <trkpt lat="44.77491" lon="7.03986">
        <ele>1767.04</ele>
        <time>2017-07-09T12:52:40Z</time>
      </trkpt>
      <trkpt lat="44.77482" lon="7.03994">
        <ele>1764.64</ele>
        <time>2017-07-09T12:52:50Z</time>
      </trkpt>
      <trkpt lat="44.77468" lon="7.04009">
        <ele>1761.75</ele>
        <time>2017-07-09T12:53:02Z</time>
      </trkpt>
      <trkpt lat="44.77468" lon="7.04009">
        <ele>1761.27</ele>
        <time>2017-07-09T12:53:04Z</time>
      </trkpt>
      <trkpt lat="44.77466" lon="7.04008">
        <ele>1760.79</ele>
        <time>2017-07-09T12:53:07Z</time>
      </trkpt>
      <trkpt lat="44.77464" lon="7.0401">
        <ele>1759.83</ele>
        <time>2017-07-09T12:53:11Z</time>
      </trkpt>
      <trkpt lat="44.77463" lon="7.04016">
        <ele>1759.35</ele>
        <time>2017-07-09T12:53:14Z</time>
      </trkpt>
      <trkpt lat="44.77458" lon="7.04025">
        <ele>1756.95</ele>
        <time>2017-07-09T12:53:26Z</time>
      </trkpt>
      <trkpt lat="44.77447" lon="7.04039">
        <ele>1754.06</ele>
        <time>2017-07-09T12:53:39Z</time>
      </trkpt>
      <trkpt lat="44.77444" lon="7.04042">
        <ele>1753.1</ele>
        <time>2017-07-09T12:53:48Z</time>
      </trkpt>
      <trkpt lat="44.7744" lon="7.04044">
        <ele>1752.62</ele>
        <time>2017-07-09T12:53:52Z</time>
      </trkpt>
      <trkpt lat="44.77438" lon="7.04042">
        <ele>1752.62</ele>
        <time>2017-07-09T12:53:54Z</time>
      </trkpt>
      <trkpt lat="44.77433" lon="7.0404">
        <ele>1753.1</ele>
        <time>2017-07-09T12:53:58Z</time>
      </trkpt>
      <trkpt lat="44.7742" lon="7.04031">
        <ele>1755.02</ele>
        <time>2017-07-09T12:54:12Z</time>
      </trkpt>
      <trkpt lat="44.77418" lon="7.04028">
        <ele>1755.5</ele>
        <time>2017-07-09T12:54:15Z</time>
      </trkpt>
      <trkpt lat="44.77414" lon="7.04025">
        <ele>1756.47</ele>
        <time>2017-07-09T12:54:19Z</time>
      </trkpt>
      <trkpt lat="44.7741" lon="7.04023">
        <ele>1756.95</ele>
        <time>2017-07-09T12:54:24Z</time>
      </trkpt>
      <trkpt lat="44.77407" lon="7.04021">
        <ele>1756.95</ele>
        <time>2017-07-09T12:54:27Z</time>
      </trkpt>
      <trkpt lat="44.77403" lon="7.04012">
        <ele>1756.95</ele>
        <time>2017-07-09T12:54:34Z</time>
      </trkpt>
      <trkpt lat="44.77394" lon="7.03991">
        <ele>1756.47</ele>
        <time>2017-07-09T12:54:49Z</time>
      </trkpt>
      <trkpt lat="44.77391" lon="7.03978">
        <ele>1755.5</ele>
        <time>2017-07-09T12:54:56Z</time>
      </trkpt>
      <trkpt lat="44.77391" lon="7.03976">
        <ele>1755.99</ele>
        <time>2017-07-09T12:54:58Z</time>
      </trkpt>
      <trkpt lat="44.77389" lon="7.03963">
        <ele>1753.1</ele>
        <time>2017-07-09T12:55:06Z</time>
      </trkpt>
      <trkpt lat="44.77386" lon="7.03958">
        <ele>1755.5</ele>
        <time>2017-07-09T12:55:10Z</time>
      </trkpt>
      <trkpt lat="44.77383" lon="7.03955">
        <ele>1755.5</ele>
        <time>2017-07-09T12:55:13Z</time>
      </trkpt>
      <trkpt lat="44.77381" lon="7.03952">
        <ele>1756.47</ele>
        <time>2017-07-09T12:55:16Z</time>
      </trkpt>
      <trkpt lat="44.77371" lon="7.03946">
        <ele>1755.5</ele>
        <time>2017-07-09T12:55:25Z</time>
      </trkpt>
      <trkpt lat="44.77362" lon="7.03943">
        <ele>1755.02</ele>
        <time>2017-07-09T12:55:33Z</time>
      </trkpt>
      <trkpt lat="44.77358" lon="7.03942">
        <ele>1754.54</ele>
        <time>2017-07-09T12:55:37Z</time>
      </trkpt>
    </trkseg>
  </trk>
</gpx>